[[{"header":{"parameterUnit":"m.s-1","parameterCategory":1,"la1":30.6,"la2":29.2853,"lo1":-89.7004,"lo2":-87.6739,"dy":0.0162,"dx":0.0183,"nx":112,"ny":82,"refTime":"2023-05-21T12:00:00:Z","depth":0,"parameterNumber":2,"parameterNumberName":"U-component_of_WINDS"},"data":[0.0,0.0,0.0,0.0,0.0,0.0,0.0,0.0,0.0,0.0,0.0,0.0,0.0,0.0,0.0,0.0,0.0,0.0,0.0,0.0,0.0,0.0,0.0,0.0,0.0,0.0,0.0,0.0,0.0,0.0,0.0,0.0,0.0,0.0,0.0,0.0,0.0,0.0,0.0,0.0,0.0,0.0,0.0,0.0,0.0,0.0,0.0,0.0,0.0,0.0,0.0,0.0,0.0,0.0,0.0,0.0,0.0,0.0,0.0,0.0,0.0,0.0,0.0,0.0,0.0,0.0,0.0,0.0,0.0,0.0,0.0,0.0,0.0,0.0,0.0,0.0,0.0,0.0,0.0,0.0,0.0,0.0,0.0,0.0,0.0,0.0,0.0,0.0,0.0,0.0,0.0,2.8427,3.2644,3.5077,3.458,3.4763,3.275,2.7764,0.0,0.0,0.0,0.0,0.0,0.0,0.0,0.0,0.0,0.0,0.0,0.0,0.0,0.0,0.0,0.0,0.0,0.0,0.0,0.0,0.0,0.0,0.0,0.0,0.0,0.0,0.0,0.0,0.0,0.0,0.0,0.0,0.0,0.0,0.0,0.0,0.0,0.0,0.0,0.0,0.0,0.0,0.0,0.0,0.0,0.0,0.0,0.0,0.0,0.0,0.0,0.0,0.0,0.0,0.0,0.0,0.0,0.0,0.0,0.0,0.0,0.0,0.0,0.0,0.0,0.0,0.0,0.0,0.0,0.0,0.0,0.0,0.0,0.0,0.0,0.0,0.0,0.0,0.0,0.0,0.0,0.0,0.0,0.0,0.0,0.0,0.0,0.0,0.0,0.0,0.0,0.0,0.0,0.0,0.0,0.0,0.0,0.0,0.0,0.0,0.0,0.0,0.0,0.0,2.7007,3.1498,3.3979,3.526,3.5182,3.3875,3.1628,2.8257,0.0,0.0,0.0,0.0,0.0,0.0,0.0,0.0,0.0,0.0,0.0,0.0,0.0,0.0,0.0,0.0,0.0,0.0,0.0,0.0,0.0,0.0,0.0,0.0,0.0,0.0,0.0,0.0,0.0,0.0,0.0,0.0,0.0,0.0,0.0,0.0,0.0,0.0,0.0,0.0,0.0,0.0,0.0,0.0,0.0,0.0,0.0,0.0,0.0,0.0,0.0,0.0,0.0,0.0,0.0,0.0,0.0,0.0,0.0,0.0,0.0,0.0,0.0,0.0,0.0,0.0,0.0,0.0,0.0,0.0,0.0,0.0,0.0,0.0,0.0,0.0,0.0,0.0,0.0,0.0,0.0,0.0,0.0,0.0,0.0,0.0,0.0,0.0,0.0,0.0,0.0,0.0,0.0,0.0,0.0,0.0,0.0,0.0,0.0,0.0,0.0,0.0,0.0,2.6205,2.8737,3.2777,3.4162,3.4685,3.4397,3.3352,3.1394,2.8221,2.7348,0.0,0.0,0.0,0.0,0.0,0.0,0.0,0.0,0.0,0.0,0.0,0.0,0.0,0.0,0.0,0.0,0.0,0.0,0.0,0.0,0.0,0.0,0.0,0.0,0.0,0.0,0.0,0.0,0.0,0.0,0.0,0.0,0.0,0.0,0.0,0.0,0.0,0.0,0.0,0.0,0.0,0.0,0.0,0.0,0.0,0.0,0.0,0.0,0.0,0.0,0.0,0.0,0.0,0.0,0.0,0.0,0.0,0.0,0.0,0.0,0.0,0.0,0.0,0.0,0.0,0.0,0.0,0.0,0.0,0.0,0.0,0.0,0.0,0.0,0.0,0.0,0.0,0.0,0.0,0.0,0.0,0.0,0.0,0.0,0.0,0.0,0.0,0.0,0.0,0.0,0.0,0.0,0.0,0.0,0.0,0.0,0.0,0.0,0.0,0.0,0.0,0.0,2.846,3.0436,3.33,3.3953,3.4031,3.3613,3.2672,3.0875,2.8081,2.6723,0.0,0.0,0.0,0.0,0.0,0.0,0.0,0.0,0.0,0.0,0.0,0.0,0.0,0.0,0.0,0.0,0.0,0.0,0.0,0.0,0.0,0.0,0.0,0.0,0.0,0.0,0.0,0.0,0.0,0.0,0.0,0.0,0.0,0.0,0.0,0.0,0.0,0.0,0.0,0.0,0.0,0.0,0.0,0.0,0.0,0.0,0.0,0.0,0.0,0.0,0.0,0.0,0.0,0.0,0.0,0.0,0.0,0.0,0.0,0.0,0.0,0.0,0.0,0.0,0.0,0.0,0.0,0.0,0.0,0.0,0.0,0.0,0.0,0.0,0.0,0.0,0.0,0.0,0.0,0.0,0.0,0.0,0.0,0.0,0.0,0.0,0.0,0.0,0.0,0.0,0.0,0.0,0.0,0.0,0.0,0.0,0.0,0.0,0.0,0.0,0.0,0.0,2.9606,3.1575,3.3404,3.3613,3.3639,3.3587,3.1575,2.9626,2.8004,2.6,0.0,0.0,0.0,0.0,0.0,0.0,0.0,0.0,0.0,0.0,0.0,0.0,0.0,0.0,0.0,0.0,0.0,0.0,0.0,0.0,0.0,0.0,0.0,0.0,0.0,0.0,0.0,0.0,0.0,0.0,0.0,0.0,0.0,0.0,0.0,0.0,0.0,0.0,0.0,0.0,0.0,0.0,0.0,0.0,0.0,0.0,0.0,0.0,0.0,0.0,0.0,0.0,0.0,0.0,0.0,0.0,0.0,0.0,0.0,0.0,0.0,0.0,0.0,0.0,0.0,0.0,0.0,0.0,0.0,0.0,0.0,0.0,0.0,0.0,0.0,0.0,0.0,0.0,0.0,0.0,0.0,0.0,0.0,0.0,0.0,0.0,0.0,0.0,0.0,0.0,0.0,0.0,0.0,0.0,0.0,0.0,0.0,0.0,0.0,0.0,0.0,0.0,2.9326,3.1315,0.0,3.3796,3.343,3.3064,3.1575,2.9731,2.7516,0.0,0.0,0.0,0.0,0.0,0.0,0.0,0.0,0.0,0.0,0.0,0.0,0.0,0.0,0.0,0.0,0.0,0.0,0.0,0.0,0.0,0.0,0.0,0.0,0.0,0.0,0.0,0.0,0.0,0.0,0.0,0.0,0.0,0.0,0.0,0.0,0.0,0.0,0.0,0.0,0.0,0.0,0.0,0.0,0.0,0.0,0.0,0.0,0.0,0.0,0.0,0.0,0.0,0.0,0.0,0.0,0.0,0.0,0.0,0.0,0.0,0.0,0.0,0.0,0.0,0.0,0.0,0.0,0.0,0.0,0.0,0.0,0.0,0.0,0.0,0.0,0.0,0.0,0.0,0.0,0.0,0.0,0.0,0.0,0.0,0.0,0.0,0.0,0.0,0.0,0.0,0.0,0.0,0.0,0.0,0.0,0.0,0.0,0.0,0.0,0.0,0.0,2.7593,2.93,3.1213,0.0,3.3639,3.3143,3.2725,3.113,2.934,2.7439,0.0,0.0,0.0,0.0,0.0,0.0,0.0,0.0,0.0,0.0,0.0,0.0,0.0,0.0,0.0,0.0,0.0,0.0,0.0,0.0,0.0,0.0,0.0,0.0,0.0,0.0,0.0,0.0,0.0,0.0,0.0,0.0,0.0,0.0,0.0,0.0,0.0,0.0,0.0,0.0,0.0,0.0,0.0,0.0,0.0,0.0,0.0,0.0,0.0,0.0,0.0,0.0,0.0,0.0,0.0,0.0,0.0,0.0,0.0,0.0,0.0,0.0,0.0,0.0,0.0,0.0,0.0,0.0,0.0,0.0,0.0,0.0,0.0,0.0,0.0,0.0,0.0,0.0,0.0,0.0,0.0,0.0,0.0,0.0,0.0,0.0,0.0,0.0,0.0,0.0,0.0,0.0,0.0,0.0,0.0,0.0,0.0,0.0,0.0,0.0,0.0,0.0,2.7695,2.9684,3.1653,3.3404,3.3038,3.2672,3.2672,3.0032,2.8248,0.0,0.0,0.0,0.0,0.0,0.0,0.0,0.0,0.0,0.0,0.0,0.0,0.0,0.0,0.0,0.0,0.0,0.0,0.0,0.0,0.0,0.0,0.0,0.0,0.0,0.0,0.0,0.0,0.0,0.0,0.0,0.0,0.0,0.0,0.0,0.0,0.0,0.0,0.0,0.0,0.0,0.0,0.0,0.0,0.0,0.0,0.0,0.0,0.0,0.0,0.0,0.0,0.0,0.0,0.0,0.0,0.0,0.0,0.0,0.0,0.0,0.0,0.0,0.0,0.0,0.0,0.0,0.0,0.0,0.0,0.0,0.0,0.0,0.0,0.0,0.0,0.0,0.0,0.0,0.0,0.0,0.0,0.0,0.0,0.0,0.0,0.0,0.0,0.0,0.0,0.0,0.0,0.0,0.0,0.0,0.0,0.0,0.0,0.0,0.0,0.0,0.0,0.0,2.7513,2.9274,3.1052,3.2777,3.2437,3.2097,3.2097,3.0189,2.869,2.7952,0.0,0.0,0.0,0.0,0.0,0.0,0.0,0.0,0.0,0.0,0.0,0.0,0.0,0.0,0.0,0.0,0.0,0.0,0.0,0.0,0.0,0.0,0.0,0.0,0.0,0.0,0.0,0.0,0.0,0.0,0.0,0.0,0.0,0.0,0.0,0.0,0.0,0.0,0.0,0.0,0.0,0.0,0.0,0.0,0.0,0.0,0.0,0.0,0.0,0.0,0.0,0.0,0.0,0.0,0.0,0.0,0.0,0.0,0.0,0.0,0.0,0.0,0.0,0.0,0.0,0.0,0.0,0.0,0.0,0.0,0.0,0.0,0.0,0.0,0.0,0.0,0.0,0.0,0.0,0.0,0.0,0.0,0.0,0.0,0.0,0.0,0.0,0.0,0.0,0.0,0.0,0.0,0.0,0.0,0.0,0.0,0.0,0.0,0.0,0.0,0.0,0.0,2.7443,2.9047,3.0712,3.2202,3.2045,3.1759,3.1759,3.0268,2.9047,2.8427,0.0,0.0,0.0,0.0,0.0,0.0,0.0,0.0,0.0,0.0,0.0,0.0,0.0,0.0,0.0,0.0,0.0,0.0,0.0,0.0,0.0,0.0,0.0,0.0,0.0,0.0,0.0,0.0,0.0,0.0,0.0,0.0,0.0,0.0,0.0,0.0,0.0,0.0,0.0,0.0,0.0,0.0,0.0,0.0,0.0,0.0,0.0,0.0,0.0,0.0,0.0,0.0,0.0,0.0,0.0,0.0,0.0,0.0,0.0,0.0,0.0,0.0,0.0,0.0,0.0,0.0,0.0,0.0,0.0,0.0,0.0,0.0,0.0,0.0,0.0,0.0,0.0,0.0,0.0,0.0,0.0,0.0,0.0,0.0,0.0,0.0,0.0,0.0,0.0,0.0,0.0,0.0,0.0,0.0,0.0,0.0,0.0,0.0,0.0,0.0,0.0,0.0,2.7399,2.8995,3.0503,3.1627,3.1757,3.1757,3.1757,3.0241,2.9177,2.8957,0.0,0.0,0.0,0.0,0.0,0.0,0.0,0.0,0.0,0.0,0.0,0.0,0.0,0.0,0.0,0.0,0.0,0.0,0.0,0.0,0.0,0.0,0.0,0.0,0.0,0.0,0.0,0.0,0.0,0.0,0.0,0.0,0.0,0.0,0.0,0.0,0.0,0.0,0.0,0.0,0.0,0.0,0.0,0.0,0.0,0.0,0.0,0.0,0.0,0.0,0.0,0.0,0.0,0.0,0.0,0.0,0.0,0.0,0.0,0.0,2.4305,0.0,0.0,0.0,0.0,0.0,0.0,0.0,0.0,0.0,0.0,0.0,0.0,0.0,0.0,0.0,0.0,0.0,0.0,0.0,0.0,0.0,0.0,0.0,0.0,0.0,0.0,0.0,0.0,0.0,0.0,0.0,0.0,0.0,0.0,0.0,0.0,0.0,0.0,0.0,0.0,0.0,2.7258,2.866,2.9902,3.1052,3.1156,3.1156,3.1156,3.0006,2.8995,2.8317,2.7644,0.0,0.0,0.0,0.0,0.0,0.0,0.0,0.0,0.0,0.0,0.0,0.0,0.0,0.0,0.0,0.0,0.0,0.0,0.0,0.0,0.0,0.0,0.0,0.0,0.0,0.0,0.0,0.0,0.0,0.0,0.0,0.0,0.0,0.0,0.0,0.0,0.0,0.0,0.0,0.0,0.0,0.0,0.0,0.0,0.0,0.0,0.0,0.0,0.0,0.0,0.0,0.0,0.0,0.0,0.0,0.0,0.0,0.0,0.0,0.0,2.5613,0.0,0.0,0.0,0.0,0.0,0.0,0.0,0.0,0.0,0.0,0.0,0.0,0.0,0.0,0.0,0.0,0.0,0.0,0.0,0.0,0.0,0.0,0.0,0.0,0.0,0.0,0.0,0.0,0.0,0.0,0.0,0.0,0.0,0.0,0.0,0.0,0.0,0.0,0.0,0.0,2.7591,2.8666,2.9719,3.0869,3.0973,3.0973,3.0973,2.9928,2.9144,2.869,2.7816,0.0,0.0,0.0,0.0,0.0,0.0,0.0,0.0,0.0,0.0,0.0,0.0,0.0,0.0,0.0,0.0,0.0,0.0,0.0,0.0,0.0,0.0,0.0,0.0,0.0,0.0,0.0,0.0,0.0,0.0,0.0,0.0,0.0,0.0,0.0,0.0,0.0,0.0,0.0,0.0,0.0,0.0,0.0,0.0,0.0,0.0,0.0,0.0,0.0,0.0,0.0,0.0,0.0,2.9961,3.0624,3.1035,3.1138,3.1525,3.2045,2.9047,2.7524,2.71,2.6544,0.0,0.0,0.0,0.0,0.0,0.0,0.0,0.0,0.0,0.0,0.0,0.0,0.0,0.0,0.0,0.0,0.0,0.0,0.0,0.0,0.0,0.0,0.0,0.0,2.7704,2.7618,0.0,0.0,0.0,0.0,0.0,0.0,0.0,0.0,0.0,0.0,0.0,0.0,2.799,2.8918,2.9823,3.0869,3.0973,3.0973,3.0973,3.0032,2.9327,2.9144,2.8066,2.74,0.0,0.0,0.0,0.0,0.0,0.0,0.0,0.0,0.0,0.0,0.0,0.0,0.0,0.0,0.0,0.0,0.0,0.0,0.0,0.0,0.0,0.0,0.0,0.0,0.0,0.0,0.0,0.0,0.0,0.0,0.0,0.0,2.5199,2.4732,0.0,0.0,0.0,0.0,0.0,0.0,0.0,0.0,0.0,0.0,0.0,0.0,0.0,2.8596,3.024,3.1596,3.2346,3.2448,3.4328,3.4757,3.3871,3.4392,3.4679,3.4816,3.4262,0.0,3.0099,2.9041,0.0,0.0,0.0,0.0,0.0,0.0,0.0,0.0,0.0,0.0,0.0,0.0,0.0,0.0,0.0,0.0,0.0,0.0,0.0,0.0,0.0,0.0,2.7509,2.8056,2.8265,2.8438,0.0,2.8048,2.7424,2.7067,2.6771,0.0,0.0,0.0,0.0,0.0,0.0,0.0,2.7819,2.9093,3.0268,3.0921,3.0973,3.0973,3.0973,3.0398,2.9588,2.8569,2.836,2.7769,2.6582,2.7022,0.0,0.0,0.0,0.0,0.0,0.0,0.0,0.0,0.0,0.0,0.0,0.0,0.0,0.0,0.0,0.0,0.0,0.0,0.0,0.0,0.0,0.0,0.0,0.0,0.0,0.0,0.0,0.0,0.0,2.4748,2.5456,2.4937,2.5197,2.4993,0.0,0.0,0.0,0.0,0.0,0.0,0.0,0.0,0.0,3.0931,3.149,3.226,3.3359,3.4666,3.5635,3.6285,3.7469,3.8135,3.8292,3.8553,3.8501,3.8161,3.8161,3.6817,3.4491,3.1889,3.0057,2.8682,0.0,0.0,0.0,0.0,2.7327,2.7747,2.7885,2.7954,0.0,2.7959,0.0,0.0,0.0,0.0,0.0,0.0,0.0,0.0,0.0,0.0,2.9444,3.0116,3.0581,3.079,3.0738,3.0121,2.931,0.0,2.8142,2.7776,2.7656,0.0,0.0,0.0,0.0,2.8003,2.8292,2.9398,3.0346,3.0921,3.0973,3.0973,3.0973,3.0477,2.9771,2.8935,2.8569,2.802,2.7077,2.7193,2.7385,0.0,0.0,0.0,0.0,0.0,0.0,0.0,0.0,0.0,0.0,0.0,0.0,0.0,0.0,0.0,0.0,0.0,0.0,0.0,0.0,0.0,0.0,0.0,0.0,0.0,0.0,0.0,0.0,2.5763,2.6424,2.5257,2.6325,2.6377,0.0,0.0,0.0,0.0,0.0,0.0,3.0468,3.165,3.2954,3.4529,3.5311,3.6148,3.7037,3.79,3.8815,3.9808,4.0278,4.0932,4.1742,4.1611,4.1298,4.0853,4.0697,3.9834,3.8292,3.4692,3.2507,3.1345,2.9909,2.94,2.9548,2.9548,2.9905,3.0314,3.0465,3.0436,3.0332,3.0338,2.9899,2.9181,2.8769,0.0,0.0,0.0,0.0,2.9567,3.0128,3.0644,3.1213,3.2046,3.2489,3.262,3.2359,3.1759,3.0929,0.0,2.9272,2.8924,2.8674,0.0,0.0,0.0,0.0,2.8595,2.8821,2.9757,3.0503,3.0947,3.0973,3.0973,3.0973,3.0607,3.0059,2.9327,2.8856,2.8281,2.7549,2.739,2.74,2.7488,0.0,0.0,0.0,0.0,0.0,0.0,0.0,0.0,0.0,0.0,0.0,0.0,0.0,0.0,0.0,0.0,0.0,0.0,0.0,0.0,0.0,0.0,0.0,0.0,0.0,0.0,0.0,0.0,0.0,2.6223,2.8874,0.0,0.0,0.0,0.0,3.0202,3.1254,3.2609,3.4066,3.4703,3.6071,3.8303,3.905,4.0174,4.1794,4.1873,4.2213,4.2814,4.284,4.2892,4.2918,4.2369,4.2108,4.2056,4.1507,4.0906,4.0069,3.7142,3.5003,3.3637,3.2423,3.1906,3.172,3.1986,3.2092,3.2251,3.2489,3.2202,3.1759,3.1885,3.111,3.0139,3.0467,3.0467,0.0,0.0,3.0517,3.1397,3.1654,3.1707,3.1993,3.3221,3.3091,3.2855,3.3378,3.2691,3.1628,0.0,2.9621,2.934,2.9446,0.0,2.9167,2.8605,2.9548,3.0005,2.9334,3.0268,3.0947,3.0973,3.0973,3.0973,3.0973,3.0947,3.0477,2.9353,2.9248,2.8726,2.7575,2.7456,2.765,2.8058,2.8084,0.0,0.0,0.0,0.0,0.0,0.0,0.0,0.0,0.0,0.0,0.0,0.0,0.0,0.0,0.0,0.0,0.0,0.0,0.0,0.0,0.0,0.0,0.0,0.0,0.0,0.0,0.0,0.0,2.9549,3.2066,0.0,3.0867,3.1675,3.2657,3.3487,3.4622,3.6058,3.7938,3.8582,3.9509,4.0848,4.131,4.1698,4.2085,4.232,4.2604,4.3041,4.3122,4.3436,4.3799,4.3414,4.3075,4.2683,4.2108,4.1533,4.088,3.9468,3.7678,3.5791,3.4647,3.3887,3.355,3.355,3.3866,3.4288,3.4371,3.4241,3.4031,3.3684,3.2771,3.1759,3.1915,3.1655,3.1266,3.1135,3.1629,3.2384,3.2855,3.296,3.3169,3.3927,3.3953,3.3744,3.3613,3.3349,3.28,3.1967,3.0799,2.998,3.0035,2.9693,2.9352,2.9189,2.9796,3.0147,2.9876,3.0503,3.0973,3.0973,3.0973,3.0973,3.0973,3.0634,3.0111,2.9327,2.8908,2.836,2.7549,2.7523,2.7561,2.7702,2.7702,2.7997,0.0,0.0,0.0,0.0,0.0,0.0,0.0,0.0,0.0,0.0,0.0,0.0,0.0,0.0,0.0,0.0,0.0,0.0,0.0,0.0,0.0,0.0,0.0,0.0,0.0,0.0,3.286,3.1988,3.4793,3.5941,3.3795,3.473,3.5827,3.6683,3.7826,3.911,4.0617,4.1441,4.2006,4.2332,4.2608,4.271,4.2772,4.2506,4.271,4.331,4.3527,4.3842,4.4177,4.3617,4.3047,4.2657,4.1905,4.1461,4.1172,4.078,3.9607,3.8031,3.6907,3.6201,3.5835,3.5652,3.5835,3.6149,3.594,3.5861,3.5783,3.5182,3.4188,3.3273,3.3273,3.3012,3.2698,3.2698,3.3247,3.3927,3.4345,3.4424,3.4444,3.4443,3.4307,3.4075,3.3352,3.3315,3.3173,3.2174,3.1547,3.1113,3.0906,3.0485,3.0047,2.9808,3.0157,3.0329,3.0211,3.0644,3.0999,3.0924,3.0999,3.0999,3.0924,3.0667,3.0147,2.9353,2.8924,2.8378,2.7509,2.7639,2.7676,2.7676,2.7676,2.7997,2.8705,0.0,0.0,0.0,0.0,0.0,0.0,0.0,0.0,0.0,0.0,0.0,0.0,0.0,0.0,0.0,0.0,0.0,0.0,0.0,0.0,0.0,0.0,0.0,2.9465,3.3056,3.5162,3.3588,3.7168,3.86,3.5787,3.7763,3.9355,3.9648,4.0722,4.1591,4.2128,4.3176,4.3508,4.2946,4.28,4.3099,4.3789,4.2575,4.2575,4.3789,4.3789,4.3789,4.3738,4.2588,4.2076,4.2106,4.0978,4.0593,4.0896,4.0896,4.0759,4.0331,3.9207,3.8736,3.8658,3.8109,3.7926,3.7821,3.7246,3.7037,3.6933,3.6358,3.5391,3.4476,3.4476,3.4476,3.445,3.445,3.526,3.6096,3.6096,3.6009,3.5833,3.4765,3.4159,3.3557,3.2461,3.2671,3.2475,3.1014,3.1763,3.2463,3.1811,3.1707,3.1448,3.0557,3.0753,0.0,3.0482,3.0727,3.0901,3.075,3.0901,3.095,3.0724,3.0933,3.0598,2.9379,2.931,2.8821,2.7535,2.7867,2.8084,2.8084,2.8135,2.8135,2.8135,0.0,0.0,0.0,0.0,0.0,0.0,0.0,0.0,0.0,0.0,0.0,0.0,0.0,0.0,0.0,0.0,0.0,0.0,0.0,0.0,0.0,0.0,3.3366,3.2767,3.5709,3.8165,3.8941,4.1156,4.2237,4.1027,4.0946,4.1497,4.2588,4.2459,4.2213,4.2273,4.2544,4.1988,4.031,4.1239,4.145,4.05,4.1281,4.1281,4.05,4.0731,4.0846,4.0822,3.997,4.0038,4.0749,3.976,3.9725,4.0593,4.0795,4.0893,4.0685,4.0129,3.9442,3.8684,3.8527,3.824,3.7874,3.7717,3.7665,3.7639,3.7456,3.6907,3.6279,3.6279,3.5992,3.5626,3.5626,3.5861,3.5921,3.5213,3.5035,3.4765,3.3741,3.3053,3.2665,3.2098,3.1872,3.1529,3.1121,3.1216,3.1089,3.0275,3.0129,3.0211,3.0483,2.9983,0.0,3.1377,3.109,3.0748,3.0829,3.1255,3.1261,3.0514,3.0114,2.9748,2.9327,2.8482,2.7884,2.7482,2.7613,2.7624,2.7624,2.8412,2.8757,0.0,0.0,0.0,0.0,0.0,0.0,0.0,0.0,0.0,0.0,0.0,0.0,0.0,0.0,0.0,0.0,0.0,0.0,0.0,0.0,0.0,0.0,3.4223,3.6666,3.7404,3.9318,4.1106,4.2378,4.3245,4.3489,4.2824,4.1825,4.1485,4.2421,4.1605,4.1258,4.1591,4.1519,4.0787,3.9561,3.987,3.9754,3.9216,3.9545,3.9545,3.9216,3.9243,3.936,3.9405,3.8385,3.8389,3.9196,3.8144,3.8113,3.8871,3.908,3.9494,0.0,0.0,0.0,0.0,0.0,3.8161,3.79,3.79,3.79,3.7808,3.7413,3.6816,3.6328,3.6328,3.58,3.5249,3.5724,3.5723,3.5445,3.4799,3.4706,3.4426,3.3363,3.2677,3.2207,3.1453,3.1066,3.0742,3.0285,3.0354,0.0,2.888,2.9612,3.0326,3.035,3.0302,3.067,3.1687,3.1455,3.1198,3.1198,3.1428,3.1334,3.082,3.0188,0.0,0.0,0.0,2.8505,2.8482,2.8456,0.0,0.0,0.0,2.9295,2.9158,0.0,0.0,0.0,2.9538,2.974,0.0,0.0,0.0,0.0,0.0,0.0,0.0,0.0,0.0,0.0,0.0,0.0,0.0,0.0,0.0,0.0,3.7329,3.9827,4.2368,4.3288,4.3781,4.4105,4.3937,4.3381,4.2616,4.1205,4.0341,4.0586,3.9779,3.9665,4.0341,0.0,0.0,0.0,0.0,3.8531,3.8925,3.79,3.7856,3.8834,3.8313,3.8313,3.8698,3.7429,3.6996,3.7428,3.647,3.6231,3.6511,3.6619,3.7583,3.9005,3.9925,3.9829,3.9162,3.8101,3.7712,3.7686,3.7635,0.0,0.0,3.6452,3.5769,3.5369,3.5369,3.4715,3.4244,3.509,3.5059,3.4775,3.4678,3.4581,3.4288,3.3201,3.2613,3.1856,3.0687,3.0361,2.9986,2.8978,2.9415,2.9452,2.8042,2.9624,3.0754,3.001,3.0749,3.1489,3.1479,3.1697,3.1807,3.1751,0.0,0.0,3.1159,3.0767,3.034,3.0043,2.9958,2.9883,2.974,2.9714,2.9714,2.9714,2.9766,2.9731,2.9379,2.9431,2.9745,3.0168,3.0312,3.0186,0.0,0.0,0.0,0.0,0.0,0.0,0.0,0.0,0.0,0.0,0.0,0.0,0.0,0.0,0.0,3.7245,4.0757,4.3338,4.3746,4.4841,4.5257,4.4257,4.4521,4.4147,4.2349,4.0972,4.036,4.0632,4.0307,3.9765,3.9147,3.9412,3.8908,3.7424,3.814,3.8222,3.7276,3.7601,3.7407,3.6706,0.0,0.0,3.6114,3.548,3.5607,3.6099,3.5505,3.5692,3.6294,3.6511,3.6918,3.7488,3.8664,3.8289,3.7097,3.667,3.6527,3.6478,3.6063,3.5917,3.5844,3.5308,3.4993,3.4896,3.4896,3.48,0.0,3.4896,3.4897,3.4581,3.3697,3.33,3.2901,3.1812,3.1055,3.0407,3.0003,2.9558,2.9176,2.9,2.888,2.8838,2.8775,2.8839,2.8936,2.8914,2.8484,2.9012,3.128,3.1009,3.0937,3.1858,3.2215,3.1963,3.0795,3.0568,3.034,2.9895,2.958,2.9418,2.936,2.936,2.936,2.936,2.9829,3.0012,2.998,3.0424,3.0712,3.0817,3.0377,3.0403,0.0,0.0,0.0,0.0,0.0,0.0,0.0,0.0,0.0,0.0,0.0,3.17,0.0,0.0,3.8237,4.0846,4.2935,4.4399,4.4876,4.4967,4.4606,4.3599,4.3206,4.2426,4.0912,3.9367,3.8637,3.9143,3.8487,3.8231,3.8465,3.8252,3.7889,3.7136,3.7529,3.7297,3.6453,3.6834,3.6581,3.5769,3.5314,3.5211,3.5397,3.4486,3.4407,3.4955,3.4253,3.4146,3.458,3.5421,3.5421,3.4958,3.6507,3.6906,3.654,3.6098,3.5944,3.5829,3.5853,3.5517,3.5086,3.4469,3.4205,3.3993,3.3796,3.34,3.3101,3.3476,3.3178,3.27,3.2117,3.1913,3.1629,3.1137,3.076,3.0363,3.0158,2.9677,2.9262,2.9182,2.906,2.8897,2.8869,2.8828,2.8873,2.9015,2.925,2.9988,3.1448,3.1625,3.1889,3.2525,3.245,3.2247,3.1589,3.1221,3.0906,3.0698,3.0377,3.0137,3.0137,3.0137,3.0137,3.0137,3.0424,3.0555,3.0555,3.0843,3.0973,3.0973,3.0686,3.0712,0.0,0.0,0.0,0.0,0.0,0.0,0.0,0.0,2.9383,3.1528,3.3097,3.4617,3.6405,3.854,4.0881,4.3491,4.4014,4.4389,4.509,4.4048,4.2986,4.2136,4.1286,4.0345,3.9325,3.774,3.697,3.7343,3.666,3.6742,3.786,3.7218,3.7011,3.7488,3.7136,3.6804,3.6515,3.6349,3.6059,3.5687,3.5148,3.5024,3.5252,3.4155,3.3762,3.3886,3.3078,3.2727,3.2841,3.4022,3.3797,3.2841,3.4224,3.5282,3.5862,3.5422,3.5212,3.5113,3.5442,3.5121,3.4363,3.3686,3.3175,3.2937,3.2544,3.1812,3.1219,3.1993,3.1505,3.0827,3.0827,3.0724,3.0724,3.0724,3.0724,3.062,3.0391,2.9994,2.9722,2.9435,2.9435,2.9311,2.8938,2.9125,2.9325,2.9246,3.028,3.1058,3.1168,3.1858,3.2474,3.281,3.2386,3.2147,3.2407,3.1902,3.1551,3.1603,3.1317,3.1081,3.1156,3.1052,3.0973,3.0973,3.0973,3.0973,3.0973,3.1104,3.1156,3.1156,3.1261,3.1261,2.4891,2.5228,2.6747,2.8002,2.8622,3.004,0.0,0.0,3.4805,3.7286,3.7842,3.8056,3.8767,3.9708,4.0946,4.2639,4.3794,4.4024,4.2948,4.2323,4.1172,3.9003,3.9647,3.9844,3.8507,3.7452,3.6825,3.6887,3.6784,3.6784,3.6949,3.6867,3.7011,3.7488,3.7446,3.7591,3.7943,3.7136,3.6701,3.6639,3.5769,3.5169,3.4817,3.4672,3.4176,3.343,3.2934,3.2727,3.2727,3.2841,3.2841,3.2727,3.2934,3.3254,3.3642,3.3802,3.3871,3.3763,3.3396,3.3399,3.329,3.2168,3.1866,3.1945,3.1555,3.1137,3.0931,3.1219,3.1137,3.0827,3.0827,3.062,3.0391,3.0391,3.0287,3.0099,3.0099,2.9953,2.9911,2.9911,2.9911,2.9911,2.9849,2.9539,2.9125,2.8707,2.888,2.9083,2.9613,2.9736,3.0305,3.1584,3.1753,3.1772,3.2181,3.1909,3.1822,3.1983,3.1681,3.1526,3.168,3.1261,3.0973,3.0973,3.0973,3.0973,3.0973,3.1496,3.1757,3.1757,3.2254,3.2228,2.7606,2.805,2.9145,0.0,3.1964,3.3521,3.6447,3.6975,3.7394,3.9167,4.0038,4.0523,4.041,4.143,4.2555,0.0,4.3241,4.2926,4.2119,4.0399,3.8645,3.7224,3.7002,3.7129,3.7058,3.6618,3.639,3.639,3.666,3.6804,3.6804,3.6804,3.7011,3.7488,3.7488,3.7446,3.7384,3.6991,3.6535,3.5997,3.5604,3.519,3.4755,3.4486,3.3865,3.2996,3.2809,3.2727,3.2727,3.2727,3.2727,3.2727,3.2727,3.2727,3.2955,3.3296,3.3353,3.3231,3.3295,3.3065,3.2596,3.2359,3.2041,3.155,3.1274,3.0831,3.062,3.0516,3.0412,3.0308,3.0308,3.0203,3.0203,3.0203,3.0099,2.9994,2.9994,2.9994,2.9994,2.9994,2.9994,2.9994,2.9994,2.9829,2.9642,2.9456,2.9463,2.9514,2.9807,3.0571,3.1269,3.1871,3.2241,3.2475,3.2432,3.2453,3.249,3.2735,3.2434,3.2124,3.1785,3.194,3.1679,3.0999,3.1313,3.1496,3.1496,3.1731,3.2019,3.2333,3.2568,3.2751,2.9008,0.0,0.0,3.3395,3.5263,3.693,3.8191,3.8956,3.9658,4.0497,4.1141,4.1411,4.1035,4.1674,4.2348,4.2348,4.1987,4.1438,4.0813,3.8603,3.6763,3.5852,3.4714,3.4362,3.5273,3.5583,3.5832,3.6101,3.6308,3.6473,3.6618,3.6618,3.6763,3.7094,3.7363,3.7343,3.6991,3.6991,3.6597,3.579,3.5666,3.5314,3.4734,3.4155,3.3534,3.2913,3.2789,3.2727,3.2727,3.2727,3.2727,3.2727,3.2727,3.2727,3.2727,3.2955,3.2972,3.2944,3.3283,3.2966,3.2526,3.2627,3.2247,3.1763,3.1422,3.1042,3.0684,3.0579,3.039,3.018,3.018,3.0098,2.9994,2.9994,2.9994,2.9994,2.9994,2.9994,2.9994,2.9994,2.9994,2.9994,2.9994,2.9994,2.9994,2.9994,3.0028,3.0041,2.9913,3.1172,3.2256,3.2451,3.2971,3.323,3.2971,3.2988,3.3136,3.3302,3.3005,3.2671,3.2333,3.2568,3.2306,3.147,3.1862,3.2071,3.2071,3.2254,3.2542,3.2934,3.3091,3.3404,0.0,0.0,3.2081,3.5872,3.8165,3.9855,4.1533,4.2005,4.204,4.2366,4.1452,4.0493,4.03,3.9571,3.8989,3.8989,3.9247,3.9247,3.8491,3.7032,3.5811,3.49,3.3223,3.2478,0.0,3.4279,3.5169,3.6039,3.5707,3.5666,3.6121,3.6121,3.6142,3.6163,3.7032,3.7488,3.7467,3.7467,3.7239,3.6763,3.6308,3.5625,3.4734,3.3824,3.3389,3.3327,3.2913,3.2727,3.2727,3.2727,3.2727,3.2727,3.2727,3.2727,3.2727,3.2727,3.2727,3.2706,3.2727,3.2934,3.3077,3.2301,3.2246,3.2364,3.1902,3.1558,3.1428,3.1646,3.1225,3.0677,3.0677,3.0325,2.9994,2.9994,2.9994,2.9994,2.9994,2.9994,2.9994,2.9994,2.9994,2.9994,2.9994,2.9994,2.9994,2.9994,2.9973,2.9787,2.9332,3.0722,3.2136,3.3116,3.3612,3.3872,3.3847,3.3604,3.3445,3.37,3.3354,3.329,3.3535,3.2986,3.2672,3.2646,3.2646,3.2672,3.2672,3.3247,3.3535,3.3587,3.411,3.4345,3.0406,0.0,3.693,4.0034,4.1767,4.2889,4.3501,4.3192,4.2339,4.1584,3.9616,3.7773,3.6708,3.6098,3.582,3.6412,3.741,3.8067,3.7777,3.6535,3.5107,3.3596,3.2871,0.0,0.0,0.0,0.0,3.5148,3.5625,3.5956,3.6101,3.6411,3.6701,3.7011,3.7343,3.7343,3.7032,3.7032,3.6639,3.5873,3.5128,3.459,3.4258,3.3368,3.2954,3.2934,3.2789,3.2727,3.2727,3.2727,3.2727,3.2727,3.2727,3.2727,3.2727,3.2727,3.2727,3.2727,3.2727,3.2727,3.282,3.254,3.2292,3.2114,3.1968,3.1719,3.1381,3.1491,3.1366,3.1153,3.1153,3.1029,3.0905,3.0905,3.0905,3.0822,3.0512,3.045,3.0367,3.0056,2.9994,2.9994,2.9994,2.9994,2.9994,2.9994,2.9994,3.0326,3.123,3.1818,3.2605,3.3597,3.4145,3.3997,3.2867,3.3639,3.3896,3.3213,3.3674,3.3871,3.3613,3.3744,3.3456,3.2698,3.3091,3.33,3.33,3.3483,3.377,3.411,3.3953,3.3875,3.372,3.7246,4.0282,4.3367,4.4375,4.4446,4.3984,4.2935,4.1678,3.9888,3.7635,3.5558,3.3963,3.3497,3.3357,3.3697,3.4899,3.5869,3.6198,3.5067,3.3834,3.3078,3.2685,3.2375,0.0,0.0,0.0,3.4672,3.5438,3.5935,3.6101,3.6701,3.7115,3.7239,3.757,3.7446,3.6804,3.697,3.6577,3.5666,3.4921,3.4465,3.4279,3.3555,3.312,3.2954,3.2789,3.2727,3.2727,3.2727,3.2727,3.2727,3.2727,3.2727,3.2727,3.2727,3.2727,3.2727,3.2727,3.2727,3.2727,3.2727,3.254,3.2292,3.2292,3.2085,3.1857,3.1857,3.1733,3.1609,3.1609,3.1505,3.1381,3.1381,3.1381,3.1298,3.1008,3.0801,3.0594,3.0305,3.0098,2.9994,2.9994,2.9994,2.9994,2.9994,3.0287,3.109,3.2469,3.2718,3.3241,3.467,3.4926,3.45,3.3219,3.3944,3.4101,3.3239,3.3856,3.4158,3.3901,3.4214,3.4058,3.33,3.3692,3.3875,3.3875,3.3875,3.3953,3.411,3.3744,3.3483,3.7297,4.0038,4.2041,4.5428,4.5792,4.473,4.288,4.1596,3.9864,3.7186,3.5455,3.372,0.0,0.0,3.1492,3.1129,3.1936,3.2953,3.3861,3.2991,3.2438,0.0,0.0,0.0,0.0,0.0,0.0,3.4693,0.0,3.5645,3.6163,3.7032,3.7322,3.6887,3.7736,3.7736,3.6804,3.7198,3.6949,3.608,3.5604,3.5148,3.4714,3.4238,3.3782,3.3327,3.2913,3.2727,3.2727,3.2727,3.2727,3.2727,3.2727,3.2727,3.2727,3.2727,3.2727,3.2727,3.2727,3.2727,3.2727,3.2727,3.2727,3.2727,3.2727,3.2727,3.2727,3.2727,3.2416,3.2085,3.2085,3.1754,3.1443,3.1443,3.1443,3.1443,3.1422,3.1071,3.0739,3.0698,3.0305,2.9994,2.9994,2.9994,2.9994,2.9994,3.0888,3.1993,3.3101,3.3201,3.4091,3.6168,3.5906,3.5353,3.4726,3.4401,3.4081,3.37,3.3953,3.4121,3.4345,3.4319,3.4319,3.4345,3.4345,3.4371,3.4397,3.4397,3.4136,3.3639,3.3561,3.3247,3.8435,4.1395,4.3805,4.4995,4.4389,4.3197,4.1632,3.9269,3.6771,3.4657,3.1486,2.872,0.0,0.0,0.0,3.0023,3.267,0.0,3.5889,3.5437,0.0,3.4465,0.0,3.341,3.3078,3.3451,0.0,0.0,3.5355,3.5914,3.7074,3.7695,3.7964,3.7839,3.8067,3.7736,3.6804,3.6246,3.5832,3.5583,3.5148,3.4693,3.4238,3.3762,3.3306,3.2892,3.2768,3.2727,3.2727,3.2727,3.2727,3.2727,3.2727,3.2727,3.2727,3.2727,3.2727,3.2727,3.2727,3.2727,3.2727,3.2727,3.2727,3.2727,3.2727,3.2727,3.2727,3.2727,3.2644,3.2561,3.2561,3.2478,3.2395,3.2395,3.2395,3.2292,3.194,3.1774,3.1485,3.0822,3.0305,2.9994,2.9994,2.9994,2.9994,2.9994,3.0888,3.1993,3.3101,3.3895,3.4872,3.6263,3.6232,3.5604,3.4223,3.4552,3.4361,3.3187,3.3276,3.355,3.3796,3.3352,3.3326,3.3796,3.3796,3.4005,3.4397,3.4397,3.4319,3.4162,3.3326,3.2829,4.1738,4.3715,4.5239,4.5202,4.3747,4.1743,3.9277,3.6742,3.4227,3.1506,2.8641,0.0,0.0,0.0,0.0,0.0,0.0,0.0,3.5333,3.5292,3.5211,0.0,3.4941,0.0,3.4031,3.4403,3.4962,0.0,3.5728,3.6246,3.7425,3.7943,3.8191,3.8191,3.8191,3.7736,3.6804,3.5894,3.5418,3.5418,3.5169,3.4714,3.4072,3.401,3.3534,3.2747,0.0,3.2913,3.2727,3.2727,3.2727,3.2727,3.2727,3.2727,3.2727,3.2727,3.2727,3.2727,3.2727,3.2727,3.2727,3.2727,3.2727,3.2727,3.2727,3.2727,3.2727,3.2727,3.2727,3.2727,3.2727,3.2727,3.2727,3.2727,3.2582,3.2354,3.2106,3.1899,3.1547,3.0822,3.0305,2.9994,2.9994,2.9994,2.9994,2.9994,3.0888,3.1993,3.3101,3.4091,3.5162,3.6263,3.6358,3.5881,3.4726,3.5017,3.4832,3.3725,3.3733,3.3778,3.3613,3.3273,3.3117,3.3195,3.3456,3.3613,3.3639,3.3927,3.377,3.3247,3.262,3.2176,4.5186,4.5847,4.5645,4.5281,4.3112,4.0231,3.6538,3.4308,3.1862,2.8285,0.0,2.5194,2.4203,2.5237,2.6501,2.7141,0.0,3.2004,3.4004,3.4166,3.4697,3.6057,3.5832,3.5376,3.5066,3.5376,3.579,3.6266,3.6287,3.668,3.755,3.7964,3.8191,3.8191,3.8067,3.7612,3.6804,3.5894,3.5418,3.5418,3.5418,3.4983,3.4176,3.4507,3.3989,3.283,3.3161,3.3078,3.2727,3.2727,3.2727,3.2727,3.2727,3.2727,3.2727,3.2727,3.2727,3.2727,3.2727,3.2727,3.2727,3.2727,3.2727,3.2727,3.2727,3.2727,3.2727,3.2727,3.2727,3.2727,3.2727,3.2727,3.2727,3.2727,3.2416,3.2126,3.2126,3.1774,3.1319,3.0864,3.0408,3.0056,3.0015,2.9994,2.9994,2.9994,3.0888,3.1993,3.3101,3.4091,3.5162,3.6263,3.6358,3.6132,3.5579,3.5554,3.5284,3.4776,3.4571,3.4288,3.3744,3.3561,3.3221,3.2698,3.3195,3.3221,3.2698,3.3221,3.296,3.1967,3.1811,3.1575,4.4124,4.385,4.3285,4.2849,4.0414,3.7582,3.5046,3.2174,0.0,0.0,2.4507,2.3258,2.2316,2.3729,2.5748,2.791,0.0,0.0,0.0,0.0,3.5665,0.0,0.0,0.0,0.0,0.0,0.0,0.0,0.0,3.7488,3.8026,3.815,3.8191,3.8191,3.7446,3.697,3.6804,3.5894,3.5418,3.5418,3.5418,3.5148,3.4631,3.432,3.3844,3.3244,3.2954,0.0,3.2727,3.2727,3.2727,3.2727,3.2727,3.2727,3.2727,3.2727,3.2727,3.2727,3.2727,3.2727,3.2727,3.2727,3.2727,3.2727,3.2727,3.2727,3.2727,3.2727,3.2727,3.2727,3.2727,3.2727,3.2727,3.2727,3.2664,3.2602,3.2602,3.225,3.1795,3.134,3.0884,3.045,3.0056,2.9994,2.9994,2.9994,3.0888,3.1993,3.3101,3.4091,3.5162,3.6263,3.6358,3.6132,3.5579,3.5713,3.5709,3.5251,3.459,3.4224,3.4267,3.3352,3.2803,3.2698,3.2803,3.2803,3.2698,3.2803,3.2751,3.2542,3.2071,3.1707,4.4892,4.4052,4.3252,4.2407,3.9677,3.6289,3.3013,0.0,0.0,0.0,2.2887,2.224,2.1768,0.0,0.0,0.0,0.0,0.0,0.0,0.0,0.0,0.0,0.0,0.0,0.0,0.0,0.0,0.0,0.0,3.7943,3.8171,3.8191,3.8067,3.7839,3.7156,3.668,3.6453,3.5769,3.5418,3.5418,3.5418,3.519,3.4755,3.4527,3.4051,3.3368,3.3161,0.0,3.2727,3.2727,3.2727,3.2727,3.2727,3.2727,3.2727,3.2727,3.2727,3.2727,3.2727,3.2727,3.2727,3.2727,3.2727,3.2727,3.2727,3.2727,3.2727,3.2727,3.2727,3.2727,3.2727,3.2727,3.2727,3.2727,3.2375,3.2085,3.2313,3.1629,3.105,3.1319,3.0801,3.0263,3.0036,2.9994,2.9994,2.9994,3.0391,3.1197,3.2196,3.2778,3.397,3.6168,3.6358,3.6351,3.6168,3.6236,3.6259,3.6084,3.5347,3.4795,3.4424,3.3613,3.2881,3.2254,3.2542,3.2385,3.181,3.2097,3.2254,3.2228,3.1967,3.1993,4.545,4.4651,4.3708,4.2306,3.9193,3.5331,3.1217,2.8246,0.0,0.0,2.1642,2.1642,2.1642,0.0,2.4047,0.0,0.0,0.0,0.0,0.0,0.0,0.0,0.0,0.0,0.0,0.0,0.0,0.0,0.0,0.0,3.8171,3.8088,3.7881,3.7508,3.6949,3.6473,3.6121,3.5645,3.5418,3.5418,3.5418,3.519,3.4755,3.4652,3.4155,3.3368,3.3285,0.0,3.2727,3.2727,3.2727,3.2727,3.2727,3.2727,3.2727,3.2727,3.2727,3.2727,3.2727,3.2727,3.2727,3.2727,3.2727,3.2727,3.2727,3.2727,3.2727,3.2727,3.2727,3.2727,3.2727,3.2727,3.2727,3.2727,3.2188,3.1774,3.2106,3.1257,3.0615,3.1257,3.0719,3.0118,3.0015,2.9994,2.9994,2.9994,2.9994,3.0391,3.1483,3.1476,3.2619,3.5685,3.5998,3.6238,3.6615,3.6734,3.6718,3.6741,3.6289,3.5765,3.4999,3.4319,3.3404,3.2228,3.2515,3.2202,3.1182,3.1627,3.1914,3.2019,3.2019,3.2254,4.4699,4.4706,4.3536,4.1924,3.8375,3.4414,3.0318,0.0,0.0,2.2168,2.1571,2.1482,2.1642,2.1771,0.0,0.0,0.0,2.7083,0.0,0.0,0.0,0.0,0.0,0.0,0.0,0.0,0.0,0.0,0.0,0.0,3.8171,3.7777,3.7529,3.7488,3.6639,3.6163,3.6121,3.5645,3.5418,3.5418,3.5418,3.519,3.4755,3.432,3.3844,3.3348,3.2954,0.0,0.0,3.2727,3.2727,3.2727,3.2727,3.2727,3.2727,3.2727,3.2727,3.2727,3.2727,3.2727,3.2727,3.2727,3.2727,3.2727,3.2727,3.2727,3.2727,3.2727,3.2727,3.2727,3.2727,3.2727,3.2727,3.2727,3.2664,3.2623,3.2664,3.223,3.1754,3.1443,3.0967,3.0491,3.0077,2.9994,2.9994,2.9994,2.9994,3.0391,3.1483,3.1192,3.1901,3.4219,3.4775,3.5379,3.6358,3.6828,3.7083,3.7031,3.6975,3.6881,3.6776,3.573,3.4607,3.3456,3.2934,3.2385,3.1757,3.181,3.2097,3.262,3.262,3.2646,4.2948,4.3651,4.3085,4.1113,3.7359,3.3252,3.0058,0.0,2.3515,2.1968,2.1571,2.1482,2.1642,2.141,2.166,2.3036,2.2963,0.0,2.766,0.0,0.0,0.0,0.0,0.0,0.0,0.0,0.0,0.0,0.0,0.0,3.7757,3.7322,3.6949,3.668,3.6308,3.5976,3.5707,3.5521,3.5418,3.5418,3.5418,3.519,3.4734,3.4279,3.3824,3.3348,3.2913,0.0,0.0,3.2727,3.2727,3.2727,3.2727,3.2727,3.2727,3.2727,3.2727,3.2727,3.2727,3.2727,3.2727,3.2727,3.2727,3.2727,3.2727,3.2727,3.2727,3.2727,3.2727,3.2727,3.2727,3.2727,3.2727,3.2727,3.252,3.2395,3.2664,3.2147,3.1671,3.1754,3.1195,3.0636,3.045,3.018,2.9994,2.9994,2.9994,3.0183,3.0785,3.0717,3.1091,3.2368,3.3575,3.4866,3.6227,3.6625,3.7015,3.732,3.6936,3.6649,3.6488,3.6018,3.5077,3.3613,3.3666,3.3273,3.2359,3.2359,3.2646,3.3221,3.3221,3.3404,4.0234,4.1654,4.2107,4.0011,3.6206,3.2272,0.0,0.0,2.2862,2.1913,2.1571,2.1482,2.1571,2.1284,2.1176,2.1661,2.1518,2.2244,2.4868,0.0,0.0,0.0,0.0,0.0,0.0,0.0,0.0,0.0,0.0,0.0,3.7094,3.6639,3.6308,3.6121,3.5976,3.5749,3.5418,3.5418,3.5355,3.5231,3.5231,3.4921,3.4341,3.401,3.3617,3.3161,3.2871,0.0,0.0,3.2727,3.2727,3.2727,3.2727,3.2727,3.2727,3.2727,3.2727,3.2727,3.2727,3.2727,3.2706,3.2582,3.252,3.2499,3.2375,3.252,3.2706,3.2561,3.2623,3.2727,3.2727,3.2727,3.2727,3.2727,3.2375,3.2126,3.2457,3.1816,3.1298,3.1754,3.1112,3.0532,3.0657,3.0305,2.9994,2.9994,3.0099,3.0203,3.0391,3.0369,3.0568,3.1406,3.2499,3.3883,3.5596,3.6345,3.6929,3.7505,3.7208,3.6884,3.6645,3.6462,3.573,3.4371,3.4554,3.4188,3.3195,3.3195,3.3404,3.3822,3.3822,3.4031,3.6196,3.8955,4.0563,3.8466,3.5121,3.1657,0.0,0.0,2.2862,2.1913,2.1571,2.1392,2.1392,2.1195,2.0997,2.0997,2.1653,2.2721,2.4122,0.0,0.0,0.0,0.0,0.0,0.0,0.0,0.0,0.0,0.0,0.0,3.6121,3.5687,3.5645,3.6101,3.5666,3.5418,3.5418,3.5418,3.519,3.4776,3.4776,3.4279,3.3389,3.3389,3.3141,3.2747,0.0,0.0,0.0,3.2727,3.2727,3.2727,3.2727,3.2727,3.2727,3.2727,3.2727,3.2727,3.2727,3.2727,3.2664,3.2188,3.2043,3.1961,3.1526,3.2023,3.2644,3.2188,3.2375,3.2727,3.2727,3.2727,3.2727,3.2727,3.2375,3.2043,3.2043,3.134,3.0822,3.1298,3.0636,3.0139,3.0615,3.0305,2.9994,2.9994,3.0203,3.0391,3.0391,3.0218,3.0608,3.1735,3.1405,3.1988,3.4311,3.578,3.6884,3.7479,3.7716,3.79,3.7874,3.7299,3.6698,3.6096,3.5547,3.4999,3.4371,3.4371,3.4371,3.4397,3.4397,3.4397,3.1545,3.3371,3.4282,3.2736,3.0348,2.793,2.6112,0.0,2.1983,2.1383,2.1175,2.1195,2.1392,2.1105,2.0832,2.1094,2.134,2.1777,0.0,0.0,0.0,0.0,0.0,0.0,0.0,0.0,0.0,0.0,0.0,0.0,3.6121,3.5976,3.5811,3.5645,3.55,3.5273,3.4962,3.4962,3.4734,3.4279,3.4279,3.3969,3.3368,3.3368,3.3141,0.0,0.0,0.0,3.2727,3.2727,3.2727,3.2727,3.2727,3.2727,3.2727,3.2727,3.2727,3.2727,3.2727,3.2727,3.2664,3.2188,3.2043,3.1961,3.1505,3.1795,3.2292,3.2457,3.2623,3.2727,3.2727,3.2727,3.2644,3.2333,3.2395,3.2416,3.2106,3.2064,3.2126,3.2271,3.1567,3.0988,3.1133,3.0781,3.047,3.047,3.0577,3.0768,3.1064,3.0787,3.067,3.093,3.1233,3.2229,3.417,3.491,3.5764,3.6793,3.739,3.7534,3.7299,3.7508,3.7142,3.6123,3.6332,3.5992,3.5025,3.5391,3.5365,3.5025,3.5025,3.4789,0.0,2.9229,3.0232,2.9181,2.7278,0.0,0.0,0.0,2.1332,2.1076,2.1085,2.1195,2.1122,2.0925,2.0741,2.0876,2.106,0.0,0.0,0.0,0.0,0.0,0.0,0.0,0.0,0.0,0.0,0.0,0.0,0.0,3.5604,3.5604,3.5397,3.4921,3.5252,3.5211,3.4755,3.4755,3.4445,3.3803,3.3803,3.3575,3.3141,3.3141,3.2975,0.0,0.0,3.2727,0.0,3.2727,3.2727,3.2727,3.2727,3.2727,3.2727,3.2727,3.2727,3.2727,3.2727,3.2727,3.2623,3.2002,3.1671,3.1547,3.1609,3.1816,3.2126,3.2602,3.2727,3.2727,3.2727,3.2727,3.2664,3.2375,3.2395,3.2395,3.2106,3.2126,3.2271,3.2437,3.1878,3.1422,3.1609,3.1112,3.0677,3.0677,3.0639,3.0726,3.1148,3.1102,3.0906,3.0911,3.113,3.1865,3.3383,3.4078,3.4886,3.5814,3.6741,3.7196,3.7011,3.7586,3.756,3.6802,3.7142,3.6881,3.594,3.6044,3.594,3.56,3.56,3.5391,0.0,2.6072,2.7852,0.0,0.0,0.0,0.0,0.0,0.0,2.0829,2.1085,2.1212,2.0744,2.0654,2.0564,2.0417,0.0,0.0,0.0,0.0,0.0,0.0,0.0,0.0,0.0,0.0,0.0,0.0,0.0,0.0,3.4776,3.4755,3.4548,3.4072,3.4879,3.5107,3.4672,3.4652,3.4217,3.3327,3.3327,3.312,3.2727,3.2727,3.2727,0.0,0.0,3.2727,3.2727,3.2727,3.2727,3.2727,3.2727,3.2727,3.2727,3.2727,3.2727,3.2727,3.2727,3.2727,3.2582,3.1712,3.1112,3.0905,3.1774,3.2043,3.2126,3.2561,3.2706,3.2727,3.2685,3.2706,3.2727,3.2685,3.2375,3.2085,3.2043,3.1733,3.1588,3.2002,3.1733,3.1547,3.1961,3.134,3.0781,3.0781,3.0579,3.06,3.0934,3.1077,3.1322,3.1527,3.1192,3.1263,3.2127,3.3136,3.4059,3.46,3.6019,3.6895,3.6921,3.7508,3.7821,3.79,3.7874,3.7586,3.7063,3.641,3.6123,3.6175,3.6175,3.6149,2.0628,0.0,2.2112,2.1674,2.1502,2.1323,0.0,0.0,0.0,0.0,0.0,2.0997,2.0744,2.0564,2.0486,0.0,0.0,0.0,0.0,0.0,0.0,0.0,0.0,0.0,0.0,0.0,0.0,0.0,0.0,3.5231,3.4776,3.4755,3.4548,3.4072,3.4279,3.4155,3.3699,3.3699,3.343,3.2892,3.2892,3.283,3.2727,3.2727,3.2727,0.0,0.0,3.2727,3.2727,3.2727,3.2727,3.2727,3.2727,3.2727,3.2727,3.2727,3.2727,3.2727,3.2727,3.2727,3.2644,3.2064,3.1588,3.1319,3.1878,3.2043,3.2064,3.2168,3.2457,3.2644,3.2292,3.2457,3.2644,3.2292,3.2395,3.2478,3.2126,3.223,3.2437,3.254,3.2209,3.1919,3.2023,3.1857,3.1823,3.2065,3.1558,3.1354,3.2084,3.1463,3.1137,3.1527,3.1192,3.0986,3.1186,3.2213,3.3007,3.3489,3.4969,3.5846,3.5963,3.6315,3.6959,3.7874,3.7456,3.7377,3.7691,3.6619,3.6332,3.6802,3.6802,3.6541,1.9645,1.9715,1.9882,1.9641,1.9724,1.9752,1.9534,0.0,0.0,0.0,0.0,2.0534,2.0529,2.0497,0.0,0.0,0.0,0.0,0.0,0.0,0.0,0.0,0.0,0.0,0.0,0.0,0.0,0.0,0.0,3.5128,3.4465,3.4445,3.4134,3.3472,3.3451,3.343,3.3368,3.3368,3.3161,3.2727,3.2727,3.2727,3.2727,3.2727,3.2727,0.0,3.2727,3.2602,3.2416,3.2416,3.2292,3.2106,3.2106,3.2106,3.2126,3.2333,3.2416,3.2437,3.2664,3.2457,3.2106,3.2064,3.1588,3.1174,3.1836,3.2043,3.2085,3.2292,3.254,3.2664,3.2416,3.254,3.2664,3.2416,3.254,3.2664,3.2416,3.2561,3.2727,3.2727,3.252,3.2354,3.2354,3.2301,3.2267,3.249,3.2112,3.2015,3.2534,3.2104,3.1696,3.2001,3.1738,3.1476,3.1236,3.1717,3.2082,3.2159,3.3586,3.452,3.4841,3.5468,3.6483,3.7874,3.7586,3.7586,3.79,3.7246,3.709,3.7403,3.7403,3.7246,1.9548,1.9739,1.9795,1.9408,1.9152,1.9073,1.9011,0.0,0.0,0.0,0.0,0.0,0.0,0.0,0.0,0.0,0.0,0.0,0.0,0.0,0.0,0.0,0.0,0.0,0.0,0.0,0.0,0.0,0.0,3.4859,3.401,3.3969,3.3596,3.2747,3.2727,3.2871,3.3161,3.3244,3.3099,3.2727,3.2727,3.2727,3.2727,3.2664,3.2623,3.2623,0.0,0.0,3.194,3.194,3.1712,3.1381,3.1381,3.1381,3.1422,3.1795,3.194,3.2002,3.2457,3.2085,3.1443,3.1899,3.1485,3.0946,3.1795,3.2085,3.223,3.2623,3.2727,3.2706,3.2644,3.2685,3.2727,3.2727,3.2727,3.2727,3.2727,3.2727,3.2727,3.2727,3.2727,3.2841,3.2841,3.2755,3.2706,3.2706,3.2526,3.2555,3.2879,3.2814,3.262,3.2525,3.2416,3.2219,3.1782,3.1673,3.1362,3.0967,3.216,3.3247,3.3872,3.5007,3.6299,3.7769,3.7769,3.7821,3.79,3.79,3.79,3.79,3.79,3.79,1.9279,2.013,2.075,1.9556,1.9311,1.9231,1.9073,0.0,0.0,0.0,0.0,0.0,0.0,0.0,0.0,0.0,0.0,0.0,0.0,0.0,0.0,0.0,0.0,0.0,0.0,0.0,0.0,0.0,0.0,3.4051,3.3513,3.3492,3.3244,3.2747,3.2727,3.2582,3.225,3.2644,3.2789,3.2727,3.2727,3.2727,3.2727,3.2333,3.2147,3.2126,0.0,3.1547,3.1485,3.1485,3.1443,3.1381,3.1381,3.1381,3.1381,3.1464,3.1485,3.1547,3.1981,3.1816,3.1443,3.1899,3.1692,3.136,3.1878,3.2313,3.2644,3.2706,3.2727,3.2644,3.225,3.2437,3.2727,3.2727,3.2727,3.2727,3.2727,3.2727,3.2727,3.3069,3.309,3.3182,3.3409,3.3459,3.3529,3.3754,3.3236,3.3026,3.3574,3.3117,3.2728,3.2962,3.2612,3.235,3.2263,3.187,3.1447,3.091,3.1508,3.2485,3.3872,3.5274,3.6337,3.7116,3.7142,3.7403,3.79,3.79,3.79,3.79,3.79,3.79,1.9279,1.9746,2.0149,2.008,2.0461,2.075,0.0,0.0,0.0,0.0,0.0,0.0,0.0,0.0,0.0,0.0,0.0,0.0,0.0,0.0,0.0,0.0,0.0,0.0,0.0,0.0,0.0,0.0,0.0,0.0,3.341,3.3368,3.3058,3.2375,3.2354,3.2147,3.1692,3.1899,3.2126,3.2354,3.2106,3.2126,3.2333,3.1878,3.1692,3.1671,0.0,3.1236,3.1008,3.1008,3.0864,3.0636,3.0636,3.0636,3.0657,3.0905,3.1153,3.1402,3.1609,3.1381,3.1071,3.1526,3.1381,3.1133,3.1836,3.2188,3.2416,3.2664,3.2727,3.2685,3.2457,3.2582,3.2727,3.2727,3.2727,3.2727,3.2727,3.2727,3.2841,3.3069,3.3203,3.3296,3.3523,3.3749,3.3974,3.4086,3.3892,3.3853,3.4185,3.3878,3.3639,3.3486,3.3027,3.2656,3.2394,3.1913,3.1302,3.0581,3.0999,3.1832,3.3048,3.4527,3.5826,3.6985,3.7325,3.7612,3.79,3.79,3.79,3.79,3.79,3.79,1.9114,1.9371,1.9734,2.0278,0.0,0.0,0.0,0.0,0.0,0.0,0.0,0.0,0.0,0.0,0.0,0.0,0.0,0.0,0.0,0.0,0.0,0.0,0.0,0.0,0.0,0.0,0.0,0.0,0.0,0.0,3.3099,3.3058,3.2706,3.1919,3.1878,3.1671,3.1215,3.1215,3.1443,3.1878,3.1547,3.1547,3.1878,3.1422,3.1215,3.1215,3.1091,3.0843,3.0532,3.0532,3.0305,2.9994,2.9994,2.9994,3.0036,3.0387,3.0822,3.1215,3.1215,3.0988,3.0739,3.1091,3.0967,3.0843,3.165,3.1878,3.2002,3.2561,3.2664,3.2602,3.2706,3.2727,3.2727,3.2727,3.2727,3.2727,3.2727,3.2727,3.2841,3.3069,3.3296,3.3409,3.3636,3.3974,3.4199,3.4199,3.4423,3.4534,3.4534,3.4534,3.4382,3.401,3.342,3.2831,3.2263,3.1848,3.1359,3.0798,3.1221,3.1901,3.2846,3.4295,3.5699,3.7194,3.7534,3.7769,3.79,3.79,3.79,3.79,3.79,3.79,1.8616,1.9608,2.0495,2.0074,1.9701,0.0,2.236,2.2371,0.0,2.3954,0.0,0.0,0.0,0.0,0.0,0.0,0.0,0.0,0.0,0.0,0.0,0.0,0.0,0.0,0.0,0.0,0.0,0.0,0.0,0.0,3.2168,3.2126,3.1919,3.1443,3.1422,3.1215,3.0739,3.0739,3.0967,3.1422,3.1402,3.1402,3.1402,3.0946,3.0739,3.0719,3.0284,3.0077,3.0036,3.0036,3.0036,2.9994,2.9994,2.9994,2.9994,3.0036,3.0346,3.0739,3.0739,3.0719,3.0698,3.0719,3.0719,3.0781,3.1278,3.1422,3.1609,3.2478,3.2416,3.2188,3.2623,3.2727,3.2727,3.2727,3.2727,3.2727,3.2727,3.2727,3.2841,3.3069,3.3409,3.3636,3.3974,3.4311,3.4534,3.4534,3.4534,3.4534,3.4534,3.4534,3.4513,3.4469,3.3639,3.27,3.176,3.1651,3.1794,3.2323,3.2771,3.3263,3.3908,3.5263,3.6556,3.7821,3.7325,3.7351,3.79,3.79,3.79,3.79,3.79,3.79,1.8267,1.9313,2.021,2.0039,2.0052,0.0,0.0,2.3771,2.4067,2.414,0.0,0.0,0.0,0.0,0.0,0.0,0.0,0.0,0.0,0.0,0.0,0.0,0.0,0.0,0.0,0.0,0.0,0.0,0.0,0.0,3.165,3.1629,3.1422,3.0967,3.0946,3.0719,3.0263,3.0263,3.0346,3.0512,3.0512,3.0677,3.0926,3.047,3.0263,3.0243,3.0077,2.9994,2.9994,2.9994,2.9994,2.9994,2.9994,2.9994,2.9994,2.9994,3.0098,3.0263,3.0263,3.0263,3.0305,3.0594,3.0677,3.0781,3.1236,3.1381,3.1443,3.1795,3.1961,3.2147,3.2602,3.2727,3.2727,3.2727,3.2727,3.2727,3.2727,3.2727,3.2841,3.3296,3.3523,3.3749,3.4311,3.4423,3.4534,3.4534,3.4534,3.4534,3.4534,3.425,3.4076,3.4076,3.3202,3.2372,3.1673,3.1629,3.1927,3.2925,3.2831,3.3101,3.3934,3.5108,3.6135,3.6776,3.7299,3.7665,3.79,3.79,3.79,3.79,3.79,3.79,1.8266,1.8958,1.9716,2.0253,0.0,0.0,2.3994,2.4927,2.5425,2.5858,0.0,0.0,0.0,0.0,0.0,0.0,0.0,0.0,0.0,0.0,0.0,0.0,0.0,0.0,0.0,0.0,0.0,0.0,0.0,0.0,0.0,3.0946,3.0801,3.047,3.047,3.0305,2.9994,2.9994,2.9994,2.9994,2.9994,3.016,3.047,3.0139,2.9994,2.9994,2.9994,2.9994,2.9994,2.9994,2.9994,2.9994,2.9994,2.9994,2.9994,2.9994,2.9994,2.9994,2.9994,2.9994,3.0036,3.0367,3.047,3.0553,3.1029,3.105,3.1008,3.1298,3.1485,3.1712,3.2188,3.252,3.2727,3.2727,3.2727,3.2727,3.2727,3.2727,3.2841,3.3409,3.3523,3.3727,3.4311,3.4423,3.4534,3.4534,3.4534,3.4534,3.4534,3.4229,3.3901,3.3595,3.2984,3.2328,3.1673,3.1629,3.2218,3.3598,3.3371,3.3696,3.465,3.5745,3.6431,3.6671,3.7482,3.79,3.79,3.79,3.79,3.79,3.79,3.7795,1.8518,1.8711,1.9088,0.0,0.0,0.0,2.5329,2.5644,2.6287,2.9887,0.0,0.0,0.0,0.0,0.0,0.0,0.0,0.0,0.0,0.0,0.0,0.0,0.0,0.0,0.0,0.0,0.0,0.0,0.0,0.0,0.0,2.9994,2.9994,2.9994,2.9994,2.9994,2.9994,2.9994,2.9994,2.9973,2.9973,2.9994,2.9994,2.9994,2.9994,2.9994,2.9994,2.9994,2.9994,2.9994,2.9994,2.9994,2.9994,2.9994,2.9994,2.9994,2.9994,2.9994,2.9994,2.9994,2.9994,2.9994,2.9994,3.0077,3.0532,3.0367,3.018,3.1112,3.1029,3.0801,3.1257,3.2043,3.2727,3.2727,3.2727,3.2727,3.2727,3.2727,3.2841,3.3182,3.3409,3.3727,3.4086,3.4311,3.4534,3.4534,3.4534,3.4513,3.4513,3.4513,3.4141,3.3158,3.3049,3.2678,3.1717,3.1629,3.2521,3.4678,3.4775,3.5259,3.6307,3.7294,3.79,3.7874,3.79,3.79,3.79,3.79,3.79,3.79,3.79,3.7586,1.7483,1.8537,0.0,0.0,0.0,0.0,0.0,2.5812,0.0,0.0,0.0,0.0,0.0,0.0,0.0,0.0,0.0,0.0,0.0,0.0,0.0,0.0,0.0,0.0,0.0,0.0,0.0,0.0,0.0,0.0,0.0,2.9994,2.9994,2.9994,2.9994,2.9829,2.9518,2.9518,2.9352,2.9021,2.9021,2.9373,2.9994,2.9994,2.9994,2.9994,2.9994,2.9994,2.9994,2.9994,2.9994,2.9994,2.9994,2.9994,2.9994,2.9994,2.9994,2.9994,2.9994,2.9994,2.9994,2.9994,2.9994,3.0015,3.016,3.0098,3.0056,3.0325,3.0532,3.0719,3.0864,3.134,3.1857,3.2168,3.2363,3.2588,3.2455,3.2679,3.2902,3.3258,3.3347,3.3566,3.4246,3.4423,3.4534,3.4534,3.4534,3.4272,3.3595,3.3792,3.3508,3.2197,3.2372,3.2328,3.1673,3.1629,3.2218,3.3598,3.4385,3.5203,3.6109,3.7274,3.7508,3.6645,3.7482,3.79,3.79,3.79,3.79,3.79,3.79,3.7586,1.7999,1.9054,0.0,0.0,0.0,0.0,0.0,0.0,0.0,0.0,0.0,0.0,0.0,0.0,0.0,0.0,0.0,0.0,0.0,0.0,0.0,0.0,0.0,0.0,0.0,0.0,0.0,0.0,0.0,0.0,0.0,2.9352,2.9456,2.9456,2.9622,2.9497,2.9042,2.8856,2.8711,2.8607,2.8421,2.8731,2.9456,2.9456,2.9559,2.9725,2.9911,2.9994,2.9994,2.9994,2.9994,2.9994,2.9994,2.9994,2.9994,2.9994,2.9994,2.9994,2.9994,2.9994,2.9994,2.9994,2.9994,2.9994,2.9994,2.9994,2.9994,2.9994,3.0201,3.0408,3.0408,3.0615,3.0988,3.174,3.2107,3.2217,3.2306,3.2526,3.2809,3.32,3.3353,3.3615,3.4336,3.4534,3.4534,3.4534,3.436,3.4032,3.342,3.3442,3.318,3.2285,3.2306,3.2263,3.1957,3.1738,3.2218,3.3697,3.4483,3.5342,3.64,3.7403,3.7456,3.6488,3.7403,3.79,3.79,3.79,3.7769,3.7534,3.7534,3.7116,1.9413,0.0,0.0,0.0,0.0,0.0,0.0,0.0,0.0,0.0,0.0,0.0,0.0,0.0,0.0,0.0,0.0,0.0,0.0,0.0,0.0,0.0,0.0,0.0,0.0,0.0,0.0,0.0,0.0,0.0,2.7986,2.838,2.8607,2.8607,2.9021,2.9021,2.8566,2.8131,2.811,2.8483,2.8069,2.809,2.8483,2.8524,2.8773,2.9208,2.9663,2.9891,2.9932,2.9932,2.9953,2.9994,2.9994,2.9994,2.9994,2.9994,2.9994,2.9994,2.9994,2.9994,2.9994,2.9994,2.9994,2.9994,2.9994,2.9994,2.9994,2.9994,2.9994,2.9994,2.9994,2.9994,3.0307,3.1354,3.1692,3.1822,3.2038,3.2146,3.2382,3.3138,3.3224,3.3506,3.4248,3.4469,3.4469,3.4469,3.4032,3.3704,3.3683,3.3311,3.3027,3.294,3.2612,3.2477,3.2515,3.1994,3.2622,3.4678,3.4872,3.5491,3.6831,3.7495,3.7612,3.7011,3.7586,3.79,3.79,3.7848,3.7534,3.7011,3.6959,3.6332,1.8421,1.9738,0.0,0.0,0.0,0.0,0.0,0.0,0.0,0.0,0.0,0.0,0.0,0.0,0.0,0.0,0.0,0.0,0.0,0.0,0.0,0.0,0.0,0.0,0.0,0.0,0.0,0.0,0.0,0.0,2.8462,2.8566,2.8607,2.8607,2.8711,2.8545,2.8069,2.7966,2.78,2.7552,2.7448,2.7448,2.7552,2.7903,2.8131,2.8235,2.8711,2.9125,2.9456,2.9456,2.9663,2.9994,2.9994,2.9994,2.9994,2.9994,2.9994,2.9994,2.9994,2.9994,2.9994,2.9994,2.9994,2.9994,2.9994,2.9994,2.9994,2.9994,2.9994,2.9994,2.9994,2.9994,3.014,3.0538,3.0979,3.1337,3.1551,3.1848,3.2103,3.255,3.2572,3.2855,3.3814,3.3945,3.3945,3.3945,3.353,3.3093,3.2743,3.2896,3.2787,3.2022,3.2197,3.2531,3.3005,3.2869,3.34,3.4678,3.5547,3.5868,3.578,3.7103,3.7612,3.7011,3.7586,3.79,3.79,3.7429,3.7142,3.6985,3.6515,3.594,1.8769,0.0,0.0,2.3961,0.0,0.0,0.0,0.0,0.0,0.0,0.0,0.0,0.0,0.0,0.0,0.0,0.0,0.0,0.0,0.0,0.0,0.0,0.0,0.0,0.0,0.0,0.0,0.0,0.0,2.7966,2.7966,2.8173,2.8193,2.7966,2.8173,2.8069,2.7614,2.7158,2.7055,2.7262,2.6806,2.6724,2.6951,2.7614,2.7924,2.7945,2.8421,2.8752,2.898,2.898,2.9125,2.9332,2.9332,2.9477,2.9663,2.9663,2.9808,2.9994,2.9994,2.9994,2.9994,2.9994,2.9994,2.9994,2.9994,2.9994,2.9994,2.9994,2.9994,2.9994,2.9994,2.9994,2.9994,3.0203,3.058,3.1084,3.1272,3.1585,3.1858,3.2328,3.2394,3.2612,3.3311,3.3442,3.3442,3.3442,3.3049,3.2656,3.2416,3.2372,3.2285,3.2022,3.2001,3.2413,3.3467,3.3338,3.3895,3.5451,3.6023,3.637,3.6555,3.7442,3.7612,3.7011,3.7299,3.7612,3.79,3.7011,3.6567,3.6567,3.5992,3.5417,1.9231,0.0,2.183,2.4954,2.6744,0.0,0.0,0.0,0.0,0.0,0.0,0.0,0.0,0.0,0.0,0.0,0.0,0.0,0.0,0.0,0.0,0.0,0.0,0.0,0.0,0.0,0.0,0.0,0.0,2.7262,2.7262,2.7614,2.7593,2.7158,2.7489,2.7469,2.7034,2.6268,2.6268,2.7013,2.6248,2.6082,2.6475,2.722,2.7614,2.7717,2.8173,2.8421,2.8504,2.8504,2.8545,2.8607,2.8607,2.8856,2.9187,2.9187,2.9435,2.9766,2.9766,2.9808,2.987,2.987,2.9932,2.9994,2.9994,2.9994,2.9994,2.9994,2.9994,2.9994,2.9994,2.9994,3.0099,3.0099,3.0516,3.0931,3.1137,3.1322,3.1658,3.2175,3.2328,3.2503,3.2874,3.294,3.294,3.294,3.2547,3.2263,3.2263,3.1891,3.1782,3.2197,3.187,3.2192,3.3696,3.3531,3.4288,3.6213,3.6521,3.7015,3.79,3.79,3.7665,3.7168,3.7168,3.7351,3.7743,3.6645,3.6044,3.594,3.5391,3.4868,0.0,0.0,2.2858,0.0,2.6041,2.6744,0.0,0.0,0.0,0.0,0.0,0.0,0.0,0.0,0.0,0.0,0.0,0.0,0.0,0.0,0.0,0.0,0.0,0.0,0.0,0.0,0.0,0.0,2.7303,2.7262,2.7262,2.7324,2.7138,2.6682,2.6724,2.6537,2.6061,2.5937,2.5937,2.6061,2.5937,2.5916,2.5978,2.6103,2.6372,2.6765,2.7241,2.7655,2.8007,2.8007,2.8255,2.8607,2.8607,2.8649,2.8711,2.8711,2.8752,2.8794,2.8794,2.9063,2.9394,2.9394,2.9663,2.9994,2.9994,2.9994,2.9994,2.9994,2.9994,2.9994,2.9994,3.0203,3.0391,3.0391,3.0703,3.1137,3.0931,3.1034,3.1343,3.1614,3.2088,3.2394,3.2459,3.2481,3.2481,3.2481,3.2044,3.1717,3.1717,3.1673,3.1651,3.1717,3.1673,3.2037,3.3192,3.4139,3.5066,3.6238,3.7201,3.7716,3.79,3.79,3.7874,3.7795,3.7795,3.756,3.7116,3.6436,3.5861,3.5391,3.4789,3.4476,1.8595,2.052,2.2494,0.0,2.4964,2.5813,2.5813,0.0,0.0,0.0,0.0,0.0,0.0,0.0,0.0,0.0,0.0,0.0,0.0,0.0,0.0,0.0,0.0,0.0,0.0,0.0,0.0,0.0,2.7013,2.6868,2.6868,2.662,2.6392,2.6185,2.5937,2.5834,2.5875,2.5378,2.5254,2.5523,2.5751,2.5875,2.5875,2.5875,2.5999,2.6206,2.6662,2.6993,2.7179,2.7448,2.7676,2.7862,2.7862,2.8007,2.8235,2.8235,2.8235,2.8235,2.8235,2.8359,2.8524,2.8524,2.8835,2.9228,2.9228,2.9415,2.9601,2.9601,2.9787,2.9994,2.9994,3.0099,3.0203,3.0203,3.062,3.0931,3.0827,3.1137,3.1424,3.1629,3.1804,3.1957,3.1957,3.1957,3.1957,3.1957,3.176,3.1629,3.1629,3.1629,3.1629,3.1629,3.1629,3.2015,3.3101,3.419,3.5259,3.6213,3.732,3.79,3.79,3.79,3.79,3.79,3.756,3.7273,3.7011,3.6096,3.5678,3.573,3.5182,3.4894,0.0,0.0,2.1389,2.2449,2.3618,2.4563,0.0,0.0,0.0,0.0,0.0,0.0,0.0,0.0,0.0,0.0,0.0,0.0,0.0,0.0,0.0,0.0,0.0,0.0,0.0,0.0,0.0,0.0,2.6662,2.6392,2.6392,2.6061,2.5834,2.5709,2.5399,2.5337,2.5544,2.4881,2.4716,2.5068,2.5378,2.5544,2.5544,2.5544,2.5544,2.5564,2.6144,2.6455,2.6599,2.6931,2.7158,2.7262,2.7262,2.7469,2.7759,2.7759,2.7759,2.7759,2.7759,2.7759,2.7779,2.7883,2.8152,2.8462,2.8566,2.8938,2.9311,2.9311,2.9642,2.9994,2.9994,3.0099,3.0099,3.0099,3.0516,3.0931,3.1034,3.1322,3.1629,3.1629,3.1629,3.1629,3.1629,3.1629,3.1629,3.1629,3.1629,3.1629,3.1629,3.1629,3.1629,3.1629,3.1629,3.1913,3.2723,3.3993,3.5162,3.5833,3.7201,3.79,3.79,3.79,3.79,3.79,3.7456,3.7168,3.7011,3.6149,3.5783,3.5887,3.5495,3.5208,0.0,1.859,0.0,2.0968,2.2109,0.0,0.0,0.0,0.0,0.0,0.0,0.0,0.0,0.0,0.0,0.0,0.0,0.0,0.0,0.0,0.0,0.0,0.0,0.0,0.0,0.0,0.0,0.0,2.6165,2.5916,2.5916,2.5896,2.5689,2.5275,2.5254,2.5026,2.4612,2.4485,2.4464,2.4571,2.4592,2.4612,2.4612,2.4612,2.4612,2.4654,2.5544,2.6165,2.6579,2.6599,2.6868,2.7262,2.7262,2.7262,2.7303,2.7303,2.7303,2.7303,2.7303,2.7303,2.7365,2.7779,2.7945,2.8048,2.8483,2.8938,2.9311,2.9311,2.9642,2.9994,2.9994,3.0203,3.0391,3.0391,3.0806,3.1219,3.1527,3.1629,3.1629,3.1629,3.1629,3.1629,3.1629,3.1629,3.1629,3.1629,3.1629,3.1629,3.1629,3.1629,3.1629,3.1629,3.1629,3.1629,3.1732,3.3598,3.4775,3.4872,3.6734,3.79,3.79,3.79,3.79,3.79,3.7874,3.7586,3.7011,3.6933,3.6384,3.5338,3.5312,3.4999,0.0,0.0,0.0,1.9403,2.0727,2.1865,0.0,0.0,0.0,0.0,0.0,0.0,0.0,0.0,0.0,0.0,0.0,0.0,0.0,0.0,0.0,0.0,0.0,0.0,0.0,0.0,0.0,0.0,0.0,2.5461,2.5461,2.5192,2.4943,2.4799,2.4509,2.4281,2.4115,2.4405,2.455,2.455,2.455,2.455,2.455,2.455,2.455,2.455,2.4881,2.5275,2.573,2.602,2.6227,2.6413,2.6703,2.6806,2.6848,2.7158,2.7076,2.6806,2.6806,2.662,2.6455,2.691,2.7055,2.7138,2.7593,2.8048,2.8421,2.8421,2.8959,2.9559,2.9559,2.987,3.0203,3.062,3.0931,3.1219,3.1527,3.1629,3.1629,3.1629,3.1629,3.1629,3.1629,3.1629,3.1629,3.1629,3.1629,3.1629,3.1629,3.1629,3.1629,3.1629,3.1629,3.1629,3.1629,3.3598,3.4775,3.4775,3.6734,3.79,3.79,3.79,3.79,3.79,3.79,3.7612,3.7011,3.7011,3.6802,3.6384,3.5992,3.5704,1.751,0.0,0.0,0.0,0.0,2.0377,2.0979,0.0,0.0,0.0,0.0,0.0,0.0,0.0,0.0,0.0,0.0,0.0,0.0,0.0,0.0,0.0,0.0,0.0,0.0,0.0,0.0,0.0,0.0,0.0,2.5006,2.4716,2.455,2.455,2.426,2.4095,2.4095,2.4405,2.455,2.455,2.455,2.455,2.455,2.455,2.455,2.455,2.455,2.4799,2.5254,2.5544,2.5751,2.5916,2.6206,2.633,2.6392,2.6848,2.6827,2.6599,2.6744,2.6496,2.6185,2.6641,2.6703,2.6662,2.7117,2.7572,2.7924,2.7924,2.8483,2.9104,2.927,2.9746,3.0308,3.0827,3.1034,3.1219,3.1527,3.1629,3.1629,3.1629,3.1629,3.1629,3.1629,3.1629,3.1629,3.1629,3.1629,3.1629,3.1629,3.1629,3.1629,3.1629,3.1629,3.1629,3.1629,3.3201,3.4385,3.4775,3.6427,3.7505,3.79,3.79,3.79,3.79,3.79,3.7717,3.7299,3.7116,3.6802,3.641,3.6018,3.5835,0.0,0.0,0.0,0.0,0.0,0.0,2.0132,0.0,2.0893,0.0,0.0,0.0,0.0,0.0,0.0,0.0,0.0,0.0,0.0,0.0,0.0,0.0,0.0,0.0,0.0,0.0,0.0,0.0,2.4799,2.455,2.455,2.455,2.455,2.455,2.455,2.455,2.455,2.455,2.455,2.455,2.455,2.455,2.455,2.455,2.455,2.455,2.455,2.4799,2.5213,2.5213,2.5461,2.5834,2.5854,2.5854,2.5916,2.6372,2.6558,2.6641,2.7076,2.6951,2.6641,2.7117,2.6951,2.6662,2.7117,2.7552,2.7903,2.7903,2.8235,2.8711,2.9187,2.9828,3.0474,3.1116,3.124,3.1322,3.1527,3.1629,3.1629,3.1629,3.1629,3.1629,3.1629,3.1629,3.1629,3.1629,3.1629,3.1629,3.1629,3.1629,3.1629,3.1629,3.1629,3.1629,3.1629,3.26,3.3697,3.4775,3.5738,3.6803,3.79,3.79,3.79,3.79,3.79,3.79,3.7874,3.7299,3.6436,3.5338,3.5312,3.5286,1.7852,0.0,0.0,0.0,0.0,0.0,0.0,0.0,0.0,0.0,0.0,0.0,0.0,0.0,0.0,0.0,0.0,0.0,0.0,0.0,0.0,0.0,0.0,0.0,0.0,0.0,0.0,0.0,2.4526,2.455,2.455,2.455,2.455,2.455,2.455,2.455,2.455,2.455,2.455,2.455,2.455,2.455,2.455,2.455,2.455,2.455,2.455,2.4526,2.4736,2.4736,2.4799,2.4943,2.5275,2.542,2.5461,2.5916,2.6289,2.6579,2.6724,2.6682,2.6641,2.7117,2.6951,2.6662,2.7117,2.7345,2.7448,2.7448,2.7779,2.8297,2.9286,2.9905,3.0402,3.1051,3.1322,3.1527,3.1629,3.1629,3.1629,3.1629,3.1629,3.1629,3.1629,3.1629,3.1629,3.1629,3.1629,3.1629,3.1629,3.1629,3.1629,3.1629,3.1629,3.1629,3.1629,3.33,3.4483,3.4775,3.6427,3.7598,3.79,3.79,3.79,3.79,3.79,3.7691,3.7246,3.709,3.6854,3.6515,3.5678,3.5077,0.0,0.0,0.0,0.0,0.0,0.0,1.8644,1.9304,2.0103,0.0,0.0,0.0,0.0,0.0,0.0,0.0,0.0,0.0,0.0,0.0,0.0,0.0,0.0,0.0,0.0,2.3826,2.3971,2.3971,2.3971,2.4053,2.426,2.426,2.4343,2.4444,2.4364,2.4364,2.455,2.4364,2.4364,2.455,2.455,2.455,2.455,2.455,2.455,2.455,2.455,2.455,2.455,2.455,2.455,2.4571,2.484,2.4943,2.5006,2.544,2.5771,2.6041,2.6206,2.6413,2.662,2.6889,2.6931,2.691,2.7179,2.7262,2.7262,2.7262,2.7572,2.8048,2.8985,2.9479,2.9891,3.0471,3.0969,3.1323,3.1323,3.1476,3.1629,3.1629,3.1629,3.1629,3.1629,3.1629,3.1629,3.1629,3.1629,3.1629,3.1629,3.1629,3.1629,3.1629,3.1629,3.1812,3.2218,3.34,3.4483,3.5355,3.6521,3.7413,3.79,3.79,3.79,3.79,3.79,3.7482,3.6619,3.6619,3.6384,3.5887,3.5234,3.4868,0.0,0.0,0.0,0.0,0.0,0.0,1.9267,1.9555,2.0023,0.0,0.0,0.0,0.0,0.0,0.0,0.0,0.0,0.0,0.0,0.0,0.0,0.0,0.0,0.0,2.3101,2.3163,2.3184,2.3184,2.3143,2.3308,2.3784,2.3743,2.3929,2.4385,2.4012,2.3991,2.4385,2.3991,2.4033,2.4467,2.4467,2.4488,2.455,2.455,2.455,2.455,2.455,2.455,2.455,2.455,2.455,2.455,2.455,2.455,2.4592,2.5006,2.5192,2.5295,2.5668,2.6103,2.6496,2.6558,2.6848,2.72,2.7241,2.7262,2.7262,2.7262,2.7552,2.7959,2.8313,2.8824,2.9359,2.9741,3.0383,3.0908,3.0974,3.1323,3.1629,3.1629,3.1629,3.1629,3.1629,3.1629,3.1629,3.1629,3.1629,3.1629,3.1629,3.1629,3.1629,3.1629,3.1629,3.2015,3.3101,3.33,3.4166,3.6213,3.6427,3.6922,3.79,3.79,3.79,3.79,3.79,3.7299,3.6096,3.6096,3.5521,3.4397,3.4397,3.4685,0.0,0.0,0.0,0.0,0.0,0.0,1.8494,1.8582,1.8723,0.0,1.9454,0.0,0.0,0.0,0.0,0.0,0.0,0.0,0.0,0.0,0.0,0.0,0.0,0.0,2.2625,2.2977,2.3184,2.3184,2.2832,2.2832,2.3308,2.2977,2.2977,2.3432,2.337,2.337,2.3453,2.337,2.3557,2.4012,2.4012,2.4198,2.455,2.455,2.455,2.455,2.455,2.455,2.455,2.455,2.455,2.455,2.455,2.455,2.4464,2.4633,2.4923,2.5254,2.5337,2.5647,2.6082,2.6455,2.6641,2.6786,2.7158,2.7262,2.7262,2.7262,2.7324,2.7565,2.8229,2.8494,2.8943,3.0084,3.0443,3.0716,3.1287,3.1564,3.1629,3.1629,3.1629,3.1629,3.1629,3.1629,3.1629,3.1629,3.1629,3.1629,3.1629,3.1629,3.1629,3.1629,3.1629,3.2015,3.3101,3.3993,3.4969,3.6213,3.7108,3.769,3.79,3.79,3.79,3.79,3.79,3.7299,3.6096,3.6096,3.5521,3.4397,3.4397,3.445,0.0,0.0,0.0,1.9939,0.0,0.0,0.0,1.921,1.9239,1.9937,2.0002,1.9796,1.9548,1.9818,1.999,0.0,0.0,0.0,0.0,0.0,0.0,0.0,0.0,2.2149,2.2149,2.2356,2.2501,2.2501,2.2273,2.2356,2.2811,2.2397,2.2356,2.2832,2.2625,2.2604,2.2832,2.2832,2.308,2.3536,2.3536,2.3764,2.4219,2.4219,2.4322,2.455,2.455,2.455,2.455,2.455,2.455,2.455,2.455,2.455,2.455,2.455,2.4695,2.4881,2.4881,2.5171,2.5585,2.5834,2.6041,2.6268,2.6496,2.6724,2.7045,2.7389,2.7452,2.7589,2.8105,2.8264,2.8583,2.9246,2.9743,3.0144,3.0821,3.1105,3.1323,3.1586,3.1629,3.1629,3.1629,3.1629,3.1629,3.1629,3.1629,3.1629,3.1629,3.1629,3.1629,3.1629,3.1629,3.2218,3.3895,3.4483,3.5451,3.7015,3.7598,3.79,3.79,3.79,3.79,3.79,3.7612,3.7011,3.6096,3.5835,3.526,3.4397,3.4397,3.4397,0.0,0.0,0.0,0.0,0.0,2.0313,0.0,0.0,0.0,2.0828,2.0741,0.0,0.0,1.9666,0.0,0.0,0.0,0.0,0.0,0.0,0.0,0.0,0.0,2.187,2.1728,2.1728,2.1769,2.1797,2.1659,2.1803,2.2335,2.1921,2.188,2.2356,2.1921,2.1901,2.2356,2.2273,2.2501,2.306,2.306,2.3287,2.3743,2.3846,2.4074,2.4426,2.4509,2.455,2.455,2.455,2.455,2.455,2.455,2.455,2.455,2.455,2.455,2.455,2.455,2.4778,2.5109,2.5192,2.5523,2.5875,2.5875,2.6206,2.6734,2.7296,2.7463,2.7641,2.7904,2.8092,2.8322,2.8502,2.9015,2.9524,3.01,3.0515,3.0908,3.1389,3.1476,3.152,3.1607,3.1629,3.1629,3.1629,3.1629,3.1629,3.1629,3.1629,3.1629,3.1629,3.1629,3.2521,3.4581,3.4775,3.5667,3.7808,3.79,3.79,3.79,3.79,3.79,3.79,3.7429,3.6881,3.6279,3.5835,3.5208,3.4397,3.4397,3.4397,0.0,0.0,0.0,0.0,2.1653,0.0,0.0,0.0,1.9881,1.9481,0.0,1.8596,1.8462,0.0,0.0,0.0,0.0,0.0,0.0,0.0,0.0,2.0854,2.176,2.2195,2.1606,2.1502,2.1618,2.1776,2.1049,2.1029,2.1859,2.1445,2.1404,2.1859,2.1424,2.1424,2.188,2.1487,2.1714,2.2563,2.2563,2.2811,2.3287,2.3681,2.3908,2.3971,2.4364,2.455,2.455,2.455,2.455,2.455,2.455,2.455,2.455,2.455,2.455,2.455,2.455,2.4571,2.4695,2.5088,2.5523,2.5875,2.5875,2.6206,2.6579,2.6713,2.7139,2.7641,2.7641,2.7809,2.8199,2.8838,2.9063,2.9332,3.0003,3.0253,3.0428,3.0887,3.0974,3.1105,3.1542,3.1629,3.1629,3.1629,3.1629,3.1629,3.1629,3.1629,3.1629,3.1629,3.1629,3.2521,3.4581,3.4775,3.5667,3.7808,3.79,3.79,3.79,3.79,3.79,3.79,3.7848,3.7508,3.6907,3.6854,3.5992,3.4397,3.4397,3.4397,0.0,0.0,0.0,0.0,0.0,0.0,0.0,0.0,1.9895,0.0,0.0,0.0,0.0,0.0,0.0,0.0,1.9644,0.0,0.0,0.0,0.0,0.0,0.0,0.0,2.1854,2.1974,2.2099,2.2177,2.2193,2.2252,2.2666,2.2077,2.1859,2.2051,2.1439,2.1073,2.101,2.1342,2.1569,2.1694,2.1963,2.2335,2.2791,2.2998,2.337,2.3888,2.4074,2.4302,2.455,2.455,2.455,2.455,2.455,2.455,2.455,2.455,2.455,2.455,2.455,2.455,2.4571,2.4778,2.4964,2.515,2.542,2.5813,2.6318,2.6681,2.7191,2.7641,2.8019,2.8113,2.8344,2.8842,2.8979,2.911,2.9685,2.9794,2.9925,3.0406,3.0712,3.0952,3.1171,3.1433,3.1629,3.1629,3.1629,3.1629,3.1629,3.1629,3.1629,3.1629,3.2117,3.3101,3.4678,3.5355,3.6332,3.7808,3.79,3.79,3.79,3.79,3.79,3.79,3.756,3.7246,3.7011,3.6332,3.5626,3.492,3.492,3.4737,2.2402,0.0,0.0,0.0,0.0,0.0,0.0,0.0,0.0,0.0,0.0,0.0,0.0,0.0,1.9168,0.0,0.0,1.974,0.0,0.0,0.0,0.0,0.0,0.0,0.0,2.2201,2.232,2.2409,0.0,2.3003,2.328,2.2809,2.2684,2.2817,2.176,2.1177,2.1093,2.1387,2.1481,2.13,2.1657,2.2012,2.2315,2.2439,2.2853,2.3515,2.3639,2.3867,2.4178,2.4302,2.4364,2.4364,2.4488,2.455,2.455,2.455,2.455,2.455,2.455,2.455,2.455,2.455,2.455,2.4526,2.4943,2.5357,2.5972,2.6634,2.7189,2.7755,2.8258,2.8488,2.8581,2.8746,2.8746,2.8855,2.9205,2.9292,2.9423,2.9925,3.0275,3.0559,3.069,3.1214,3.1629,3.1629,3.1629,3.1629,3.1629,3.1629,3.1629,3.1629,3.2319,3.33,3.4678,3.5451,3.6427,3.7808,3.79,3.79,3.79,3.79,3.79,3.79,3.7482,3.7246,3.7246,3.641,3.5835,3.5521,3.5208,3.4816,0.0,0.0,0.0,2.2468,0.0,0.0,0.0,0.0,2.0839,0.0,0.0,0.0,0.0,2.0047,1.9615,1.9571,0.0,0.0,0.0,0.0,0.0,0.0,0.0,0.0,0.0,2.1862,2.197,0.0,2.2011,2.2363,2.3258,2.3303,2.3509,2.4013,2.2466,2.2018,2.2936,2.1511,2.1182,2.1776,2.1987,2.2029,2.1838,2.2294,2.2522,2.2563,2.3018,2.3225,2.3267,2.3722,2.3908,2.395,2.4364,2.455,2.455,2.455,2.455,2.455,2.455,2.455,2.455,2.455,2.455,2.455,2.455,2.5055,2.569,2.6151,2.6977,2.7812,2.8287,2.8581,2.8746,2.8746,2.8746,2.8768,2.8768,2.879,2.8921,2.9401,2.951,2.9685,3.0144,3.0996,3.1629,3.1629,3.1629,3.1629,3.1629,3.1629,3.1629,3.1629,3.1629,3.2521,3.4581,3.4872,3.5763,3.7808,3.79,3.79,3.79,3.79,3.79,3.79,3.7874,3.7874,3.7874,3.7848,3.722,3.6044,3.4946,3.4424,0.0,0.0,2.4378,2.2797,0.0,0.0,0.0,0.0,0.0,0.0,0.0,0.0,0.0,0.0,2.0074,1.9922,1.9922,1.9878,0.0,1.9944,1.9986,0.0,0.0,0.0,0.0,0.0,0.0,0.0,2.2893,0.0,2.4244,2.4178,2.433,2.485,2.3787,2.327,2.327,2.2702,2.2195,2.1682,2.2528,2.2324,2.1383,2.2743,2.3197,2.2977,2.3453,2.3639,2.366,2.3805,2.3701,2.3432,2.3598,2.3826,2.4136,2.4426,2.455,2.455,2.455,2.455,2.455,2.455,2.455,2.455,2.47,2.5034,2.543,2.5929,2.6398,2.6934,2.7699,2.8012,2.8169,2.868,2.8746,2.8746,2.8746,2.8746,2.8905,2.8964,2.927,2.9532,2.9707,3.0253,3.0799,3.1105,3.1411,3.1629,3.1629,3.1629,3.1812,3.26,3.33,3.4288,3.5642,3.6427,3.7134,3.79,3.79,3.79,3.79,3.79,3.79,3.79,3.79,3.79,3.79,3.7508,3.709,3.6671,3.5887,3.5338,2.461,2.4915,0.0,2.3351,2.3253,0.0,2.1171,0.0,0.0,0.0,0.0,0.0,0.0,0.0,0.0,2.0484,2.0313,2.014,0.0,2.014,2.014,0.0,0.0,0.0,0.0,0.0,0.0,2.2501,2.3083,2.3841,0.0,2.4674,2.492,2.5721,2.4755,2.412,2.3793,2.335,2.2754,2.1954,2.2754,2.2542,2.1481,2.2595,2.3003,2.2729,2.3184,2.3287,2.3163,2.3494,2.335,2.2956,2.3122,2.337,2.3681,2.4136,2.4405,2.455,2.455,2.455,2.455,2.455,2.455,2.455,2.47,2.4909,2.5263,2.6186,2.6292,2.6551,2.7817,2.7995,2.793,2.8418,2.8637,2.8746,2.8746,2.8746,2.8746,2.8746,2.9008,2.9226,2.9226,2.962,3.0166,3.0799,3.1018,3.1171,3.1345,3.1214,3.1573,3.2826,3.3352,3.427,3.5818,3.7191,3.79,3.79,3.79,3.79,3.79,3.79,3.8004,3.8187,3.8004,3.8004,3.8187,3.7612,3.722,3.7011,3.6828,3.6436]},{"header":{"parameterUnit":"m.s-1","parameterCategory":1,"la1":30.6,"la2":29.2853,"lo1":-89.7004,"lo2":-87.6739,"dy":0.0162,"dx":0.0183,"nx":112,"ny":82,"refTime":"2023-05-21T12:00:00:Z","depth":0,"parameterNumber":3,"parameterNumberName":"V-component_of_WINDS"},"data":[0.0,0.0,0.0,0.0,0.0,0.0,0.0,0.0,0.0,0.0,0.0,0.0,0.0,0.0,0.0,0.0,0.0,0.0,0.0,0.0,0.0,0.0,0.0,0.0,0.0,0.0,0.0,0.0,0.0,0.0,0.0,0.0,0.0,0.0,0.0,0.0,0.0,0.0,0.0,0.0,0.0,0.0,0.0,0.0,0.0,0.0,0.0,0.0,0.0,0.0,0.0,0.0,0.0,0.0,0.0,0.0,0.0,0.0,0.0,0.0,0.0,0.0,0.0,0.0,0.0,0.0,0.0,0.0,0.0,0.0,0.0,0.0,0.0,0.0,0.0,0.0,0.0,0.0,0.0,0.0,0.0,0.0,0.0,0.0,0.0,0.0,0.0,0.0,0.0,0.0,0.0,3.2273,3.6574,3.8957,3.8405,3.8609,3.6532,3.1243,0.0,0.0,0.0,0.0,0.0,0.0,0.0,0.0,0.0,0.0,0.0,0.0,0.0,0.0,0.0,0.0,0.0,0.0,0.0,0.0,0.0,0.0,0.0,0.0,0.0,0.0,0.0,0.0,0.0,0.0,0.0,0.0,0.0,0.0,0.0,0.0,0.0,0.0,0.0,0.0,0.0,0.0,0.0,0.0,0.0,0.0,0.0,0.0,0.0,0.0,0.0,0.0,0.0,0.0,0.0,0.0,0.0,0.0,0.0,0.0,0.0,0.0,0.0,0.0,0.0,0.0,0.0,0.0,0.0,0.0,0.0,0.0,0.0,0.0,0.0,0.0,0.0,0.0,0.0,0.0,0.0,0.0,0.0,0.0,0.0,0.0,0.0,0.0,0.0,0.0,0.0,0.0,0.0,0.0,0.0,0.0,0.0,0.0,0.0,0.0,0.0,0.0,0.0,0.0,3.0661,3.5136,3.7738,3.916,3.9073,3.7622,3.5281,3.1798,0.0,0.0,0.0,0.0,0.0,0.0,0.0,0.0,0.0,0.0,0.0,0.0,0.0,0.0,0.0,0.0,0.0,0.0,0.0,0.0,0.0,0.0,0.0,0.0,0.0,0.0,0.0,0.0,0.0,0.0,0.0,0.0,0.0,0.0,0.0,0.0,0.0,0.0,0.0,0.0,0.0,0.0,0.0,0.0,0.0,0.0,0.0,0.0,0.0,0.0,0.0,0.0,0.0,0.0,0.0,0.0,0.0,0.0,0.0,0.0,0.0,0.0,0.0,0.0,0.0,0.0,0.0,0.0,0.0,0.0,0.0,0.0,0.0,0.0,0.0,0.0,0.0,0.0,0.0,0.0,0.0,0.0,0.0,0.0,0.0,0.0,0.0,0.0,0.0,0.0,0.0,0.0,0.0,0.0,0.0,0.0,0.0,0.0,0.0,0.0,0.0,0.0,0.0,3.0013,3.2625,3.6402,3.7941,3.8522,3.8202,3.7041,3.502,3.2038,3.0776,0.0,0.0,0.0,0.0,0.0,0.0,0.0,0.0,0.0,0.0,0.0,0.0,0.0,0.0,0.0,0.0,0.0,0.0,0.0,0.0,0.0,0.0,0.0,0.0,0.0,0.0,0.0,0.0,0.0,0.0,0.0,0.0,0.0,0.0,0.0,0.0,0.0,0.0,0.0,0.0,0.0,0.0,0.0,0.0,0.0,0.0,0.0,0.0,0.0,0.0,0.0,0.0,0.0,0.0,0.0,0.0,0.0,0.0,0.0,0.0,0.0,0.0,0.0,0.0,0.0,0.0,0.0,0.0,0.0,0.0,0.0,0.0,0.0,0.0,0.0,0.0,0.0,0.0,0.0,0.0,0.0,0.0,0.0,0.0,0.0,0.0,0.0,0.0,0.0,0.0,0.0,0.0,0.0,0.0,0.0,0.0,0.0,0.0,0.0,0.0,0.0,0.0,3.2452,3.4251,3.6983,3.7709,3.7796,3.7331,3.6286,3.4593,3.2161,3.0338,0.0,0.0,0.0,0.0,0.0,0.0,0.0,0.0,0.0,0.0,0.0,0.0,0.0,0.0,0.0,0.0,0.0,0.0,0.0,0.0,0.0,0.0,0.0,0.0,0.0,0.0,0.0,0.0,0.0,0.0,0.0,0.0,0.0,0.0,0.0,0.0,0.0,0.0,0.0,0.0,0.0,0.0,0.0,0.0,0.0,0.0,0.0,0.0,0.0,0.0,0.0,0.0,0.0,0.0,0.0,0.0,0.0,0.0,0.0,0.0,0.0,0.0,0.0,0.0,0.0,0.0,0.0,0.0,0.0,0.0,0.0,0.0,0.0,0.0,0.0,0.0,0.0,0.0,0.0,0.0,0.0,0.0,0.0,0.0,0.0,0.0,0.0,0.0,0.0,0.0,0.0,0.0,0.0,0.0,0.0,0.0,0.0,0.0,0.0,0.0,0.0,0.0,3.3317,3.5067,3.7099,3.7331,3.736,3.7302,3.5067,3.3194,3.2073,2.9518,0.0,0.0,0.0,0.0,0.0,0.0,0.0,0.0,0.0,0.0,0.0,0.0,0.0,0.0,0.0,0.0,0.0,0.0,0.0,0.0,0.0,0.0,0.0,0.0,0.0,0.0,0.0,0.0,0.0,0.0,0.0,0.0,0.0,0.0,0.0,0.0,0.0,0.0,0.0,0.0,0.0,0.0,0.0,0.0,0.0,0.0,0.0,0.0,0.0,0.0,0.0,0.0,0.0,0.0,0.0,0.0,0.0,0.0,0.0,0.0,0.0,0.0,0.0,0.0,0.0,0.0,0.0,0.0,0.0,0.0,0.0,0.0,0.0,0.0,0.0,0.0,0.0,0.0,0.0,0.0,0.0,0.0,0.0,0.0,0.0,0.0,0.0,0.0,0.0,0.0,0.0,0.0,0.0,0.0,0.0,0.0,0.0,0.0,0.0,0.0,0.0,0.0,3.3147,3.4932,0.0,3.7535,3.7128,3.6722,3.5067,3.331,3.1514,0.0,0.0,0.0,0.0,0.0,0.0,0.0,0.0,0.0,0.0,0.0,0.0,0.0,0.0,0.0,0.0,0.0,0.0,0.0,0.0,0.0,0.0,0.0,0.0,0.0,0.0,0.0,0.0,0.0,0.0,0.0,0.0,0.0,0.0,0.0,0.0,0.0,0.0,0.0,0.0,0.0,0.0,0.0,0.0,0.0,0.0,0.0,0.0,0.0,0.0,0.0,0.0,0.0,0.0,0.0,0.0,0.0,0.0,0.0,0.0,0.0,0.0,0.0,0.0,0.0,0.0,0.0,0.0,0.0,0.0,0.0,0.0,0.0,0.0,0.0,0.0,0.0,0.0,0.0,0.0,0.0,0.0,0.0,0.0,0.0,0.0,0.0,0.0,0.0,0.0,0.0,0.0,0.0,0.0,0.0,0.0,0.0,0.0,0.0,0.0,0.0,0.0,3.1602,3.3118,3.4971,0.0,3.736,3.6809,3.6344,3.4574,3.2873,3.1426,0.0,0.0,0.0,0.0,0.0,0.0,0.0,0.0,0.0,0.0,0.0,0.0,0.0,0.0,0.0,0.0,0.0,0.0,0.0,0.0,0.0,0.0,0.0,0.0,0.0,0.0,0.0,0.0,0.0,0.0,0.0,0.0,0.0,0.0,0.0,0.0,0.0,0.0,0.0,0.0,0.0,0.0,0.0,0.0,0.0,0.0,0.0,0.0,0.0,0.0,0.0,0.0,0.0,0.0,0.0,0.0,0.0,0.0,0.0,0.0,0.0,0.0,0.0,0.0,0.0,0.0,0.0,0.0,0.0,0.0,0.0,0.0,0.0,0.0,0.0,0.0,0.0,0.0,0.0,0.0,0.0,0.0,0.0,0.0,0.0,0.0,0.0,0.0,0.0,0.0,0.0,0.0,0.0,0.0,0.0,0.0,0.0,0.0,0.0,0.0,0.0,0.0,3.172,3.3404,3.5154,3.7099,3.6693,3.6286,3.6286,3.3354,3.1649,0.0,0.0,0.0,0.0,0.0,0.0,0.0,0.0,0.0,0.0,0.0,0.0,0.0,0.0,0.0,0.0,0.0,0.0,0.0,0.0,0.0,0.0,0.0,0.0,0.0,0.0,0.0,0.0,0.0,0.0,0.0,0.0,0.0,0.0,0.0,0.0,0.0,0.0,0.0,0.0,0.0,0.0,0.0,0.0,0.0,0.0,0.0,0.0,0.0,0.0,0.0,0.0,0.0,0.0,0.0,0.0,0.0,0.0,0.0,0.0,0.0,0.0,0.0,0.0,0.0,0.0,0.0,0.0,0.0,0.0,0.0,0.0,0.0,0.0,0.0,0.0,0.0,0.0,0.0,0.0,0.0,0.0,0.0,0.0,0.0,0.0,0.0,0.0,0.0,0.0,0.0,0.0,0.0,0.0,0.0,0.0,0.0,0.0,0.0,0.0,0.0,0.0,0.0,3.193,3.3089,3.4486,3.6402,3.6025,3.5648,3.5648,3.3529,3.2145,3.2014,0.0,0.0,0.0,0.0,0.0,0.0,0.0,0.0,0.0,0.0,0.0,0.0,0.0,0.0,0.0,0.0,0.0,0.0,0.0,0.0,0.0,0.0,0.0,0.0,0.0,0.0,0.0,0.0,0.0,0.0,0.0,0.0,0.0,0.0,0.0,0.0,0.0,0.0,0.0,0.0,0.0,0.0,0.0,0.0,0.0,0.0,0.0,0.0,0.0,0.0,0.0,0.0,0.0,0.0,0.0,0.0,0.0,0.0,0.0,0.0,0.0,0.0,0.0,0.0,0.0,0.0,0.0,0.0,0.0,0.0,0.0,0.0,0.0,0.0,0.0,0.0,0.0,0.0,0.0,0.0,0.0,0.0,0.0,0.0,0.0,0.0,0.0,0.0,0.0,0.0,0.0,0.0,0.0,0.0,0.0,0.0,0.0,0.0,0.0,0.0,0.0,0.0,3.199,3.2976,3.4109,3.5764,3.559,3.5427,3.5427,3.3616,3.2402,3.2273,0.0,0.0,0.0,0.0,0.0,0.0,0.0,0.0,0.0,0.0,0.0,0.0,0.0,0.0,0.0,0.0,0.0,0.0,0.0,0.0,0.0,0.0,0.0,0.0,0.0,0.0,0.0,0.0,0.0,0.0,0.0,0.0,0.0,0.0,0.0,0.0,0.0,0.0,0.0,0.0,0.0,0.0,0.0,0.0,0.0,0.0,0.0,0.0,0.0,0.0,0.0,0.0,0.0,0.0,0.0,0.0,0.0,0.0,0.0,0.0,0.0,0.0,0.0,0.0,0.0,0.0,0.0,0.0,0.0,0.0,0.0,0.0,0.0,0.0,0.0,0.0,0.0,0.0,0.0,0.0,0.0,0.0,0.0,0.0,0.0,0.0,0.0,0.0,0.0,0.0,0.0,0.0,0.0,0.0,0.0,0.0,0.0,0.0,0.0,0.0,0.0,0.0,3.208,3.2918,3.3877,3.5125,3.527,3.527,3.527,3.3587,3.2547,3.2587,0.0,0.0,0.0,0.0,0.0,0.0,0.0,0.0,0.0,0.0,0.0,0.0,0.0,0.0,0.0,0.0,0.0,0.0,0.0,0.0,0.0,0.0,0.0,0.0,0.0,0.0,0.0,0.0,0.0,0.0,0.0,0.0,0.0,0.0,0.0,0.0,0.0,0.0,0.0,0.0,0.0,0.0,0.0,0.0,0.0,0.0,0.0,0.0,0.0,0.0,0.0,0.0,0.0,0.0,0.0,0.0,0.0,0.0,0.0,0.0,2.7471,0.0,0.0,0.0,0.0,0.0,0.0,0.0,0.0,0.0,0.0,0.0,0.0,0.0,0.0,0.0,0.0,0.0,0.0,0.0,0.0,0.0,0.0,0.0,0.0,0.0,0.0,0.0,0.0,0.0,0.0,0.0,0.0,0.0,0.0,0.0,0.0,0.0,0.0,0.0,0.0,0.0,3.2199,3.2537,3.3209,3.4486,3.4603,3.4603,3.4603,3.3325,3.2344,3.2006,3.1245,0.0,0.0,0.0,0.0,0.0,0.0,0.0,0.0,0.0,0.0,0.0,0.0,0.0,0.0,0.0,0.0,0.0,0.0,0.0,0.0,0.0,0.0,0.0,0.0,0.0,0.0,0.0,0.0,0.0,0.0,0.0,0.0,0.0,0.0,0.0,0.0,0.0,0.0,0.0,0.0,0.0,0.0,0.0,0.0,0.0,0.0,0.0,0.0,0.0,0.0,0.0,0.0,0.0,0.0,0.0,0.0,0.0,0.0,0.0,0.0,2.9078,0.0,0.0,0.0,0.0,0.0,0.0,0.0,0.0,0.0,0.0,0.0,0.0,0.0,0.0,0.0,0.0,0.0,0.0,0.0,0.0,0.0,0.0,0.0,0.0,0.0,0.0,0.0,0.0,0.0,0.0,0.0,0.0,0.0,0.0,0.0,0.0,0.0,0.0,0.0,0.0,3.2736,3.2687,3.3006,3.4283,3.4399,3.4399,3.4399,3.3238,3.2367,3.2145,3.1302,0.0,0.0,0.0,0.0,0.0,0.0,0.0,0.0,0.0,0.0,0.0,0.0,0.0,0.0,0.0,0.0,0.0,0.0,0.0,0.0,0.0,0.0,0.0,0.0,0.0,0.0,0.0,0.0,0.0,0.0,0.0,0.0,0.0,0.0,0.0,0.0,0.0,0.0,0.0,0.0,0.0,0.0,0.0,0.0,0.0,0.0,0.0,0.0,0.0,0.0,0.0,0.0,0.0,3.4925,3.5385,3.5545,3.5663,3.5947,3.6061,3.2976,3.1247,3.0631,3.0806,0.0,0.0,0.0,0.0,0.0,0.0,0.0,0.0,0.0,0.0,0.0,0.0,0.0,0.0,0.0,0.0,0.0,0.0,0.0,0.0,0.0,0.0,0.0,0.0,3.1452,3.1216,0.0,0.0,0.0,0.0,0.0,0.0,0.0,0.0,0.0,0.0,0.0,0.0,3.3063,3.283,3.3122,3.4283,3.4399,3.4399,3.4399,3.3354,3.2571,3.2367,3.1445,3.0835,0.0,0.0,0.0,0.0,0.0,0.0,0.0,0.0,0.0,0.0,0.0,0.0,0.0,0.0,0.0,0.0,0.0,0.0,0.0,0.0,0.0,0.0,0.0,0.0,0.0,0.0,0.0,0.0,0.0,0.0,0.0,0.0,2.9899,2.9475,0.0,0.0,0.0,0.0,0.0,0.0,0.0,0.0,0.0,0.0,0.0,0.0,0.0,3.3779,3.5406,3.6507,3.7046,3.7164,3.8631,3.8772,3.7783,3.8364,3.8684,3.8667,3.8219,0.0,3.3871,3.2825,0.0,0.0,0.0,0.0,0.0,0.0,0.0,0.0,0.0,0.0,0.0,0.0,0.0,0.0,0.0,0.0,0.0,0.0,0.0,0.0,0.0,0.0,3.0686,3.1297,3.1529,3.1584,0.0,3.1982,3.2109,3.2258,3.2047,0.0,0.0,0.0,0.0,0.0,0.0,0.0,3.2285,3.2884,3.3616,3.4341,3.4399,3.4399,3.4399,3.3761,3.2861,3.1729,3.1496,3.0977,3.0046,3.0543,0.0,0.0,0.0,0.0,0.0,0.0,0.0,0.0,0.0,0.0,0.0,0.0,0.0,0.0,0.0,0.0,0.0,0.0,0.0,0.0,0.0,0.0,0.0,0.0,0.0,0.0,0.0,0.0,0.0,3.0425,3.1157,3.0522,3.1116,3.128,0.0,0.0,0.0,0.0,0.0,0.0,0.0,0.0,0.0,3.5739,3.6547,3.7275,3.7872,3.9011,3.9926,4.0654,4.1797,4.2353,4.2528,4.2818,4.276,4.2382,4.2382,4.1069,3.8643,3.6043,3.4273,3.314,0.0,0.0,0.0,0.0,3.1575,3.1779,3.1657,3.1596,0.0,3.2164,0.0,0.0,0.0,0.0,0.0,0.0,0.0,0.0,0.0,0.0,3.299,3.3594,3.3964,3.4196,3.4138,3.3747,3.3422,0.0,3.3242,3.3396,3.4001,0.0,0.0,0.0,0.0,3.2642,3.2547,3.3083,3.3703,3.4341,3.4399,3.4399,3.4399,3.3848,3.3064,3.2135,3.1729,3.1119,3.0338,3.0601,3.0953,0.0,0.0,0.0,0.0,0.0,0.0,0.0,0.0,0.0,0.0,0.0,0.0,0.0,0.0,0.0,0.0,0.0,0.0,0.0,0.0,0.0,0.0,0.0,0.0,0.0,0.0,0.0,0.0,3.1814,3.2485,3.1469,3.2364,3.2573,0.0,0.0,0.0,0.0,0.0,0.0,3.5674,3.7386,3.8585,3.9028,4.0264,4.1037,4.1134,4.2092,4.3108,4.4211,4.4734,4.5459,4.6359,4.6214,4.5866,4.5372,4.5198,4.424,4.2528,3.904,3.6904,3.5585,3.4558,3.412,3.3991,3.3991,3.425,3.4567,3.4434,3.4251,3.4134,3.4442,3.3944,3.3275,3.2805,0.0,0.0,0.0,0.0,3.3715,3.4054,3.4485,3.4971,3.5747,3.6083,3.6228,3.5938,3.5427,3.4806,0.0,3.3972,3.4166,3.463,0.0,0.0,0.0,0.0,3.275,3.2864,3.3339,3.3877,3.437,3.4399,3.4399,3.4399,3.3993,3.3383,3.2571,3.2048,3.1409,3.0597,3.0687,3.0835,3.107,0.0,0.0,0.0,0.0,0.0,0.0,0.0,0.0,0.0,0.0,0.0,0.0,0.0,0.0,0.0,0.0,0.0,0.0,0.0,0.0,0.0,0.0,0.0,0.0,0.0,0.0,0.0,0.0,0.0,3.2095,3.4107,0.0,0.0,0.0,0.0,3.6154,3.7413,3.8519,3.9535,4.0275,4.1312,4.2727,4.3369,4.4618,4.6417,4.6505,4.6882,4.755,4.7579,4.7637,4.7666,4.7056,4.6766,4.6708,4.6098,4.543,4.4501,4.125,3.939,3.8355,3.7134,3.6704,3.6813,3.6634,3.6593,3.6453,3.6241,3.5764,3.5427,3.6358,3.5946,3.4978,3.4589,3.4589,0.0,0.0,3.4493,3.5488,3.531,3.5369,3.5689,3.6896,3.6751,3.6489,3.707,3.695,3.6065,0.0,3.3042,3.2873,3.3873,0.0,3.3701,3.3051,3.3991,3.4215,3.2722,3.3616,3.437,3.4399,3.4399,3.4399,3.4399,3.437,3.3848,3.26,3.2483,3.1903,3.0626,3.0628,3.0979,3.1714,3.1743,0.0,0.0,0.0,0.0,0.0,0.0,0.0,0.0,0.0,0.0,0.0,0.0,0.0,0.0,0.0,0.0,0.0,0.0,0.0,0.0,0.0,0.0,0.0,0.0,0.0,0.0,0.0,0.0,3.5529,3.7545,0.0,3.7278,3.7416,3.8068,3.9208,3.9829,4.1116,4.326,4.3994,4.5052,4.6579,4.6693,4.7131,4.7988,4.7834,4.8155,4.8864,4.8741,4.888,4.9289,4.8428,4.784,4.7404,4.6766,4.6127,4.5401,4.3834,4.2029,4.01,3.8818,3.8135,3.7755,3.7755,3.7944,3.8248,3.8173,3.8028,3.7796,3.774,3.6879,3.5897,3.5758,3.5467,3.5185,3.4884,3.5438,3.6125,3.6489,3.6606,3.6838,3.768,3.7709,3.7476,3.7331,3.7201,3.6749,3.5503,3.466,3.4185,3.4551,3.3709,3.3176,3.3579,3.3827,3.3777,3.318,3.3877,3.4399,3.4399,3.4399,3.4399,3.4399,3.4022,3.3441,3.2571,3.2106,3.1496,3.0597,3.0568,3.0744,3.1037,3.1037,3.1506,0.0,0.0,0.0,0.0,0.0,0.0,0.0,0.0,0.0,0.0,0.0,0.0,0.0,0.0,0.0,0.0,0.0,0.0,0.0,0.0,0.0,0.0,0.0,0.0,0.0,0.0,3.8305,3.8632,4.0558,4.1528,4.0634,4.0664,4.1214,4.2385,4.2943,4.4206,4.6314,4.7254,4.811,4.8913,4.9449,4.9567,4.9203,4.933,4.9567,4.9823,4.9633,4.9772,5.0154,4.9084,4.8442,4.8004,4.7157,4.6454,4.5927,4.549,4.4182,4.2237,4.0989,4.0205,3.9799,3.9596,3.9799,4.0147,3.9915,3.9828,3.9741,3.9073,3.797,3.6954,3.6954,3.6664,3.6315,3.6315,3.6925,3.768,3.8144,3.8231,3.8423,3.9103,3.9119,3.8855,3.8707,3.8325,3.7827,3.7505,3.6291,3.5321,3.5087,3.4155,3.3813,3.4747,3.4237,3.3981,3.4449,3.4485,3.4428,3.4496,3.4428,3.4428,3.4496,3.4359,3.3777,3.26,3.2407,3.1795,3.0686,3.0831,3.1008,3.1008,3.1008,3.1506,3.2445,0.0,0.0,0.0,0.0,0.0,0.0,0.0,0.0,0.0,0.0,0.0,0.0,0.0,0.0,0.0,0.0,0.0,0.0,0.0,0.0,0.0,0.0,0.0,3.5903,3.8703,4.0808,4.1109,4.2946,4.3822,4.2839,4.3826,4.4875,4.5811,4.7052,4.8056,4.8676,4.9887,5.0271,4.9622,5.169,5.2051,5.0596,5.1419,5.1419,5.0596,5.0596,5.0596,5.0537,4.9208,4.8617,4.8437,4.714,4.6491,4.6225,4.6225,4.5667,4.4792,4.3544,4.3021,4.2934,4.2324,4.2121,4.2005,4.1366,4.1134,4.1018,4.0379,3.9305,3.8289,3.8289,3.8289,3.826,3.826,3.916,4.0089,4.0089,4.0168,4.0324,4.1249,4.089,4.0528,4.1361,4.0345,3.9395,3.9518,3.7853,3.6212,3.5642,3.5525,3.5703,3.6417,3.5377,0.0,3.6327,3.5347,3.4622,3.4756,3.4622,3.4525,3.4727,3.5427,3.489,3.2629,3.3422,3.2864,3.0715,3.136,3.1743,3.1743,3.1801,3.1801,3.1801,0.0,0.0,0.0,0.0,0.0,0.0,0.0,0.0,0.0,0.0,0.0,0.0,0.0,0.0,0.0,0.0,0.0,0.0,0.0,0.0,0.0,0.0,3.9414,3.905,4.1626,4.4098,4.5595,4.7554,4.8374,4.7614,4.9014,4.9674,4.9208,5.0601,5.1666,5.197,5.2304,5.2551,5.2772,5.2547,5.2579,5.302,5.2365,5.2365,5.302,5.2843,5.2754,5.2723,5.1159,5.011,4.9432,4.8019,4.7133,4.6491,4.6314,4.6018,4.5785,4.4763,4.3805,4.2963,4.2789,4.2469,4.2063,4.1889,4.1831,4.1802,4.1599,4.0989,4.0292,4.0292,3.9973,3.9567,3.9567,3.9828,4.0246,4.0867,4.102,4.1249,4.2041,4.174,4.125,4.1643,4.0978,4.0355,4.0375,3.9955,3.9259,3.806,3.7877,3.7811,3.7643,3.7693,0.0,3.6901,3.6888,3.697,3.6903,3.6594,3.628,3.6045,3.5103,3.3921,3.2571,3.1911,3.1241,3.0657,3.0802,3.095,3.095,3.1973,3.2503,0.0,0.0,0.0,0.0,0.0,0.0,0.0,0.0,0.0,0.0,0.0,0.0,0.0,0.0,0.0,0.0,0.0,0.0,0.0,0.0,0.0,0.0,4.0786,4.312,4.4184,4.5631,4.7287,4.9182,5.0857,5.1828,5.172,5.2581,5.3098,5.2855,5.3252,5.3768,5.4448,5.4109,5.4126,5.4451,5.4128,5.397,5.3976,5.3687,5.3687,5.3976,5.3521,5.3436,5.3742,5.1874,5.0944,5.0623,4.9264,4.8346,4.7789,4.7619,4.7276,0.0,0.0,0.0,0.0,0.0,4.2382,4.2092,4.2092,4.2092,4.2175,4.2474,4.2166,4.1607,4.1607,4.1548,4.1454,4.1096,4.1459,4.2055,4.2591,4.2667,4.2894,4.3676,4.3363,4.2935,4.349,4.2564,4.1736,4.2069,4.1971,0.0,4.0864,3.9656,3.8816,3.8846,3.8437,3.8044,3.7764,3.7653,3.7511,3.7511,3.696,3.6526,3.6246,3.5502,0.0,0.0,0.0,3.2361,3.1911,3.1882,0.0,0.0,0.0,3.2966,3.2669,0.0,0.0,0.0,3.3533,3.3615,0.0,0.0,0.0,0.0,0.0,0.0,0.0,0.0,0.0,0.0,0.0,0.0,0.0,0.0,0.0,0.0,4.4094,4.7046,5.0269,5.0461,5.081,5.233,5.3537,5.4538,5.5039,5.518,5.5525,5.6119,5.5257,5.5098,5.6296,0.0,0.0,0.0,0.0,5.5802,5.4571,5.5146,5.5081,5.4444,5.3712,5.3712,5.4253,5.2232,5.1628,5.1991,5.066,4.9868,4.9567,4.9487,4.8759,4.7528,4.5726,4.4821,4.4264,4.3065,4.2626,4.2597,4.2538,0.0,0.0,4.325,4.3007,4.2526,4.2526,4.3062,4.3438,4.2757,4.3487,4.451,4.4586,4.4662,4.4887,4.5697,4.5302,4.5075,4.5926,4.4591,4.3427,4.4199,4.3815,4.346,4.3596,4.1341,3.972,4.0188,3.8831,3.803,3.9047,3.8112,3.7407,3.7506,0.0,0.0,3.6162,3.6343,3.5681,3.366,3.4463,3.4528,3.3615,3.3586,3.3586,3.3586,3.3644,3.331,3.2629,3.2687,3.3035,3.3652,3.4413,3.442,0.0,0.0,0.0,0.0,0.0,0.0,0.0,0.0,0.0,0.0,0.0,0.0,0.0,0.0,0.0,4.5182,4.8357,5.1648,5.4996,5.6122,5.6389,5.5888,5.6475,5.7016,5.7493,5.8243,5.7909,5.6183,5.7565,5.813,5.7227,5.7614,5.7956,5.8183,5.7623,5.7474,5.7953,5.6808,5.6515,5.7066,0.0,0.0,5.6146,5.516,5.4052,5.3018,5.2146,5.0973,4.9726,4.9567,4.9215,4.8635,4.6695,4.6448,4.7058,4.61,4.5715,4.5654,4.5135,4.4952,4.4861,4.4388,4.419,4.4067,4.4067,4.4143,0.0,4.4067,4.4266,4.4662,4.5332,4.5624,4.5913,4.6722,4.6478,4.6158,4.6422,4.5733,4.5142,4.5302,4.5332,4.5266,4.5167,4.4197,4.3102,4.2267,4.2229,4.182,4.0399,4.0411,4.0318,3.9695,3.9254,3.8602,3.7691,3.6917,3.5681,3.3791,3.3287,3.2961,3.2751,3.2751,3.2751,3.2751,3.3274,3.3478,3.3296,3.379,3.4109,3.4225,3.3885,3.3914,0.0,0.0,0.0,0.0,0.0,0.0,0.0,0.0,0.0,0.0,0.0,3.9321,0.0,0.0,4.6592,4.8895,5.2085,5.5074,5.7438,5.8603,5.8927,5.8121,5.8656,5.8934,5.8428,5.8917,5.8932,5.8032,5.8423,5.8871,5.9231,5.8903,5.8905,5.9429,5.8626,5.8264,5.8336,5.754,5.7146,5.7243,5.6514,5.6349,5.6647,5.5189,5.427,5.3825,5.2744,5.1834,5.1027,5.0352,5.0352,5.0627,4.8889,4.8097,4.7836,4.7043,4.6422,4.6066,4.6097,4.5665,4.511,4.5534,4.5391,4.511,4.5258,4.5551,4.5769,4.5447,4.5665,4.6056,4.6512,4.6652,4.6892,4.7267,4.7141,4.6979,4.7111,4.6584,4.6154,4.6251,4.6281,4.6245,4.5755,4.5689,4.5105,4.3425,4.2558,4.1656,4.0615,4.0478,4.027,3.9809,3.9365,3.8772,3.8151,3.688,3.571,3.4698,3.3885,3.347,3.347,3.347,3.347,3.347,3.379,3.3935,3.3935,3.4254,3.4399,3.4399,3.408,3.4109,0.0,0.0,0.0,0.0,0.0,0.0,0.0,0.0,3.7272,3.9108,4.1055,4.294,4.4558,4.7806,5.0936,5.2993,5.5831,5.8111,5.9296,6.0074,6.0263,5.9621,6.0071,6.0096,5.9133,5.8955,5.9164,5.9761,5.8668,5.88,6.0589,5.9562,5.9231,5.9993,5.9429,5.8899,5.8436,5.8171,5.7707,5.7111,5.6249,5.6051,5.6415,5.4659,5.403,5.4229,5.2937,5.2373,5.2302,5.1401,5.1549,5.2302,5.122,4.9923,4.8686,4.8089,4.737,4.6809,4.7247,4.6608,4.5809,4.6792,4.6725,4.6176,4.6262,4.6722,4.7167,4.655,4.6929,4.747,4.747,4.7537,4.7537,4.7537,4.7537,4.7604,4.7704,4.7309,4.688,4.7106,4.7106,4.6908,4.6311,4.6609,4.6253,4.4397,4.2648,4.1403,4.1174,4.0593,4.0102,3.9625,3.9113,3.8652,3.8281,3.6862,3.5977,3.5878,3.5088,3.467,3.4603,3.4486,3.4399,3.4399,3.4399,3.4399,3.4399,3.4545,3.4603,3.4603,3.4719,3.4719,3.1859,3.229,3.3178,3.3969,3.4876,3.6441,0.0,0.0,4.1113,4.3464,4.5703,4.7843,4.962,5.2934,5.6099,5.8152,5.9727,6.1153,6.2199,6.187,6.1329,6.0929,6.0185,5.9914,6.0736,5.9646,5.8933,5.9032,5.8866,5.8866,5.9131,5.8999,5.9231,5.9993,5.9926,6.0158,6.0721,5.9429,5.8734,5.8634,5.7243,5.6282,5.5719,5.5487,5.4692,5.35,5.2705,5.2373,5.2373,5.2302,5.2302,5.2373,5.2197,5.1948,5.1557,5.1312,5.1173,5.101,5.0456,4.9985,4.9588,4.86,4.8144,4.7809,4.7225,4.7267,4.7403,4.7167,4.7267,4.747,4.747,4.7604,4.7704,4.7704,4.777,4.7935,4.7935,4.7934,4.7868,4.7868,4.7868,4.7868,4.7769,4.7272,4.6609,4.5719,4.5332,4.4784,4.3493,4.3267,4.2487,4.0608,4.0278,3.9764,3.8522,3.7526,3.6931,3.6792,3.5966,3.5477,3.5339,3.4719,3.4399,3.4399,3.4399,3.4399,3.4399,3.498,3.527,3.527,3.5822,3.5793,3.4091,3.4485,3.5356,0.0,3.8093,4.0304,4.2485,4.3677,4.5161,4.8152,5.011,5.1867,5.4116,5.6762,5.8841,0.0,6.1184,6.2167,6.2151,6.1327,6.037,5.9282,5.8082,5.7723,5.9018,5.8601,5.8237,5.8237,5.8668,5.8899,5.8899,5.8899,5.9231,5.9993,5.9993,5.9926,5.9827,5.9198,5.8469,5.7608,5.6978,5.6316,5.562,5.5189,5.4195,5.2804,5.2506,5.2373,5.2373,5.2373,5.2373,5.2373,5.2373,5.2373,5.223,5.2013,5.1605,5.1172,5.127,5.0674,4.9954,4.9829,4.9104,4.8351,4.8158,4.7933,4.7604,4.7671,4.7737,4.7803,4.7803,4.7869,4.7869,4.7869,4.7935,4.8001,4.8001,4.8001,4.8001,4.8001,4.8001,4.8001,4.8001,4.7736,4.7438,4.7139,4.6026,4.5016,4.4399,4.3256,4.1685,3.9534,3.9637,3.9395,3.8311,3.7831,3.7541,3.7328,3.6499,3.5834,3.5456,3.5473,3.5183,3.4428,3.4777,3.498,3.498,3.5241,3.5561,3.5909,3.617,3.6373,3.5821,0.0,0.0,3.8928,4.1288,4.3817,4.592,4.7468,4.9413,5.2776,5.4348,5.5709,5.7529,5.9516,6.0761,6.0761,6.1957,6.2606,6.1662,6.0304,5.8833,5.7376,5.5554,5.499,5.6448,5.6945,5.7342,5.7773,5.8104,5.8369,5.8601,5.8601,5.8833,5.9363,5.9794,5.9761,5.9198,5.9198,5.8568,5.7276,5.7077,5.6514,5.5587,5.4659,5.3665,5.2672,5.2473,5.2373,5.2373,5.2373,5.2373,5.2373,5.2373,5.2373,5.2373,5.223,5.1756,5.1218,5.1743,5.1251,5.0326,5.0725,5.0134,4.9145,4.9085,4.8726,4.8397,4.8464,4.8398,4.8299,4.8299,4.8166,4.8001,4.8001,4.8001,4.8001,4.8001,4.8001,4.8001,4.8001,4.8001,4.8001,4.8001,4.8001,4.8001,4.8001,4.6684,4.5604,4.5408,4.35,4.1472,3.9718,3.9643,3.9427,3.8775,3.8453,3.8119,3.7974,3.7142,3.6445,3.5909,3.617,3.588,3.4951,3.5386,3.5619,3.5619,3.5822,3.6141,3.6577,3.6751,3.7099,0.0,0.0,3.9616,4.2,4.4098,4.6664,5.0608,5.2337,5.4052,5.6994,5.8382,5.9194,5.9467,6.0935,6.2094,6.2094,6.2808,6.2808,6.13,5.9264,5.7309,5.5852,5.3169,5.1976,0.0,5.4858,5.6282,5.7674,5.7144,5.7077,5.7806,5.7806,5.7839,5.7873,5.9264,5.9993,5.996,5.996,5.9595,5.8833,5.8104,5.7011,5.5587,5.4129,5.3434,5.3334,5.2672,5.2373,5.2373,5.2373,5.2373,5.2373,5.2373,5.2373,5.2373,5.2373,5.2373,5.234,5.2373,5.2197,5.1921,5.1442,5.1107,5.0801,5.0076,5.0017,5.0052,4.9915,4.9488,4.9094,4.9094,4.8531,4.8001,4.8001,4.8001,4.8001,4.8001,4.8001,4.8001,4.8001,4.8001,4.8001,4.8001,4.8001,4.8001,4.8001,4.7968,4.7669,4.6941,4.4911,4.3231,4.2386,4.114,4.0367,4.0337,3.9519,3.8987,3.8767,3.8032,3.7463,3.7244,3.6635,3.6286,3.6257,3.6257,3.6286,3.6286,3.6925,3.7244,3.7302,3.7883,3.8144,3.9987,0.0,4.3817,4.835,5.0668,5.2728,5.6182,5.7058,5.7743,5.9388,5.8184,5.7069,5.7899,5.8051,5.8452,5.9418,6.0455,6.092,6.0456,5.8469,5.6183,5.3765,5.2605,0.0,0.0,0.0,0.0,5.6249,5.7011,5.7541,5.7773,5.827,5.8734,5.9231,5.9761,5.9761,5.9264,5.9264,5.8634,5.7409,5.6216,5.5355,5.4825,5.34,5.2738,5.2705,5.2473,5.2373,5.2373,5.2373,5.2373,5.2373,5.2373,5.2373,5.2373,5.2373,5.2373,5.2373,5.2373,5.2373,5.2269,5.2075,5.1678,5.1144,5.0913,5.0516,5.022,5.0152,4.9953,4.9856,4.9856,4.9657,4.9458,4.9458,4.9458,4.9326,4.8829,4.873,4.8597,4.81,4.8001,4.8001,4.8001,4.8001,4.8001,4.8001,4.8001,4.7375,4.5653,4.4814,4.3466,4.1304,4.1055,4.0516,3.917,3.9387,3.9166,3.8207,3.8062,3.7783,3.7331,3.7476,3.7157,3.6315,3.6751,3.6983,3.6983,3.7186,3.7506,3.7883,3.7709,3.7622,4.355,4.5384,4.7583,5.2842,5.5043,5.6634,5.9441,5.9916,5.9799,5.9979,5.7953,5.6084,5.5696,5.5202,5.5241,5.6359,5.723,5.7963,5.8495,5.6668,5.4675,5.2937,5.2307,5.181,0.0,0.0,0.0,5.5487,5.6713,5.7508,5.7773,5.8734,5.9396,5.9595,6.0125,5.9926,5.8899,5.9164,5.8535,5.7077,5.5885,5.5156,5.4858,5.3699,5.3003,5.2738,5.2473,5.2373,5.2373,5.2373,5.2373,5.2373,5.2373,5.2373,5.2373,5.2373,5.2373,5.2373,5.2373,5.2373,5.2373,5.2373,5.2075,5.1678,5.1678,5.1347,5.0982,5.0982,5.0783,5.0585,5.0585,5.0419,5.022,5.022,5.022,5.0088,4.9624,4.9293,4.8961,4.8498,4.8166,4.8001,4.8001,4.8001,4.8001,4.8001,4.777,4.6971,4.531,4.5033,4.4112,4.1686,4.1624,4.1115,3.9589,3.9743,3.9402,3.8237,3.8267,3.8103,3.7651,3.7999,3.7825,3.6983,3.7418,3.7622,3.7622,3.7622,3.7709,3.7883,3.7476,3.7186,4.7099,4.9004,5.0999,5.5849,5.7312,5.8293,6.0674,6.0806,6.0229,5.8937,5.7576,5.5843,0.0,0.0,5.2671,5.3112,5.3679,5.4573,5.6077,5.4367,5.3194,0.0,0.0,0.0,0.0,0.0,0.0,5.5521,0.0,5.7044,5.7873,5.9264,5.9728,5.9032,6.039,6.039,5.8899,5.9529,5.9131,5.774,5.6978,5.6249,5.5554,5.4792,5.4063,5.3334,5.2672,5.2373,5.2373,5.2373,5.2373,5.2373,5.2373,5.2373,5.2373,5.2373,5.2373,5.2373,5.2373,5.2373,5.2373,5.2373,5.2373,5.2373,5.2373,5.2373,5.2373,5.2373,5.1877,5.1347,5.1347,5.0817,5.032,5.032,5.032,5.032,5.0286,4.9723,4.9193,4.9127,4.8498,4.8001,4.8001,4.8001,4.8001,4.8001,4.7337,4.655,4.5769,4.5697,4.5036,4.3488,4.2791,4.2132,4.1384,4.0636,3.9728,3.8767,3.8546,3.8397,3.8144,3.8115,3.8115,3.8144,3.8144,3.8173,3.8202,3.8202,3.7912,3.736,3.7273,3.6925,5.2419,5.5184,5.7868,6.1365,6.166,6.1406,6.29,6.0758,5.7997,5.6279,5.2401,4.9001,0.0,0.0,0.0,5.1225,5.4104,0.0,5.7997,5.7266,0.0,5.5156,0.0,5.3467,5.2937,5.3533,0.0,0.0,5.6581,5.7475,5.933,6.0324,6.0755,6.0556,6.092,6.039,5.8899,5.8005,5.7342,5.6945,5.6249,5.5521,5.4792,5.403,5.3301,5.2638,5.244,5.2373,5.2373,5.2373,5.2373,5.2373,5.2373,5.2373,5.2373,5.2373,5.2373,5.2373,5.2373,5.2373,5.2373,5.2373,5.2373,5.2373,5.2373,5.2373,5.2373,5.2373,5.2241,5.2108,5.2108,5.1976,5.1843,5.1843,5.1843,5.1678,5.1115,5.085,5.0386,4.9326,4.8498,4.8001,4.8001,4.8001,4.8001,4.8001,4.7337,4.655,4.5769,4.5184,4.4434,4.3409,4.318,4.2432,4.0786,4.0815,4.0054,3.8178,3.7944,3.7755,3.7535,3.7041,3.7012,3.7535,3.7535,3.7767,3.8202,3.8202,3.8115,3.7941,3.7012,3.646,5.6924,5.9348,6.1137,6.3959,6.3356,6.1886,6.1357,5.88,5.558,5.2434,4.8866,0.0,0.0,0.0,0.0,0.0,0.0,0.0,5.7376,5.731,5.69,0.0,5.5918,0.0,5.446,5.5057,5.5951,0.0,5.7177,5.8005,5.9893,6.0721,6.1119,6.1119,6.1119,6.039,5.8899,5.7442,5.668,5.668,5.6282,5.5554,5.4527,5.4427,5.3665,5.2407,0.0,5.2672,5.2373,5.2373,5.2373,5.2373,5.2373,5.2373,5.2373,5.2373,5.2373,5.2373,5.2373,5.2373,5.2373,5.2373,5.2373,5.2373,5.2373,5.2373,5.2373,5.2373,5.2373,5.2373,5.2373,5.2373,5.2373,5.2373,5.2142,5.1777,5.138,5.1048,5.0485,4.9326,4.8498,4.8001,4.8001,4.8001,4.8001,4.8001,4.7337,4.655,4.5769,4.5036,4.4205,4.3409,4.3329,4.2761,4.1384,4.1547,4.0783,3.8797,3.8635,3.8179,3.7331,3.6954,3.678,3.6867,3.7157,3.7331,3.736,3.768,3.7506,3.6925,3.6228,3.5735,6.0787,6.2242,6.2825,6.4668,6.3318,6.0782,5.819,5.5713,5.2767,4.8259,0.0,4.4988,4.3663,4.4606,4.6133,4.7971,0.0,5.3001,5.6037,5.6304,5.6621,5.7984,5.7342,5.6614,5.6117,5.6614,5.7276,5.8038,5.8071,5.8701,6.0092,6.0755,6.1119,6.1119,6.092,6.0191,5.8899,5.7442,5.668,5.668,5.668,5.5984,5.4692,5.5222,5.4394,5.2539,5.3069,5.2937,5.2373,5.2373,5.2373,5.2373,5.2373,5.2373,5.2373,5.2373,5.2373,5.2373,5.2373,5.2373,5.2373,5.2373,5.2373,5.2373,5.2373,5.2373,5.2373,5.2373,5.2373,5.2373,5.2373,5.2373,5.2373,5.2373,5.1877,5.1413,5.1413,5.085,5.0121,4.9392,4.8663,4.81,4.8034,4.8001,4.8001,4.8001,4.7337,4.655,4.5769,4.5036,4.4205,4.3409,4.3329,4.306,4.2402,4.2372,4.168,4.0005,3.977,3.8927,3.7476,3.7273,3.6896,3.6315,3.6867,3.6896,3.6315,3.6896,3.6606,3.5503,3.5485,3.5067,6.3902,6.5318,6.6021,6.5045,6.253,5.9564,5.6911,5.2761,0.0,0.0,4.3761,4.2176,4.1533,4.3477,4.5976,4.8342,0.0,0.0,0.0,0.0,5.7354,0.0,0.0,0.0,0.0,0.0,0.0,0.0,0.0,5.9993,6.0854,6.1053,6.1119,6.1119,5.9926,5.9164,5.8899,5.7442,5.668,5.668,5.668,5.6249,5.5421,5.4924,5.4162,5.3202,5.2738,0.0,5.2373,5.2373,5.2373,5.2373,5.2373,5.2373,5.2373,5.2373,5.2373,5.2373,5.2373,5.2373,5.2373,5.2373,5.2373,5.2373,5.2373,5.2373,5.2373,5.2373,5.2373,5.2373,5.2373,5.2373,5.2373,5.2373,5.2274,5.2175,5.2175,5.1612,5.0883,5.0154,4.9425,4.873,4.81,4.8001,4.8001,4.8001,4.7337,4.655,4.5769,4.5036,4.4205,4.3409,4.3329,4.306,4.2402,4.2186,4.1626,4.0731,3.9442,3.8514,3.8057,3.7041,3.6431,3.6315,3.6431,3.6431,3.6315,3.6431,3.6373,3.6141,3.5619,3.5369,6.5933,6.6872,6.6602,6.5614,6.1982,5.7793,5.4673,0.0,0.0,0.0,4.1934,4.1174,4.094,0.0,0.0,0.0,0.0,0.0,0.0,0.0,0.0,0.0,0.0,0.0,0.0,0.0,0.0,0.0,0.0,6.0721,6.1086,6.1119,6.092,6.0556,5.9463,5.8701,5.8336,5.7243,5.668,5.668,5.668,5.6316,5.562,5.5256,5.4494,5.34,5.3069,0.0,5.2373,5.2373,5.2373,5.2373,5.2373,5.2373,5.2373,5.2373,5.2373,5.2373,5.2373,5.2373,5.2373,5.2373,5.2373,5.2373,5.2373,5.2373,5.2373,5.2373,5.2373,5.2373,5.2373,5.2373,5.2373,5.2373,5.181,5.1347,5.1711,5.0618,4.969,5.0121,4.9293,4.8431,4.8067,4.8001,4.8001,4.8001,4.7704,4.7134,4.641,4.5953,4.5079,4.3488,4.3329,4.313,4.2723,4.2614,4.208,4.1146,4.0129,3.9156,3.8231,3.7331,3.6519,3.5822,3.6141,3.5967,3.5328,3.5648,3.5822,3.5793,3.5503,3.5532,6.7066,6.746,6.635,6.5772,6.1225,5.5996,5.2471,4.8192,0.0,0.0,4.0918,4.0918,4.0918,0.0,4.406,0.0,0.0,0.0,0.0,0.0,0.0,0.0,0.0,0.0,0.0,0.0,0.0,0.0,0.0,0.0,6.1086,6.0953,6.0622,6.0026,5.9131,5.8369,5.7806,5.7044,5.668,5.668,5.668,5.6316,5.562,5.5454,5.4659,5.34,5.3268,0.0,5.2373,5.2373,5.2373,5.2373,5.2373,5.2373,5.2373,5.2373,5.2373,5.2373,5.2373,5.2373,5.2373,5.2373,5.2373,5.2373,5.2373,5.2373,5.2373,5.2373,5.2373,5.2373,5.2373,5.2373,5.2373,5.2373,5.1512,5.085,5.138,5.0021,4.8995,5.0021,4.916,4.8199,4.8034,4.8001,4.8001,4.8001,4.8001,4.7704,4.6896,4.6666,4.573,4.3482,4.3476,4.3379,4.3061,4.301,4.2613,4.1712,4.1017,4.0071,3.887,3.8115,3.7099,3.5793,3.6112,3.5764,3.4632,3.5125,3.5444,3.5561,3.5561,3.5822,6.6582,6.6907,6.6089,6.425,5.9661,5.4543,5.096,0.0,0.0,4.1257,4.1,4.1047,4.0918,4.1821,0.0,0.0,0.0,4.7869,0.0,0.0,0.0,0.0,0.0,0.0,0.0,0.0,0.0,0.0,0.0,0.0,6.1086,6.0456,6.0059,5.9993,5.8634,5.7873,5.7806,5.7044,5.668,5.668,5.668,5.6316,5.562,5.4924,5.4162,5.3367,5.2738,0.0,0.0,5.2373,5.2373,5.2373,5.2373,5.2373,5.2373,5.2373,5.2373,5.2373,5.2373,5.2373,5.2373,5.2373,5.2373,5.2373,5.2373,5.2373,5.2373,5.2373,5.2373,5.2373,5.2373,5.2373,5.2373,5.2373,5.2274,5.2208,5.2274,5.1578,5.0817,5.032,4.9558,4.8796,4.8133,4.8001,4.8001,4.8001,4.8001,4.7704,4.6896,4.6245,4.5138,4.3407,4.3914,4.4082,4.3329,4.293,4.2659,4.26,4.1609,4.096,4.0844,3.9683,3.8434,3.7157,3.6577,3.5967,3.527,3.5328,3.5648,3.6228,3.6228,3.6257,6.4276,6.5638,6.5404,6.3612,5.8642,5.3473,5.0524,0.0,4.1989,4.1099,4.1,4.1047,4.0918,4.1348,4.2055,4.3097,4.2737,0.0,4.8889,0.0,0.0,0.0,0.0,0.0,0.0,0.0,0.0,0.0,0.0,0.0,6.0423,5.9728,5.9131,5.8701,5.8104,5.7574,5.7144,5.6846,5.668,5.668,5.668,5.6316,5.5587,5.4858,5.4129,5.3367,5.2672,0.0,0.0,5.2373,5.2373,5.2373,5.2373,5.2373,5.2373,5.2373,5.2373,5.2373,5.2373,5.2373,5.2373,5.2373,5.2373,5.2373,5.2373,5.2373,5.2373,5.2373,5.2373,5.2373,5.2373,5.2373,5.2373,5.2373,5.2042,5.1843,5.2274,5.1446,5.0684,5.0817,4.9922,4.9028,4.873,4.8299,4.8001,4.8001,4.8001,4.7836,4.7404,4.7075,4.6313,4.4756,4.4153,4.3442,4.2416,4.2693,4.2769,4.2555,4.1748,4.1062,4.0525,4.0002,3.8957,3.7331,3.7389,3.6954,3.5938,3.5938,3.6257,3.6896,3.6896,3.7099,6.0499,6.2932,6.3616,6.1906,5.7107,5.215,0.0,0.0,4.1458,4.0995,4.1,4.1047,4.1,4.1105,4.1337,4.1834,4.1336,4.2279,4.6281,0.0,0.0,0.0,0.0,0.0,0.0,0.0,0.0,0.0,0.0,0.0,5.9363,5.8634,5.8104,5.7806,5.7574,5.721,5.668,5.668,5.6581,5.6382,5.6382,5.5885,5.4957,5.4427,5.3798,5.3069,5.2605,0.0,0.0,5.2373,5.2373,5.2373,5.2373,5.2373,5.2373,5.2373,5.2373,5.2373,5.2373,5.2373,5.234,5.2142,5.2042,5.2009,5.181,5.2042,5.234,5.2108,5.2208,5.2373,5.2373,5.2373,5.2373,5.2373,5.181,5.1413,5.1943,5.0916,5.0088,5.0817,4.979,4.8862,4.9061,4.8498,4.8001,4.8001,4.7935,4.7869,4.7704,4.744,4.6846,4.5484,4.4323,4.3174,4.2234,4.2367,4.2482,4.2392,4.1872,4.1324,4.0699,4.0495,3.9683,3.8173,3.8376,3.797,3.6867,3.6867,3.7099,3.7564,3.7564,3.7796,5.5208,5.83,6.042,5.8671,5.4602,5.0416,0.0,0.0,4.1458,4.0995,4.1,4.1093,4.1093,4.1152,4.1209,4.1209,4.2497,4.388,4.5129,0.0,0.0,0.0,0.0,0.0,0.0,0.0,0.0,0.0,0.0,0.0,5.7806,5.7111,5.7044,5.7773,5.7077,5.668,5.668,5.668,5.6316,5.5653,5.5653,5.4858,5.3434,5.3434,5.3036,5.2407,0.0,0.0,0.0,5.2373,5.2373,5.2373,5.2373,5.2373,5.2373,5.2373,5.2373,5.2373,5.2373,5.2373,5.2274,5.1512,5.128,5.1148,5.0452,5.1247,5.2241,5.1512,5.181,5.2373,5.2373,5.2373,5.2373,5.2373,5.181,5.128,5.128,5.0154,4.9326,5.0088,4.9028,4.8233,4.8995,4.8498,4.8001,4.8001,4.7869,4.7704,4.7704,4.698,4.6025,4.5112,4.4437,4.3826,4.3135,4.2079,4.169,4.2363,4.2257,4.2092,4.2063,4.1424,4.0757,4.0089,3.9479,3.887,3.8173,3.8173,3.8173,3.8202,3.8202,3.8202,4.9516,5.2382,5.4072,5.2644,5.0259,4.7652,4.5456,0.0,4.0913,4.0215,4.0678,4.1152,4.1093,4.1198,4.1555,4.2079,4.2568,4.3441,0.0,0.0,0.0,0.0,0.0,0.0,0.0,0.0,0.0,0.0,0.0,0.0,5.7806,5.7574,5.7309,5.7044,5.6812,5.6448,5.5951,5.5951,5.5587,5.4858,5.4858,5.4361,5.34,5.34,5.3036,0.0,0.0,0.0,5.2373,5.2373,5.2373,5.2373,5.2373,5.2373,5.2373,5.2373,5.2373,5.2373,5.2373,5.2373,5.2274,5.1512,5.128,5.1148,5.0419,5.0883,5.1678,5.1943,5.2208,5.2373,5.2373,5.2373,5.2241,5.1744,5.1843,5.1877,5.138,5.1313,5.1413,5.1645,5.0518,4.9591,4.9823,4.926,4.8763,4.8763,4.8696,4.8529,4.8294,4.7636,4.678,4.5856,4.4605,4.3357,4.2196,4.2349,4.2246,4.177,4.2076,4.2053,4.1424,4.1657,4.125,4.0118,4.035,3.9973,3.8899,3.9305,3.9276,3.8899,3.8899,3.8638,0.0,4.7234,4.9094,4.8089,4.654,0.0,0.0,0.0,4.0331,3.9848,4.0504,4.1152,4.1233,4.129,4.16,4.21,4.2706,0.0,0.0,0.0,0.0,0.0,0.0,0.0,0.0,0.0,0.0,0.0,0.0,0.0,5.6978,5.6978,5.6647,5.5885,5.6415,5.6349,5.562,5.562,5.5123,5.4096,5.4096,5.3732,5.3036,5.3036,5.2771,0.0,0.0,5.2373,0.0,5.2373,5.2373,5.2373,5.2373,5.2373,5.2373,5.2373,5.2373,5.2373,5.2373,5.2373,5.2208,5.1214,5.0684,5.0485,5.0585,5.0916,5.1413,5.2175,5.2373,5.2373,5.2373,5.2373,5.2274,5.181,5.1843,5.1843,5.138,5.1413,5.1645,5.191,5.1015,5.0286,5.0585,4.979,4.9094,4.9094,4.8795,4.8463,4.8193,4.7664,4.7139,4.648,4.5295,4.406,4.2921,4.2271,4.176,4.1381,4.1712,4.1674,4.1105,4.1744,4.1715,4.0873,4.125,4.096,3.9915,4.0031,3.9915,3.9538,3.9538,3.9305,0.0,4.2756,4.5009,0.0,0.0,0.0,0.0,0.0,0.0,3.9801,4.0504,4.1186,4.138,4.1426,4.1471,4.163,0.0,0.0,0.0,0.0,0.0,0.0,0.0,0.0,0.0,0.0,0.0,0.0,0.0,0.0,5.5653,5.562,5.5289,5.4527,5.5819,5.6183,5.5487,5.5454,5.4759,5.3334,5.3334,5.3003,5.2373,5.2373,5.2373,0.0,0.0,5.2373,5.2373,5.2373,5.2373,5.2373,5.2373,5.2373,5.2373,5.2373,5.2373,5.2373,5.2373,5.2373,5.2142,5.075,4.979,4.9458,5.085,5.128,5.1413,5.2108,5.234,5.2373,5.2307,5.234,5.2373,5.2307,5.181,5.1347,5.128,5.0783,5.0551,5.1214,5.0783,5.0485,5.1148,5.0154,4.926,4.926,4.8464,4.7802,4.7634,4.74,4.7098,4.6961,4.6245,4.5488,4.4833,4.2222,4.077,4.1235,4.1254,4.1157,4.1186,4.1657,4.2005,4.2092,4.2063,4.1744,4.1163,4.0437,4.0118,4.0176,4.0176,4.0147,3.7024,0.0,3.9282,3.9303,3.9397,3.9272,0.0,0.0,0.0,0.0,0.0,4.1209,4.138,4.1471,4.177,0.0,0.0,0.0,0.0,0.0,0.0,0.0,0.0,0.0,0.0,0.0,0.0,0.0,0.0,5.6382,5.5653,5.562,5.5289,5.4527,5.4858,5.4659,5.393,5.393,5.35,5.2638,5.2638,5.2539,5.2373,5.2373,5.2373,0.0,0.0,5.2373,5.2373,5.2373,5.2373,5.2373,5.2373,5.2373,5.2373,5.2373,5.2373,5.2373,5.2373,5.2373,5.2241,5.1313,5.0551,5.0121,5.1015,5.128,5.1313,5.1479,5.1943,5.2241,5.1678,5.1943,5.2241,5.1678,5.1843,5.1976,5.1413,5.1578,5.191,5.2075,5.1545,5.1082,5.1247,5.0982,5.0681,5.0575,5.0017,4.9453,4.8936,4.7988,4.7267,4.6961,4.6245,4.5724,4.5588,4.4338,4.3211,4.2291,4.2046,4.1971,4.1922,4.1046,4.1047,4.2063,4.1599,4.1512,4.186,4.067,4.035,4.0873,4.0873,4.0583,3.6182,3.65,3.681,3.6939,3.7292,3.7543,3.7128,0.0,0.0,0.0,0.0,4.0961,4.1401,4.1111,0.0,0.0,0.0,0.0,0.0,0.0,0.0,0.0,0.0,0.0,0.0,0.0,0.0,0.0,0.0,5.6216,5.5156,5.5123,5.4626,5.3566,5.3533,5.35,5.34,5.34,5.3069,5.2373,5.2373,5.2373,5.2373,5.2373,5.2373,0.0,5.2373,5.2175,5.1877,5.1877,5.1678,5.138,5.138,5.138,5.1413,5.1744,5.1877,5.191,5.2274,5.1943,5.138,5.1313,5.0551,4.9889,5.0949,5.128,5.1347,5.1678,5.2075,5.2274,5.1877,5.2075,5.2274,5.1877,5.2075,5.2274,5.1877,5.2108,5.2373,5.2373,5.2042,5.1777,5.1777,5.1442,5.114,5.0999,5.0406,4.9772,4.9388,4.8735,4.8115,4.7443,4.7054,4.6666,4.6309,4.5934,4.477,4.2677,4.2414,4.2063,4.1338,4.1163,4.1418,4.2063,4.1744,4.1744,4.2092,4.1366,4.1192,4.1541,4.1541,4.1366,3.6191,3.6354,3.6457,3.631,3.6402,3.6444,3.652,0.0,0.0,0.0,0.0,0.0,0.0,0.0,0.0,0.0,0.0,0.0,0.0,0.0,0.0,0.0,0.0,0.0,0.0,0.0,0.0,0.0,0.0,5.5786,5.4427,5.4361,5.3765,5.2407,5.2373,5.2605,5.3069,5.3202,5.297,5.2373,5.2373,5.2373,5.2373,5.2274,5.2208,5.2208,0.0,0.0,5.1115,5.1115,5.075,5.022,5.022,5.022,5.0286,5.0883,5.1115,5.1214,5.1943,5.1347,5.032,5.1048,5.0386,4.9525,5.0883,5.1347,5.1578,5.2208,5.2373,5.234,5.2241,5.2307,5.2373,5.2373,5.2373,5.2373,5.2373,5.2373,5.2373,5.2373,5.2373,5.2302,5.2302,5.1663,5.1092,5.1092,5.0326,4.9654,4.944,4.9343,4.905,4.822,4.8058,4.7767,4.7119,4.6957,4.5846,4.3214,4.2872,4.1985,4.0367,4.1352,4.1942,4.1947,4.1947,4.2005,4.2092,4.2092,4.2092,4.2092,4.2092,4.2092,3.6069,3.7075,3.7627,3.6586,3.6318,3.636,3.6444,0.0,0.0,0.0,0.0,0.0,0.0,0.0,0.0,0.0,0.0,0.0,0.0,0.0,0.0,0.0,0.0,0.0,0.0,0.0,0.0,0.0,0.0,5.4494,5.3632,5.3599,5.3202,5.2407,5.2373,5.2142,5.1612,5.2241,5.2473,5.2373,5.2373,5.2373,5.2373,5.1744,5.1446,5.1413,0.0,5.0485,5.0386,5.0386,5.032,5.022,5.022,5.022,5.022,5.0353,5.0386,5.0485,5.1181,5.0916,5.032,5.1048,5.0717,5.0187,5.1015,5.1711,5.2241,5.234,5.2373,5.2241,5.1612,5.191,5.2373,5.2373,5.2373,5.2373,5.2373,5.2373,5.2373,5.2158,5.2191,5.2086,5.1941,5.1769,5.1631,5.1484,5.0936,5.0373,5.001,4.9563,4.9213,4.8868,4.835,4.7961,4.7831,4.7249,4.6403,4.5398,4.4172,4.2528,4.0367,4.04,4.0712,4.1221,4.125,4.1541,4.2092,4.2092,4.2092,4.2092,4.2092,4.2092,3.6069,3.675,3.7109,3.6791,3.7295,3.7627,0.0,0.0,0.0,0.0,0.0,0.0,0.0,0.0,0.0,0.0,0.0,0.0,0.0,0.0,0.0,0.0,0.0,0.0,0.0,0.0,0.0,0.0,0.0,0.0,5.3467,5.34,5.2904,5.181,5.1777,5.1446,5.0717,5.1048,5.1413,5.1777,5.138,5.1413,5.1744,5.1015,5.0717,5.0684,0.0,4.9988,4.9624,4.9624,4.9392,4.9028,4.9028,4.9028,4.9061,4.9458,4.9856,5.0253,5.0585,5.022,4.9723,5.0452,5.022,4.9823,5.0949,5.1512,5.1877,5.2274,5.2373,5.2307,5.1943,5.2142,5.2373,5.2373,5.2373,5.2373,5.2373,5.2373,5.2302,5.2158,5.2119,5.2013,5.1868,5.1721,5.1573,5.1499,5.1206,5.0904,5.0681,5.0464,5.0107,4.9645,4.8965,4.8414,4.8026,4.7313,4.6407,4.5338,4.3862,4.2435,4.0994,4.0785,4.0852,4.1076,4.1453,4.1773,4.2092,4.2092,4.2092,4.2092,4.2092,4.2092,3.5759,3.6241,3.6535,3.6771,0.0,0.0,0.0,0.0,0.0,0.0,0.0,0.0,0.0,0.0,0.0,0.0,0.0,0.0,0.0,0.0,0.0,0.0,0.0,0.0,0.0,0.0,0.0,0.0,0.0,0.0,5.297,5.2904,5.234,5.1082,5.1015,5.0684,4.9955,4.9955,5.032,5.1015,5.0485,5.0485,5.1015,5.0286,4.9955,4.9955,4.9756,4.9359,4.8862,4.8862,4.8498,4.8001,4.8001,4.8001,4.8067,4.863,4.9326,4.9955,4.9955,4.9591,4.9193,4.9756,4.9558,4.9359,5.0651,5.1015,5.1214,5.2108,5.2274,5.2175,5.234,5.2373,5.2373,5.2373,5.2373,5.2373,5.2373,5.2373,5.2302,5.2158,5.2013,5.1941,5.1794,5.1573,5.1424,5.1424,5.1275,5.1199,5.1199,5.1199,5.0973,5.0422,4.9548,4.8673,4.7831,4.7216,4.6273,4.4812,4.3368,4.2334,4.1853,4.1235,4.1067,4.1308,4.1686,4.1947,4.2092,4.2092,4.2092,4.2092,4.2092,4.2092,3.4829,3.6114,3.6785,3.6215,3.6285,0.0,3.9321,3.954,0.0,4.2773,0.0,0.0,0.0,0.0,0.0,0.0,0.0,0.0,0.0,0.0,0.0,0.0,0.0,0.0,0.0,0.0,0.0,0.0,0.0,0.0,5.1479,5.1413,5.1082,5.032,5.0286,4.9955,4.9193,4.9193,4.9558,5.0286,5.0253,5.0253,5.0253,4.9525,4.9193,4.916,4.8465,4.8133,4.8067,4.8067,4.8067,4.8001,4.8001,4.8001,4.8001,4.8067,4.8564,4.9193,4.9193,4.916,4.9127,4.916,4.916,4.926,5.0055,5.0286,5.0585,5.1976,5.1877,5.1512,5.2208,5.2373,5.2373,5.2373,5.2373,5.2373,5.2373,5.2373,5.2302,5.2158,5.1941,5.1794,5.1573,5.135,5.1199,5.1199,5.1199,5.1199,5.1199,5.1199,5.1167,5.1102,4.9872,4.8479,4.7087,4.6925,4.626,4.4693,4.3292,4.2767,4.3205,4.1288,4.0779,4.2005,4.1453,4.1482,4.2092,4.2092,4.2092,4.2092,4.2092,4.2092,3.4174,3.5385,3.6273,3.5966,3.6361,0.0,0.0,4.0355,4.1268,4.2668,0.0,0.0,0.0,0.0,0.0,0.0,0.0,0.0,0.0,0.0,0.0,0.0,0.0,0.0,0.0,0.0,0.0,0.0,0.0,0.0,5.0651,5.0618,5.0286,4.9558,4.9525,4.916,4.8431,4.8431,4.8564,4.8829,4.8829,4.9094,4.9491,4.8763,4.8431,4.8398,4.8133,4.8001,4.8001,4.8001,4.8001,4.8001,4.8001,4.8001,4.8001,4.8001,4.8166,4.8431,4.8431,4.8431,4.8498,4.8961,4.9094,4.926,4.9988,5.022,5.032,5.0883,5.1148,5.1446,5.2175,5.2373,5.2373,5.2373,5.2373,5.2373,5.2373,5.2373,5.2302,5.2013,5.1868,5.1721,5.135,5.1275,5.1199,5.1199,5.1199,5.1199,5.1199,5.0778,5.0519,5.0519,4.9224,4.7993,4.6957,4.6892,4.6454,4.5317,4.4369,4.3138,4.1533,4.1471,4.1204,4.0844,4.1424,4.1831,4.2092,4.2092,4.2092,4.2092,4.2092,4.2092,3.3642,3.4555,3.5386,3.598,0.0,0.0,4.0132,4.1485,4.2735,4.4339,0.0,0.0,0.0,0.0,0.0,0.0,0.0,0.0,0.0,0.0,0.0,0.0,0.0,0.0,0.0,0.0,0.0,0.0,0.0,0.0,0.0,4.9525,4.9293,4.8763,4.8763,4.8498,4.8001,4.8001,4.8001,4.8001,4.8001,4.8266,4.8763,4.8233,4.8001,4.8001,4.8001,4.8001,4.8001,4.8001,4.8001,4.8001,4.8001,4.8001,4.8001,4.8001,4.8001,4.8001,4.8001,4.8001,4.8067,4.8597,4.8763,4.8895,4.9657,4.969,4.9624,5.0088,5.0386,5.075,5.1512,5.2042,5.2373,5.2373,5.2373,5.2373,5.2373,5.2373,5.2302,5.1941,5.1868,5.1688,5.135,5.1275,5.1199,5.1199,5.1199,5.1199,5.1199,5.0746,5.026,4.9807,4.89,4.7929,4.6957,4.6892,4.6442,4.5405,4.4893,4.3519,4.1294,4.1852,4.1724,4.0728,4.1628,4.2092,4.2092,4.2092,4.2092,4.2092,4.2092,4.1976,3.3236,3.3755,3.426,0.0,0.0,0.0,4.2155,4.3105,4.4404,4.8297,0.0,0.0,0.0,0.0,0.0,0.0,0.0,0.0,0.0,0.0,0.0,0.0,0.0,0.0,0.0,0.0,0.0,0.0,0.0,0.0,0.0,4.8001,4.8001,4.8001,4.8001,4.8001,4.8001,4.8001,4.8001,4.7968,4.7968,4.8001,4.8001,4.8001,4.8001,4.8001,4.8001,4.8001,4.8001,4.8001,4.8001,4.8001,4.8001,4.8001,4.8001,4.8001,4.8001,4.8001,4.8001,4.8001,4.8001,4.8001,4.8001,4.8133,4.8862,4.8597,4.8299,4.979,4.9657,4.9293,5.0021,5.128,5.2373,5.2373,5.2373,5.2373,5.2373,5.2373,5.2302,5.2086,5.1941,5.1688,5.1499,5.135,5.1199,5.1199,5.1199,5.1167,5.1167,5.1167,5.0617,4.9159,4.8997,4.8447,4.7022,4.6892,4.623,4.4586,4.451,4.4128,4.3269,4.2526,4.2092,4.2063,4.2092,4.2092,4.2092,4.2092,4.2092,4.2092,4.2092,4.1744,3.22,3.327,0.0,0.0,0.0,0.0,0.0,4.2959,0.0,0.0,0.0,0.0,0.0,0.0,0.0,0.0,0.0,0.0,0.0,0.0,0.0,0.0,0.0,0.0,0.0,0.0,0.0,0.0,0.0,0.0,0.0,4.8001,4.8001,4.8001,4.8001,4.7736,4.7239,4.7239,4.6974,4.6444,4.6444,4.7007,4.8001,4.8001,4.8001,4.8001,4.8001,4.8001,4.8001,4.8001,4.8001,4.8001,4.8001,4.8001,4.8001,4.8001,4.8001,4.8001,4.8001,4.8001,4.8001,4.8001,4.8001,4.8034,4.8266,4.8166,4.81,4.8531,4.8862,4.916,4.9392,5.0154,5.0982,5.1479,5.1541,5.1399,5.1437,5.1295,5.1152,5.0968,5.0863,5.0953,5.1252,5.1275,5.1199,5.1199,5.1199,5.0811,4.9807,5.0098,4.9677,4.7734,4.7993,4.7929,4.6957,4.6892,4.6442,4.5405,4.4812,4.3472,4.1175,4.1762,4.1657,4.0699,4.1628,4.2092,4.2092,4.2092,4.2092,4.2092,4.2092,4.1744,3.2139,3.3337,0.0,0.0,0.0,0.0,0.0,0.0,0.0,0.0,0.0,0.0,0.0,0.0,0.0,0.0,0.0,0.0,0.0,0.0,0.0,0.0,0.0,0.0,0.0,0.0,0.0,0.0,0.0,0.0,0.0,4.6974,4.7139,4.7139,4.7404,4.7206,4.6477,4.6179,4.5947,4.5781,4.5483,4.598,4.7139,4.7139,4.7305,4.757,4.7868,4.8001,4.8001,4.8001,4.8001,4.8001,4.8001,4.8001,4.8001,4.8001,4.8001,4.8001,4.8001,4.8001,4.8001,4.8001,4.8001,4.8001,4.8001,4.8001,4.8001,4.8001,4.8332,4.8663,4.8663,4.8995,4.9591,5.0549,5.0641,5.057,5.0467,5.0326,5.0281,5.0399,5.0391,5.0546,5.1145,5.1199,5.1199,5.1199,5.094,5.0455,4.9548,4.958,4.9192,4.7864,4.7896,4.7831,4.7378,4.7054,4.6442,4.5332,4.4737,4.3257,4.0604,4.1541,4.1599,4.0525,4.1541,4.2092,4.2092,4.2092,4.1947,4.1686,4.1686,4.1221,3.2631,0.0,0.0,0.0,0.0,0.0,0.0,0.0,0.0,0.0,0.0,0.0,0.0,0.0,0.0,0.0,0.0,0.0,0.0,0.0,0.0,0.0,0.0,0.0,0.0,0.0,0.0,0.0,0.0,0.0,4.4787,4.5417,4.5781,4.5781,4.6444,4.6444,4.5715,4.5019,4.4986,4.5582,4.492,4.4953,4.5582,4.5649,4.6046,4.6742,4.7471,4.7835,4.7901,4.7901,4.7934,4.8001,4.8001,4.8001,4.8001,4.8001,4.8001,4.8001,4.8001,4.8001,4.8001,4.8001,4.8001,4.8001,4.8001,4.8001,4.8001,4.8001,4.8001,4.8001,4.8001,4.8001,4.8266,4.9453,4.9747,4.971,4.9571,4.9501,4.9627,5.0066,5.0196,5.0384,5.1015,5.1102,5.1102,5.1102,5.0455,4.9969,4.9936,4.9386,4.8965,4.8835,4.835,4.7923,4.7755,4.7211,4.6159,4.4586,4.4434,4.3438,4.1266,4.1826,4.1773,4.1105,4.1744,4.2092,4.2092,4.2034,4.1686,4.1105,4.1047,4.035,3.2394,3.3845,0.0,0.0,0.0,0.0,0.0,0.0,0.0,0.0,0.0,0.0,0.0,0.0,0.0,0.0,0.0,0.0,0.0,0.0,0.0,0.0,0.0,0.0,0.0,0.0,0.0,0.0,0.0,0.0,4.5549,4.5715,4.5781,4.5781,4.5947,4.5682,4.492,4.4754,4.4489,4.4092,4.3926,4.3926,4.4092,4.4655,4.5019,4.5185,4.5947,4.6609,4.7139,4.7139,4.7471,4.8001,4.8001,4.8001,4.8001,4.8001,4.8001,4.8001,4.8001,4.8001,4.8001,4.8001,4.8001,4.8001,4.8001,4.8001,4.8001,4.8001,4.8001,4.8001,4.8001,4.8001,4.8001,4.8166,4.8627,4.8954,4.8817,4.8576,4.8502,4.8486,4.8518,4.894,5.0131,5.0325,5.0325,5.0325,4.971,4.9062,4.8544,4.8771,4.8609,4.7475,4.7734,4.7555,4.6271,4.608,4.5551,4.4586,4.3897,4.3127,4.2079,4.2122,4.1773,4.1105,4.1744,4.2092,4.2092,4.157,4.125,4.1076,4.0554,3.9915,3.251,0.0,0.0,3.9101,0.0,0.0,0.0,0.0,0.0,0.0,0.0,0.0,0.0,0.0,0.0,0.0,0.0,0.0,0.0,0.0,0.0,0.0,0.0,0.0,0.0,0.0,0.0,0.0,0.0,4.4754,4.4754,4.5086,4.5119,4.4754,4.5086,4.492,4.4191,4.3462,4.3297,4.3628,4.2899,4.2767,4.3131,4.4191,4.4688,4.4721,4.5483,4.6013,4.6378,4.6378,4.6609,4.6941,4.6941,4.7173,4.7471,4.7471,4.7703,4.8001,4.8001,4.8001,4.8001,4.8001,4.8001,4.8001,4.8001,4.8001,4.8001,4.8001,4.8001,4.8001,4.8001,4.8001,4.8001,4.7869,4.8001,4.8095,4.7926,4.772,4.7679,4.7929,4.8026,4.835,4.9386,4.958,4.958,4.958,4.8997,4.8414,4.8058,4.7993,4.7864,4.7475,4.7443,4.7162,4.6275,4.5886,4.5184,4.3974,4.3506,4.2962,4.2237,4.2135,4.1773,4.1105,4.1424,4.1773,4.2092,4.1105,4.0612,4.0612,3.9973,3.9334,3.2648,0.0,3.6693,4.0325,4.28,0.0,0.0,0.0,0.0,0.0,0.0,0.0,0.0,0.0,0.0,0.0,0.0,0.0,0.0,0.0,0.0,0.0,0.0,0.0,0.0,0.0,0.0,0.0,0.0,4.3628,4.3628,4.4191,4.4158,4.3462,4.3992,4.3959,4.3264,4.2038,4.2038,4.323,4.2005,4.174,4.2369,4.3562,4.4191,4.4357,4.5086,4.5483,4.5616,4.5616,4.5682,4.5781,4.5781,4.6179,4.6709,4.6709,4.7106,4.7636,4.7636,4.7703,4.7802,4.7802,4.7901,4.8001,4.8001,4.8001,4.8001,4.8001,4.8001,4.8001,4.8001,4.8001,4.7935,4.7935,4.7671,4.7403,4.7267,4.7098,4.7156,4.7702,4.7929,4.8188,4.8738,4.8835,4.8835,4.8835,4.8252,4.7831,4.7831,4.7281,4.7119,4.7734,4.7249,4.684,4.6592,4.594,4.4887,4.3349,4.314,4.2769,4.2092,4.2092,4.1831,4.1279,4.1279,4.1482,4.1918,4.0699,4.0031,3.9915,3.9305,3.8725,0.0,0.0,3.7669,0.0,4.1674,4.28,0.0,0.0,0.0,0.0,0.0,0.0,0.0,0.0,0.0,0.0,0.0,0.0,0.0,0.0,0.0,0.0,0.0,0.0,0.0,0.0,0.0,0.0,4.3694,4.3628,4.3628,4.3727,4.3429,4.27,4.2767,4.2469,4.1707,4.1508,4.1508,4.1707,4.1508,4.1475,4.1574,4.1773,4.2204,4.2833,4.3595,4.4257,4.4821,4.4821,4.5218,4.5781,4.5781,4.5847,4.5947,4.5947,4.6013,4.6079,4.6079,4.651,4.704,4.704,4.7471,4.8001,4.8001,4.8001,4.8001,4.8001,4.8001,4.8001,4.8001,4.7869,4.7704,4.7704,4.7504,4.7267,4.7403,4.7335,4.7131,4.7091,4.7572,4.8026,4.8123,4.8155,4.8155,4.8155,4.7508,4.7022,4.7022,4.6957,4.6925,4.7022,4.6957,4.6615,4.5896,4.5098,4.4282,4.3379,4.2607,4.2257,4.2092,4.2092,4.2063,4.1976,4.1976,4.1715,4.1221,4.0466,3.9828,3.9305,3.8638,3.8289,3.27,3.4835,3.7068,0.0,3.9951,4.1309,4.1309,0.0,0.0,0.0,0.0,0.0,0.0,0.0,0.0,0.0,0.0,0.0,0.0,0.0,0.0,0.0,0.0,0.0,0.0,0.0,0.0,0.0,4.323,4.2999,4.2999,4.2601,4.2237,4.1905,4.1508,4.1342,4.1409,4.0613,4.0415,4.0845,4.121,4.1409,4.1409,4.1409,4.1607,4.1939,4.2667,4.3197,4.3495,4.3926,4.4291,4.4589,4.4589,4.4821,4.5185,4.5185,4.5185,4.5185,4.5185,4.5384,4.5649,4.5649,4.6146,4.6775,4.6775,4.7073,4.7371,4.7371,4.7669,4.8001,4.8001,4.7935,4.7869,4.7869,4.7604,4.7403,4.747,4.7267,4.703,4.6892,4.7151,4.7378,4.7378,4.7378,4.7378,4.7378,4.7087,4.6892,4.6892,4.6892,4.6892,4.6892,4.6892,4.6582,4.5769,4.4962,4.4128,4.3349,4.2555,4.2092,4.2092,4.2092,4.2092,4.2092,4.1715,4.1395,4.1105,4.0089,3.9625,3.9683,3.9073,3.8754,0.0,0.0,3.5773,3.6455,3.8166,3.9694,0.0,0.0,0.0,0.0,0.0,0.0,0.0,0.0,0.0,0.0,0.0,0.0,0.0,0.0,0.0,0.0,0.0,0.0,0.0,0.0,0.0,0.0,4.2667,4.2237,4.2237,4.1707,4.1342,4.1143,4.0647,4.0547,4.0878,3.9818,3.9553,4.0117,4.0613,4.0878,4.0878,4.0878,4.0878,4.0912,4.1839,4.2336,4.2568,4.3098,4.3462,4.3628,4.3628,4.3959,4.4423,4.4423,4.4423,4.4423,4.4423,4.4423,4.4456,4.4622,4.5052,4.5549,4.5715,4.6311,4.6908,4.6908,4.7438,4.8001,4.8001,4.7935,4.7935,4.7935,4.7671,4.7403,4.7335,4.7098,4.6892,4.6892,4.6892,4.6892,4.6892,4.6892,4.6892,4.6892,4.6892,4.6892,4.6892,4.6892,4.6892,4.6892,4.6892,4.6652,4.6088,4.511,4.4205,4.3663,4.2607,4.2092,4.2092,4.2092,4.2092,4.2092,4.1599,4.1279,4.1105,4.0147,3.9741,3.9857,3.9421,3.9102,0.0,3.3196,0.0,3.5069,3.6434,0.0,0.0,0.0,0.0,0.0,0.0,0.0,0.0,0.0,0.0,0.0,0.0,0.0,0.0,0.0,0.0,0.0,0.0,0.0,0.0,0.0,0.0,0.0,4.1872,4.1475,4.1475,4.1442,4.111,4.0448,4.0415,4.005,3.9388,3.9375,3.9342,3.9322,3.9355,3.9388,3.9388,3.9388,3.9388,3.9454,4.0878,4.1872,4.2535,4.2568,4.2999,4.3628,4.3628,4.3628,4.3694,4.3694,4.3694,4.3694,4.3694,4.3694,4.3794,4.4456,4.4721,4.4887,4.5582,4.6311,4.6908,4.6908,4.7438,4.8001,4.8001,4.7869,4.7704,4.7704,4.7437,4.7167,4.6961,4.6892,4.6892,4.6892,4.6892,4.6892,4.6892,4.6892,4.6892,4.6892,4.6892,4.6892,4.6892,4.6892,4.6892,4.6892,4.6892,4.6892,4.6823,4.5405,4.451,4.4434,4.301,4.2092,4.2092,4.2092,4.2092,4.2092,4.2063,4.1744,4.1105,4.1018,4.0408,3.9247,3.9218,3.887,0.0,0.0,0.0,3.3271,3.4667,3.6033,0.0,0.0,0.0,0.0,0.0,0.0,0.0,0.0,0.0,0.0,0.0,0.0,0.0,0.0,0.0,0.0,0.0,0.0,0.0,0.0,0.0,0.0,0.0,4.0746,4.0746,4.0315,3.9918,3.9686,3.9222,3.8858,3.8593,3.9056,3.9288,3.9288,3.9288,3.9288,3.9288,3.9288,3.9288,3.9288,3.9818,4.0448,4.1177,4.164,4.1972,4.227,4.2734,4.2899,4.2965,4.3462,4.333,4.2899,4.2899,4.2601,4.2336,4.3065,4.3297,4.3429,4.4158,4.4887,4.5483,4.5483,4.6344,4.7305,4.7305,4.7571,4.7869,4.7604,4.7403,4.7167,4.6961,4.6892,4.6892,4.6892,4.6892,4.6892,4.6892,4.6892,4.6892,4.6892,4.6892,4.6892,4.6892,4.6892,4.6892,4.6892,4.6892,4.6892,4.6892,4.5405,4.451,4.451,4.301,4.2092,4.2092,4.2092,4.2092,4.2092,4.2092,4.1773,4.1105,4.1105,4.0873,4.0408,3.9973,3.9654,3.1428,0.0,0.0,0.0,0.0,3.4421,3.4743,0.0,0.0,0.0,0.0,0.0,0.0,0.0,0.0,0.0,0.0,0.0,0.0,0.0,0.0,0.0,0.0,0.0,0.0,0.0,0.0,0.0,0.0,0.0,4.0017,3.9553,3.9288,3.9288,3.8825,3.856,3.856,3.9056,3.9288,3.9288,3.9288,3.9288,3.9288,3.9288,3.9288,3.9288,3.9288,3.9686,4.0415,4.0878,4.121,4.1475,4.1939,4.2137,4.2237,4.2965,4.2932,4.2568,4.28,4.2402,4.1905,4.2634,4.2734,4.2667,4.3396,4.4125,4.4688,4.4688,4.5582,4.6576,4.6841,4.7373,4.7803,4.747,4.7335,4.7167,4.6961,4.6892,4.6892,4.6892,4.6892,4.6892,4.6892,4.6892,4.6892,4.6892,4.6892,4.6892,4.6892,4.6892,4.6892,4.6892,4.6892,4.6892,4.6892,4.5697,4.4812,4.451,4.322,4.2392,4.2092,4.2092,4.2092,4.2092,4.2092,4.1889,4.1424,4.1221,4.0873,4.0437,4.0002,3.9799,0.0,0.0,0.0,0.0,0.0,0.0,3.3839,0.0,3.443,0.0,0.0,0.0,0.0,0.0,0.0,0.0,0.0,0.0,0.0,0.0,0.0,0.0,0.0,0.0,0.0,0.0,0.0,0.0,3.9686,3.9288,3.9288,3.9288,3.9288,3.9288,3.9288,3.9288,3.9288,3.9288,3.9288,3.9288,3.9288,3.9288,3.9288,3.9288,3.9288,3.9288,3.9288,3.9686,4.0348,4.0348,4.0746,4.1342,4.1375,4.1375,4.1475,4.2204,4.2502,4.2634,4.333,4.3131,4.2634,4.3396,4.3131,4.2667,4.3396,4.4092,4.4655,4.4655,4.5185,4.5947,4.6709,4.7275,4.7605,4.7235,4.7199,4.7098,4.6961,4.6892,4.6892,4.6892,4.6892,4.6892,4.6892,4.6892,4.6892,4.6892,4.6892,4.6892,4.6892,4.6892,4.6892,4.6892,4.6892,4.6892,4.6892,4.6127,4.5332,4.451,4.3741,4.29,4.2092,4.2092,4.2092,4.2092,4.2092,4.2092,4.2063,4.1424,4.0466,3.9247,3.9218,3.9189,3.1235,0.0,0.0,0.0,0.0,0.0,0.0,0.0,0.0,0.0,0.0,0.0,0.0,0.0,0.0,0.0,0.0,0.0,0.0,0.0,0.0,0.0,0.0,0.0,0.0,0.0,0.0,0.0,3.9441,3.9288,3.9288,3.9288,3.9288,3.9288,3.9288,3.9288,3.9288,3.9288,3.9288,3.9288,3.9288,3.9288,3.9288,3.9288,3.9288,3.9288,3.9288,3.9441,3.9587,3.9587,3.9686,3.9918,4.0448,4.068,4.0746,4.1475,4.2071,4.2535,4.2767,4.27,4.2634,4.3396,4.3131,4.2667,4.3396,4.3761,4.3926,4.3926,4.4456,4.5284,4.6416,4.6717,4.6815,4.7137,4.7098,4.6961,4.6892,4.6892,4.6892,4.6892,4.6892,4.6892,4.6892,4.6892,4.6892,4.6892,4.6892,4.6892,4.6892,4.6892,4.6892,4.6892,4.6892,4.6892,4.6892,4.5624,4.4737,4.451,4.322,4.231,4.2092,4.2092,4.2092,4.2092,4.2092,4.186,4.1366,4.1192,4.0931,4.0554,3.9625,3.8957,0.0,0.0,0.0,0.0,0.0,0.0,3.2131,3.2286,3.2486,0.0,0.0,0.0,0.0,0.0,0.0,0.0,0.0,0.0,0.0,0.0,0.0,0.0,0.0,0.0,0.0,3.8129,3.8361,3.8361,3.8361,3.8493,3.8825,3.8825,3.8957,3.9309,3.899,3.899,3.9288,3.899,3.899,3.9288,3.9288,3.9288,3.9288,3.9288,3.9288,3.9288,3.9288,3.9288,3.9288,3.9288,3.9288,3.9322,3.9752,3.9918,4.0017,4.0713,4.1243,4.1674,4.1939,4.227,4.2601,4.3032,4.3098,4.3065,4.3495,4.3628,4.3628,4.3628,4.4125,4.4887,4.5497,4.583,4.6028,4.6256,4.6348,4.6439,4.6439,4.6666,4.6892,4.6892,4.6892,4.6892,4.6892,4.6892,4.6892,4.6892,4.6892,4.6892,4.6892,4.6892,4.6892,4.6892,4.6892,4.6722,4.6442,4.5551,4.4737,4.4051,4.314,4.2474,4.2092,4.2092,4.2092,4.2092,4.2092,4.1628,4.067,4.067,4.0408,3.9857,3.9131,3.8725,0.0,0.0,0.0,0.0,0.0,0.0,3.1441,3.1447,3.1429,0.0,0.0,0.0,0.0,0.0,0.0,0.0,0.0,0.0,0.0,0.0,0.0,0.0,0.0,0.0,3.697,3.7069,3.7102,3.7102,3.7036,3.7301,3.8063,3.7996,3.8295,3.9023,3.8427,3.8394,3.9023,3.8394,3.846,3.9156,3.9156,3.9189,3.9288,3.9288,3.9288,3.9288,3.9288,3.9288,3.9288,3.9288,3.9288,3.9288,3.9288,3.9288,3.9355,4.0017,4.0315,4.0481,4.1077,4.1773,4.2402,4.2502,4.2965,4.3529,4.3595,4.3628,4.3628,4.3628,4.4092,4.4528,4.4443,4.4812,4.5209,4.5147,4.5471,4.5824,4.5921,4.6439,4.6892,4.6892,4.6892,4.6892,4.6892,4.6892,4.6892,4.6892,4.6892,4.6892,4.6892,4.6892,4.6892,4.6892,4.6892,4.6582,4.5769,4.5624,4.493,4.3349,4.322,4.285,4.2092,4.2092,4.2092,4.2092,4.2092,4.1424,4.0089,4.0089,3.945,3.8202,3.8202,3.8522,0.0,0.0,0.0,0.0,0.0,0.0,3.1086,3.1079,3.1314,0.0,3.2059,0.0,0.0,0.0,0.0,0.0,0.0,0.0,0.0,0.0,0.0,0.0,0.0,0.0,3.6208,3.6771,3.7102,3.7102,3.6539,3.6539,3.7301,3.6771,3.6771,3.75,3.74,3.74,3.7533,3.74,3.7698,3.8427,3.8427,3.8725,3.9288,3.9288,3.9288,3.9288,3.9288,3.9288,3.9288,3.9288,3.9288,3.9288,3.9288,3.9288,3.9342,3.9421,3.9885,4.0415,4.0547,4.1044,4.174,4.2336,4.2634,4.2866,4.3462,4.3628,4.3628,4.3628,4.3727,4.3899,4.4311,4.4512,4.4781,4.5669,4.5994,4.6188,4.6604,4.6795,4.6892,4.6892,4.6892,4.6892,4.6892,4.6892,4.6892,4.6892,4.6892,4.6892,4.6892,4.6892,4.6892,4.6892,4.6892,4.6582,4.5769,4.511,4.4358,4.3349,4.2688,4.2228,4.2092,4.2092,4.2092,4.2092,4.2092,4.1424,4.0089,4.0089,3.945,3.8202,3.8202,3.826,0.0,0.0,0.0,3.222,0.0,0.0,0.0,3.0742,3.0492,3.0555,3.0653,3.0925,3.1589,3.234,3.3105,0.0,0.0,0.0,0.0,0.0,0.0,0.0,0.0,3.5446,3.5446,3.5777,3.6009,3.6009,3.5644,3.5777,3.6506,3.5843,3.5777,3.6539,3.6208,3.6174,3.6539,3.6539,3.6936,3.7665,3.7665,3.803,3.8758,3.8758,3.8924,3.9288,3.9288,3.9288,3.9288,3.9288,3.9288,3.9288,3.9288,3.9288,3.9288,3.9288,3.952,3.9818,3.9818,4.0282,4.0945,4.1342,4.1674,4.2038,4.2402,4.2767,4.3072,4.341,4.3509,4.3515,4.3695,4.3732,4.3804,4.4397,4.4724,4.5114,4.5694,4.6115,4.6439,4.6828,4.6892,4.6892,4.6892,4.6892,4.6892,4.6892,4.6892,4.6892,4.6892,4.6892,4.6892,4.6892,4.6892,4.6442,4.5184,4.4737,4.3974,4.2769,4.231,4.2092,4.2092,4.2092,4.2092,4.2092,4.1773,4.1105,4.0089,3.9799,3.916,3.8202,3.8202,3.8202,0.0,0.0,0.0,0.0,0.0,3.1429,0.0,0.0,0.0,2.9335,2.9348,0.0,0.0,3.0869,0.0,0.0,0.0,0.0,0.0,0.0,0.0,0.0,0.0,3.4329,3.4603,3.4603,3.4669,3.4883,3.483,3.5063,3.5744,3.5081,3.5015,3.5777,3.5081,3.5048,3.5777,3.5644,3.6009,3.6903,3.6903,3.7268,3.7996,3.8162,3.8526,3.909,3.9222,3.9288,3.9288,3.9288,3.9288,3.9288,3.9288,3.9288,3.9288,3.9288,3.9288,3.9288,3.9288,3.9653,4.0183,4.0315,4.0845,4.1409,4.1409,4.1939,4.2576,4.3053,4.3317,4.3388,4.3174,4.3052,4.2994,4.3062,4.3425,4.3977,4.4625,4.5241,4.5824,4.6536,4.6666,4.673,4.686,4.6892,4.6892,4.6892,4.6892,4.6892,4.6892,4.6892,4.6892,4.6892,4.6892,4.623,4.4662,4.451,4.3849,4.2175,4.2092,4.2092,4.2092,4.2092,4.2092,4.2092,4.157,4.096,4.0292,3.9799,3.9102,3.8202,3.8202,3.8202,0.0,0.0,0.0,0.0,3.2559,0.0,0.0,0.0,3.1057,3.0432,0.0,3.0797,3.0878,0.0,0.0,0.0,0.0,0.0,0.0,0.0,0.0,3.5227,3.319,3.2144,3.343,3.359,3.3933,3.4849,3.4518,3.4485,3.4982,3.4319,3.4253,3.4982,3.4286,3.4286,3.5015,3.4386,3.475,3.6108,3.6108,3.6506,3.7268,3.7897,3.8261,3.8361,3.899,3.9288,3.9288,3.9288,3.9288,3.9288,3.9288,3.9288,3.9288,3.9288,3.9288,3.9288,3.9288,3.9322,3.952,4.015,4.0845,4.1409,4.1409,4.1939,4.2535,4.2543,4.3013,4.3388,4.3388,4.3235,4.3215,4.3777,4.3909,4.4106,4.4691,4.4852,4.5111,4.5791,4.5921,4.6115,4.6763,4.6892,4.6892,4.6892,4.6892,4.6892,4.6892,4.6892,4.6892,4.6892,4.6892,4.623,4.4662,4.451,4.3849,4.2175,4.2092,4.2092,4.2092,4.2092,4.2092,4.2092,4.2034,4.1657,4.0989,4.0931,3.9973,3.8202,3.8202,3.8202,0.0,0.0,0.0,0.0,0.0,0.0,0.0,0.0,3.0489,0.0,0.0,0.0,0.0,0.0,0.0,0.0,3.1437,0.0,0.0,0.0,0.0,0.0,0.0,0.0,3.3175,3.2579,3.2305,3.2725,3.2902,3.3145,3.329,3.3355,3.3499,3.3794,3.3815,3.3723,3.3624,3.4154,3.4518,3.4717,3.5148,3.5744,3.6473,3.6804,3.74,3.8228,3.8526,3.8891,3.9288,3.9288,3.9288,3.9288,3.9288,3.9288,3.9288,3.9288,3.9288,3.9288,3.9288,3.9288,3.9322,3.9653,3.9951,4.0249,4.068,4.1309,4.1914,4.2286,4.2888,4.3388,4.3146,4.3084,4.3027,4.3165,4.3167,4.3361,4.401,4.4172,4.4366,4.5079,4.5532,4.5888,4.6212,4.6601,4.6892,4.6892,4.6892,4.6892,4.6892,4.6892,4.6892,4.6892,4.6512,4.5769,4.4586,4.4051,4.3299,4.2175,4.2092,4.2092,4.2092,4.2092,4.2092,4.2092,4.1715,4.1366,4.1105,4.035,3.9567,3.8783,3.8783,3.858,3.2143,0.0,0.0,0.0,0.0,0.0,0.0,0.0,0.0,0.0,0.0,0.0,0.0,0.0,3.0675,0.0,0.0,3.0543,0.0,0.0,0.0,0.0,0.0,0.0,0.0,3.1855,3.1437,3.1709,0.0,3.2101,3.219,3.2574,3.2851,3.3044,3.319,3.3241,3.311,3.3571,3.3881,3.4087,3.4325,3.4886,3.5711,3.5909,3.6572,3.7632,3.7831,3.8195,3.8692,3.8891,3.899,3.899,3.9189,3.9288,3.9288,3.9288,3.9288,3.9288,3.9288,3.9288,3.9288,3.9288,3.9288,3.9441,3.9918,4.058,4.1163,4.1807,4.2473,4.2944,4.2896,4.2837,4.2775,4.2618,4.2618,4.278,4.3298,4.3427,4.3622,4.4366,4.4885,4.5305,4.55,4.6277,4.6892,4.6892,4.6892,4.6892,4.6892,4.6892,4.6892,4.6892,4.6372,4.5624,4.4586,4.3974,4.322,4.2175,4.2092,4.2092,4.2092,4.2092,4.2092,4.2092,4.1628,4.1366,4.1366,4.0437,3.9799,3.945,3.9102,3.8667,0.0,0.0,0.0,3.2999,0.0,0.0,0.0,0.0,3.0895,0.0,0.0,0.0,0.0,3.0577,3.0205,3.0281,0.0,0.0,0.0,0.0,0.0,0.0,0.0,0.0,0.0,3.1662,3.1967,0.0,3.2176,3.1789,3.2159,3.2222,3.2507,3.3203,3.2384,3.2643,3.4003,3.2043,3.2308,3.4849,3.3695,3.3761,3.4949,3.5678,3.6042,3.6108,3.6837,3.7168,3.7235,3.7963,3.8261,3.8328,3.899,3.9288,3.9288,3.9288,3.9288,3.9288,3.9288,3.9288,3.9288,3.9288,3.9288,3.9288,3.9288,3.9709,4.0325,4.1049,4.154,4.202,4.2737,4.2775,4.2618,4.2618,4.2618,4.265,4.265,4.2682,4.2877,4.3589,4.3751,4.401,4.469,4.5953,4.6892,4.6892,4.6892,4.6892,4.6892,4.6892,4.6892,4.6892,4.6892,4.623,4.4662,4.4434,4.3771,4.2175,4.2092,4.2092,4.2092,4.2092,4.2092,4.2092,4.2063,4.2063,4.2063,4.2034,4.1337,4.0031,3.8812,3.8231,0.0,0.0,3.2204,3.196,0.0,0.0,0.0,0.0,0.0,0.0,0.0,0.0,0.0,0.0,2.9902,2.9957,2.9957,3.0033,0.0,2.9989,3.0196,0.0,0.0,0.0,0.0,0.0,0.0,0.0,2.9701,0.0,3.0479,3.1226,3.1995,3.268,3.274,3.2774,3.2774,3.2123,3.2144,3.2914,3.2626,3.3097,3.422,3.5021,3.5891,3.6771,3.7533,3.7831,3.7864,3.8096,3.793,3.75,3.7765,3.8129,3.8626,3.909,3.9288,3.9288,3.9288,3.9288,3.9288,3.9288,3.9288,3.9288,3.9148,3.9676,4.0304,4.0311,4.0845,4.1475,4.2048,4.2122,4.2158,4.252,4.2618,4.2618,4.2618,4.2618,4.2652,4.2941,4.3395,4.3783,4.4043,4.4852,4.5662,4.6115,4.6568,4.6892,4.6892,4.6892,4.6722,4.6127,4.5624,4.4887,4.3819,4.322,4.2718,4.2092,4.2092,4.2092,4.2092,4.2092,4.2092,4.2092,4.2092,4.2092,4.2092,4.1657,4.1192,4.0728,3.9857,3.9247,3.1928,3.189,0.0,3.1558,3.0998,0.0,3.0096,0.0,0.0,0.0,0.0,0.0,0.0,0.0,0.0,2.9528,2.9694,2.9858,0.0,2.9858,2.9858,0.0,0.0,0.0,0.0,0.0,0.0,2.867,2.8505,2.8793,0.0,3.0334,3.1189,3.2048,3.2408,3.23,3.1862,3.1413,3.1318,3.1646,3.1318,3.2045,3.3557,3.4137,3.5085,3.6373,3.7102,3.7268,3.7069,3.7599,3.7367,3.6738,3.7003,3.74,3.7897,3.8626,3.9056,3.9288,3.9288,3.9288,3.9288,3.9288,3.9288,3.9288,3.9148,3.9478,4.004,4.0516,4.068,4.0885,4.1829,4.1898,4.1801,4.2132,4.2456,4.2618,4.2618,4.2618,4.2618,4.2618,4.3006,4.333,4.333,4.3913,4.4723,4.5662,4.5986,4.6212,4.6471,4.6277,4.5938,4.5389,4.4664,4.3864,4.3067,4.2408,4.2092,4.2092,4.2092,4.2092,4.2092,4.2092,4.2208,4.2411,4.2208,4.2208,4.2411,4.1773,4.1337,4.1105,4.0902,4.0466]}]]